[[{"header":{"parameterUnit":"m.s-1","parameterCategory":1,"la1":30.6,"la2":29.2853,"lo1":-89.7004,"lo2":-87.6739,"dy":0.0162,"dx":0.0183,"nx":112,"ny":82,"refTime":"2023-02-27T06:00:00:Z","depth":0,"parameterNumber":2,"parameterNumberName":"U-component_of_WINDS"},"data":[0.0,0.0,0.0,0.0,0.0,0.0,0.0,0.0,0.0,0.0,0.0,0.0,0.0,0.0,0.0,0.0,0.0,0.0,0.0,0.0,0.0,0.0,0.0,0.0,0.0,0.0,0.0,0.0,0.0,0.0,0.0,0.0,0.0,0.0,0.0,0.0,0.0,0.0,0.0,0.0,0.0,0.0,0.0,0.0,0.0,0.0,0.0,0.0,0.0,0.0,0.0,0.0,0.0,0.0,0.0,0.0,0.0,0.0,0.0,0.0,0.0,0.0,0.0,0.0,0.0,0.0,0.0,0.0,0.0,0.0,0.0,0.0,0.0,0.0,0.0,0.0,0.0,0.0,0.0,0.0,0.0,0.0,0.0,0.0,0.0,0.0,0.0,0.0,0.0,0.0,-4.3382,-4.7384,-5.3195,-5.8147,-6.1485,-6.0127,-5.7451,-5.3602,0.0,0.0,0.0,0.0,0.0,0.0,0.0,0.0,0.0,0.0,0.0,0.0,0.0,0.0,0.0,0.0,0.0,0.0,0.0,0.0,0.0,0.0,0.0,0.0,0.0,0.0,0.0,0.0,0.0,0.0,0.0,0.0,0.0,0.0,0.0,0.0,0.0,0.0,0.0,0.0,0.0,0.0,0.0,0.0,0.0,0.0,0.0,0.0,0.0,0.0,0.0,0.0,0.0,0.0,0.0,0.0,0.0,0.0,0.0,0.0,0.0,0.0,0.0,0.0,0.0,0.0,0.0,0.0,0.0,0.0,0.0,0.0,0.0,0.0,0.0,0.0,0.0,0.0,0.0,0.0,0.0,0.0,0.0,0.0,0.0,0.0,0.0,0.0,0.0,0.0,0.0,0.0,0.0,0.0,0.0,0.0,0.0,0.0,0.0,0.0,0.0,0.0,0.0,0.0,-4.3613,-4.9567,-5.2736,-5.5852,-5.9532,-5.774,-5.5479,-5.3369,0.0,0.0,0.0,0.0,0.0,0.0,0.0,0.0,0.0,0.0,0.0,0.0,0.0,0.0,0.0,0.0,0.0,0.0,0.0,0.0,0.0,0.0,0.0,0.0,0.0,0.0,0.0,0.0,0.0,0.0,0.0,0.0,0.0,0.0,0.0,0.0,0.0,0.0,0.0,0.0,0.0,0.0,0.0,0.0,0.0,0.0,0.0,0.0,0.0,0.0,0.0,0.0,0.0,0.0,0.0,0.0,0.0,0.0,0.0,0.0,0.0,0.0,0.0,0.0,0.0,0.0,0.0,0.0,0.0,0.0,0.0,0.0,0.0,0.0,0.0,0.0,0.0,0.0,0.0,0.0,0.0,0.0,0.0,0.0,0.0,0.0,0.0,0.0,0.0,0.0,0.0,0.0,0.0,0.0,0.0,0.0,0.0,0.0,0.0,0.0,0.0,0.0,0.0,-4.3271,-4.6222,-5.0406,-5.2736,-5.5039,-5.7592,-5.5954,-5.406,-5.2214,-5.0249,0.0,0.0,0.0,0.0,0.0,0.0,0.0,0.0,0.0,0.0,0.0,0.0,0.0,0.0,0.0,0.0,0.0,0.0,0.0,0.0,0.0,0.0,0.0,0.0,0.0,0.0,0.0,0.0,0.0,0.0,0.0,0.0,0.0,0.0,0.0,0.0,0.0,0.0,0.0,0.0,0.0,0.0,0.0,0.0,0.0,0.0,0.0,0.0,0.0,0.0,0.0,0.0,0.0,0.0,0.0,0.0,0.0,0.0,0.0,0.0,0.0,0.0,0.0,0.0,0.0,0.0,0.0,0.0,0.0,0.0,0.0,0.0,0.0,0.0,0.0,0.0,0.0,0.0,0.0,0.0,0.0,0.0,0.0,0.0,0.0,0.0,0.0,0.0,0.0,0.0,0.0,0.0,0.0,0.0,0.0,0.0,0.0,0.0,0.0,0.0,0.0,0.0,-4.5637,-4.8344,-5.0453,-5.2413,-5.4294,-5.6027,-5.4458,-5.2823,-5.1488,-4.8627,0.0,0.0,0.0,0.0,0.0,0.0,0.0,0.0,0.0,0.0,0.0,0.0,0.0,0.0,0.0,0.0,0.0,0.0,0.0,0.0,0.0,0.0,0.0,0.0,0.0,0.0,0.0,0.0,0.0,0.0,0.0,0.0,0.0,0.0,0.0,0.0,0.0,0.0,0.0,0.0,0.0,0.0,0.0,0.0,0.0,0.0,0.0,0.0,0.0,0.0,0.0,0.0,0.0,0.0,0.0,0.0,0.0,0.0,0.0,0.0,0.0,0.0,0.0,0.0,0.0,0.0,0.0,0.0,0.0,0.0,0.0,0.0,0.0,0.0,0.0,0.0,0.0,0.0,0.0,0.0,0.0,0.0,0.0,0.0,0.0,0.0,0.0,0.0,0.0,0.0,0.0,0.0,0.0,0.0,0.0,0.0,0.0,0.0,0.0,0.0,0.0,0.0,-4.545,-4.8199,-4.9539,-5.1138,-5.2888,-5.5009,-5.2969,-5.1749,-5.2087,-4.7511,0.0,0.0,0.0,0.0,0.0,0.0,0.0,0.0,0.0,0.0,0.0,0.0,0.0,0.0,0.0,0.0,0.0,0.0,0.0,0.0,0.0,0.0,0.0,0.0,0.0,0.0,0.0,0.0,0.0,0.0,0.0,0.0,0.0,0.0,0.0,0.0,0.0,0.0,0.0,0.0,0.0,0.0,0.0,0.0,0.0,0.0,0.0,0.0,0.0,0.0,0.0,0.0,0.0,0.0,0.0,0.0,0.0,0.0,0.0,0.0,0.0,0.0,0.0,0.0,0.0,0.0,0.0,0.0,0.0,0.0,0.0,0.0,0.0,0.0,0.0,0.0,0.0,0.0,0.0,0.0,0.0,0.0,0.0,0.0,0.0,0.0,0.0,0.0,0.0,0.0,0.0,0.0,0.0,0.0,0.0,0.0,0.0,0.0,0.0,0.0,0.0,0.0,-4.4959,-4.7586,-4.898,-5.0493,-5.1888,-5.3073,-5.2226,-5.1141,-5.0151,0.0,0.0,0.0,0.0,0.0,0.0,0.0,0.0,0.0,0.0,0.0,0.0,0.0,0.0,0.0,0.0,0.0,0.0,0.0,0.0,0.0,0.0,0.0,0.0,0.0,0.0,0.0,0.0,0.0,0.0,0.0,0.0,0.0,0.0,0.0,0.0,0.0,0.0,0.0,0.0,0.0,0.0,0.0,0.0,0.0,0.0,0.0,0.0,0.0,0.0,0.0,0.0,0.0,0.0,0.0,0.0,0.0,0.0,0.0,0.0,0.0,0.0,0.0,0.0,0.0,0.0,0.0,0.0,0.0,0.0,0.0,0.0,0.0,0.0,0.0,0.0,0.0,0.0,0.0,0.0,0.0,0.0,0.0,0.0,0.0,0.0,0.0,0.0,0.0,0.0,0.0,0.0,0.0,0.0,0.0,0.0,0.0,0.0,0.0,0.0,0.0,0.0,-4.1803,-4.4582,-4.6952,-4.8643,-5.0142,-5.1202,-5.1596,-5.1001,-5.0079,-4.8849,0.0,0.0,0.0,0.0,0.0,0.0,0.0,0.0,0.0,0.0,0.0,0.0,0.0,0.0,0.0,0.0,0.0,0.0,0.0,0.0,0.0,0.0,0.0,0.0,0.0,0.0,0.0,0.0,0.0,0.0,0.0,0.0,0.0,0.0,0.0,0.0,0.0,0.0,0.0,0.0,0.0,0.0,0.0,0.0,0.0,0.0,0.0,0.0,0.0,0.0,0.0,0.0,0.0,0.0,0.0,0.0,0.0,0.0,0.0,0.0,0.0,0.0,0.0,0.0,0.0,0.0,0.0,0.0,0.0,0.0,0.0,0.0,0.0,0.0,0.0,0.0,0.0,0.0,0.0,0.0,0.0,0.0,0.0,0.0,0.0,0.0,0.0,0.0,0.0,0.0,0.0,0.0,0.0,0.0,0.0,0.0,0.0,0.0,0.0,0.0,0.0,0.0,-4.2431,-4.439,-4.6316,-4.8518,-5.0007,-5.0875,-5.0875,-4.9266,-4.8361,0.0,0.0,0.0,0.0,0.0,0.0,0.0,0.0,0.0,0.0,0.0,0.0,0.0,0.0,0.0,0.0,0.0,0.0,0.0,0.0,0.0,0.0,0.0,0.0,0.0,0.0,0.0,0.0,0.0,0.0,0.0,0.0,0.0,0.0,0.0,0.0,0.0,0.0,0.0,0.0,0.0,0.0,0.0,0.0,0.0,0.0,0.0,0.0,0.0,0.0,0.0,0.0,0.0,0.0,0.0,0.0,0.0,0.0,0.0,0.0,0.0,0.0,0.0,0.0,0.0,0.0,0.0,0.0,0.0,0.0,0.0,0.0,0.0,0.0,0.0,0.0,0.0,0.0,0.0,0.0,0.0,0.0,0.0,0.0,0.0,0.0,0.0,0.0,0.0,0.0,0.0,0.0,0.0,0.0,0.0,0.0,0.0,0.0,0.0,0.0,0.0,0.0,0.0,-4.0869,-4.3164,-4.547,-4.7643,-4.9118,-4.9889,-4.9691,-4.9222,-4.8152,-4.6411,0.0,0.0,0.0,0.0,0.0,0.0,0.0,0.0,0.0,0.0,0.0,0.0,0.0,0.0,0.0,0.0,0.0,0.0,0.0,0.0,0.0,0.0,0.0,0.0,0.0,0.0,0.0,0.0,0.0,0.0,0.0,0.0,0.0,0.0,0.0,0.0,0.0,0.0,0.0,0.0,0.0,0.0,0.0,0.0,0.0,0.0,0.0,0.0,0.0,0.0,0.0,0.0,0.0,0.0,0.0,0.0,0.0,0.0,0.0,0.0,0.0,0.0,0.0,0.0,0.0,0.0,0.0,0.0,0.0,0.0,0.0,0.0,0.0,0.0,0.0,0.0,0.0,0.0,0.0,0.0,0.0,0.0,0.0,0.0,0.0,0.0,0.0,0.0,0.0,0.0,0.0,0.0,0.0,0.0,0.0,0.0,0.0,0.0,0.0,0.0,0.0,0.0,-4.0098,-4.2106,-4.4125,-4.6333,-4.7732,-4.8464,-4.8328,-4.7937,-4.673,-4.4611,0.0,0.0,0.0,0.0,0.0,0.0,0.0,0.0,0.0,0.0,0.0,0.0,0.0,0.0,0.0,0.0,0.0,0.0,0.0,0.0,0.0,0.0,0.0,0.0,0.0,0.0,0.0,0.0,0.0,0.0,0.0,0.0,0.0,0.0,0.0,0.0,0.0,0.0,0.0,0.0,0.0,0.0,0.0,0.0,0.0,0.0,0.0,0.0,0.0,0.0,0.0,0.0,0.0,0.0,0.0,0.0,0.0,0.0,0.0,0.0,0.0,0.0,0.0,0.0,0.0,0.0,0.0,0.0,0.0,0.0,0.0,0.0,0.0,0.0,0.0,0.0,0.0,0.0,0.0,0.0,0.0,0.0,0.0,0.0,0.0,0.0,0.0,0.0,0.0,0.0,0.0,0.0,0.0,0.0,0.0,0.0,0.0,0.0,0.0,0.0,0.0,0.0,-3.9781,-4.111,-4.2637,-4.4682,-4.6094,-4.6777,-4.6709,-4.569,-4.4464,-4.2953,0.0,0.0,0.0,0.0,0.0,0.0,0.0,0.0,0.0,0.0,0.0,0.0,0.0,0.0,0.0,0.0,0.0,0.0,0.0,0.0,0.0,0.0,0.0,0.0,0.0,0.0,0.0,0.0,0.0,0.0,0.0,0.0,0.0,0.0,0.0,0.0,0.0,0.0,0.0,0.0,0.0,0.0,0.0,0.0,0.0,0.0,0.0,0.0,0.0,0.0,0.0,0.0,0.0,0.0,0.0,0.0,0.0,0.0,0.0,0.0,-4.3489,-4.1785,0.0,0.0,0.0,0.0,0.0,0.0,0.0,0.0,0.0,0.0,0.0,0.0,0.0,0.0,0.0,0.0,0.0,0.0,0.0,0.0,0.0,0.0,0.0,0.0,0.0,0.0,0.0,0.0,0.0,0.0,0.0,0.0,0.0,0.0,0.0,0.0,0.0,0.0,0.0,0.0,-3.8435,-4.0315,-4.1992,-4.3239,-4.4859,-4.5388,-4.4248,-4.3325,-4.2156,-4.059,-3.9651,0.0,0.0,0.0,0.0,0.0,0.0,0.0,0.0,0.0,0.0,0.0,0.0,0.0,0.0,0.0,0.0,0.0,0.0,0.0,0.0,0.0,0.0,0.0,0.0,0.0,0.0,0.0,0.0,0.0,0.0,0.0,0.0,0.0,0.0,0.0,0.0,0.0,0.0,0.0,0.0,0.0,0.0,0.0,0.0,0.0,0.0,0.0,0.0,0.0,0.0,0.0,0.0,0.0,0.0,0.0,0.0,0.0,0.0,0.0,-4.5333,-4.409,0.0,0.0,0.0,0.0,0.0,0.0,0.0,0.0,0.0,0.0,0.0,0.0,0.0,0.0,0.0,0.0,0.0,0.0,0.0,0.0,0.0,0.0,0.0,0.0,0.0,0.0,0.0,0.0,0.0,0.0,0.0,0.0,0.0,0.0,0.0,0.0,0.0,0.0,0.0,0.0,-3.7369,-3.8811,-4.0098,-4.0926,-4.2132,-4.2548,-4.1818,-4.1323,-4.0372,-3.8867,-3.8481,0.0,0.0,0.0,0.0,0.0,0.0,0.0,0.0,0.0,0.0,0.0,0.0,0.0,0.0,0.0,0.0,0.0,0.0,0.0,0.0,0.0,0.0,0.0,0.0,0.0,0.0,0.0,0.0,0.0,0.0,0.0,0.0,0.0,0.0,0.0,0.0,0.0,0.0,0.0,0.0,0.0,0.0,0.0,0.0,0.0,0.0,0.0,0.0,0.0,0.0,0.0,0.0,0.0,-4.9243,-4.9595,-4.8605,-5.0198,-5.0506,-4.9629,-4.7931,-4.7209,-4.697,-4.3727,0.0,0.0,0.0,0.0,0.0,0.0,0.0,0.0,0.0,0.0,0.0,0.0,0.0,0.0,0.0,0.0,0.0,0.0,0.0,0.0,0.0,0.0,-3.7888,-3.7805,-3.8295,-3.8512,-3.7853,0.0,0.0,0.0,0.0,0.0,0.0,0.0,0.0,0.0,0.0,0.0,-3.6501,-3.7338,-3.8107,-3.862,-3.9313,-3.9747,-3.9624,-3.9344,-3.8686,-3.7494,-3.7491,-3.6992,0.0,0.0,0.0,0.0,0.0,0.0,0.0,0.0,0.0,0.0,0.0,0.0,0.0,0.0,0.0,0.0,0.0,0.0,0.0,0.0,0.0,0.0,0.0,0.0,0.0,0.0,0.0,0.0,0.0,0.0,0.0,0.0,-4.1917,-4.3576,0.0,0.0,0.0,0.0,0.0,0.0,0.0,0.0,0.0,0.0,0.0,0.0,0.0,-4.6133,-4.6818,-4.9245,-5.0561,-5.0687,-5.2343,-5.2705,-5.1919,-5.353,-5.3838,-5.3059,-5.2795,0.0,-4.6924,-4.537,0.0,0.0,0.0,0.0,0.0,0.0,0.0,0.0,0.0,0.0,0.0,0.0,0.0,0.0,0.0,0.0,0.0,0.0,0.0,0.0,0.0,0.0,-3.8497,-3.8342,-3.8487,-3.8767,-3.905,-3.7749,-3.641,-3.6261,-3.5807,-3.5318,0.0,0.0,0.0,0.0,0.0,0.0,-3.5759,-3.6982,-3.7636,-3.7327,-3.8255,-3.866,-3.8065,-3.7216,-3.6588,-3.638,-3.56,-3.5104,-3.4896,-3.5219,0.0,0.0,0.0,0.0,0.0,0.0,0.0,0.0,0.0,0.0,0.0,0.0,0.0,0.0,0.0,0.0,0.0,0.0,0.0,0.0,0.0,0.0,0.0,0.0,0.0,0.0,0.0,0.0,0.0,-4.0814,-4.3447,-4.3481,-4.4324,-4.4534,0.0,0.0,0.0,0.0,0.0,0.0,0.0,0.0,0.0,-4.4671,-4.5803,-4.7072,-4.8607,-5.0084,-5.1236,-5.1991,-5.3603,-5.3729,-5.2552,-5.4164,-5.4218,-5.3005,-5.2552,-5.0977,-4.8632,-4.7515,-4.5702,-4.3529,0.0,0.0,0.0,0.0,-4.0717,-4.0657,-4.1017,-4.1094,-4.1077,-4.0994,0.0,0.0,0.0,0.0,0.0,0.0,0.0,-3.6436,-3.6873,-3.7503,-3.8102,-3.8781,-3.9047,-3.9032,-3.8856,-3.7868,-3.7,-3.6918,-3.6626,-3.606,-3.5001,-3.511,0.0,0.0,0.0,-3.5067,-3.5394,-3.6008,-3.6398,-3.617,-3.6526,-3.6612,-3.6327,-3.5807,-3.5496,-3.5496,-3.4978,-3.4698,-3.4698,-3.4539,-3.4174,0.0,0.0,0.0,0.0,0.0,0.0,0.0,0.0,0.0,0.0,0.0,0.0,0.0,0.0,0.0,0.0,0.0,0.0,0.0,0.0,0.0,0.0,0.0,0.0,0.0,0.0,0.0,0.0,-4.2758,-4.4897,-4.4299,-4.6024,-4.6752,0.0,0.0,0.0,0.0,0.0,0.0,-4.4473,-4.4787,-4.5528,-4.6691,-4.7434,-4.8645,-5.0417,-5.103,-5.1916,-5.3132,-5.4327,-5.4164,-5.2842,-5.4255,-5.4019,-5.248,-5.2082,-5.1212,-5.0009,-4.8888,-4.707,-4.4975,-4.3897,-4.2837,-4.1887,-4.1794,-4.1683,-4.1693,-4.2112,-4.2237,-4.217,-4.1806,-4.1403,-4.0779,-3.8926,0.0,0.0,0.0,0.0,-3.6519,-3.7067,-3.718,-3.7464,-3.8631,-3.8916,-3.8766,-3.8242,-3.7629,-3.718,-3.718,-3.6963,-3.6395,-3.5097,-3.5266,0.0,-3.4771,-3.475,-3.4935,-3.5082,-3.5294,-3.5424,-3.5359,-3.5294,-3.5148,-3.5148,-3.4935,-3.4868,-3.4868,-3.4698,-3.4563,-3.4481,-3.4059,-3.3542,-3.2936,0.0,0.0,0.0,0.0,0.0,0.0,0.0,0.0,0.0,0.0,0.0,0.0,0.0,0.0,0.0,0.0,0.0,0.0,0.0,0.0,0.0,0.0,0.0,0.0,0.0,0.0,0.0,0.0,0.0,-4.8254,-4.9573,0.0,0.0,0.0,0.0,-4.7043,-4.7493,-4.7682,-4.7392,-4.8661,-4.9363,-4.9398,-5.071,-5.1833,-5.262,-5.3243,-5.3935,-5.478,-5.487,-5.4472,-5.3675,-5.4508,-5.4019,-5.2534,-5.3277,-5.2263,-4.9973,-4.8665,-4.6885,-4.4931,-4.4352,-4.325,-4.1904,-4.1904,-4.1666,-4.1425,-4.1458,-4.1475,-4.1574,-4.2253,-4.1988,-4.1147,-3.9772,-3.8829,0.0,0.0,-3.6368,-3.6411,-3.6541,-3.6537,-3.6701,-3.736,-3.7509,-3.7494,-3.7464,-3.6971,-3.6537,-3.6537,-3.5881,-3.5222,-3.4949,0.0,-3.4742,-3.4712,-3.4698,-3.475,-3.4868,-3.5082,-3.5148,-3.4935,-3.5082,-3.5148,-3.4935,-3.4817,-3.4698,-3.4698,-3.4549,-3.4264,-3.3839,-3.3839,-3.3465,-3.272,-3.2096,0.0,0.0,0.0,0.0,0.0,0.0,0.0,0.0,0.0,0.0,0.0,0.0,0.0,0.0,0.0,0.0,0.0,0.0,0.0,0.0,0.0,0.0,0.0,0.0,0.0,0.0,0.0,0.0,-4.7922,-5.0326,0.0,-5.0125,-4.926,-4.8934,-4.9301,-4.8714,-4.8727,-4.9606,-4.9626,-4.9838,-5.0276,-5.117,-5.1993,-5.2796,-5.2895,-5.3078,-5.3367,-5.3892,-5.344,-5.2172,-5.2987,-5.2752,-5.1683,-5.0941,-5.0019,-4.8956,-4.7704,-4.6607,-4.5649,-4.5155,-4.4328,-4.3407,-4.327,-4.3098,-4.2983,-4.2833,-4.2833,-4.2717,-4.2038,-4.1011,-3.9984,-3.9484,-3.8985,-3.8479,-3.7822,-3.731,-3.7016,-3.6877,-3.6763,-3.6693,-3.6995,-3.7075,-3.6956,-3.6541,-3.6274,-3.5993,-3.5577,-3.5311,-3.5082,-3.4817,-3.4765,-3.4631,-3.4549,-3.4631,-3.4698,-3.475,-3.4883,-3.5001,-3.4935,-3.4883,-3.4831,-3.4765,-3.4616,-3.4481,-3.4481,-3.4414,-3.4196,-3.3839,-3.3563,-3.3087,-3.2124,-3.1721,-3.1132,0.0,0.0,0.0,0.0,0.0,0.0,0.0,0.0,0.0,0.0,0.0,0.0,0.0,0.0,0.0,0.0,0.0,0.0,0.0,0.0,0.0,0.0,0.0,0.0,0.0,-4.6229,-4.8758,-4.8217,-5.1401,-5.286,-5.0914,-5.0516,-5.0551,-5.0847,-5.0004,-4.9912,-5.0999,-5.103,-5.1063,-5.1294,-5.1969,-5.2548,-5.3086,-5.2448,-5.2226,-5.2498,-5.248,-5.1919,-5.0904,-5.1448,-5.1249,-5.0434,-4.9365,-4.8601,-4.8012,-4.6873,-4.6213,-4.5852,-4.5418,-4.4788,-4.4155,-4.3956,-4.3839,-4.373,-4.3346,-4.3247,-4.3015,-4.1541,-4.0415,-3.9603,-3.923,-3.904,-3.886,-3.8197,-3.7796,-3.7436,-3.6764,-3.6466,-3.6355,-3.6251,-3.604,-3.5775,-3.5333,-3.5244,-3.5126,-3.4618,-3.4787,-3.4964,-3.4765,-3.4631,-3.4563,-3.4414,-3.4481,-3.4631,-3.4631,-3.475,-3.4817,-3.4735,-3.4683,-3.4698,-3.4631,-3.4481,-3.4414,-3.4414,-3.4414,-3.4196,-3.3839,-3.3479,-3.2933,-3.211,-3.1389,-3.0599,-2.9821,0.0,0.0,0.0,0.0,0.0,0.0,0.0,0.0,0.0,0.0,0.0,0.0,0.0,0.0,0.0,0.0,0.0,0.0,0.0,0.0,0.0,0.0,0.0,-4.4651,-4.7625,-4.9629,-4.9618,-5.2907,-5.42,-5.1718,-5.2209,-5.2415,-5.1705,-5.1459,-5.1398,-5.1633,-5.2882,-5.3277,-5.248,-5.3241,-5.3657,-5.3657,-5.2082,-5.1665,-5.2408,-5.0832,-5.0071,-5.0053,-5.0053,-4.9637,-4.8869,-4.8851,-4.8233,-4.7214,-4.6262,-4.5699,-4.5407,-4.5001,-4.4446,-4.3898,-4.3898,-4.3747,-4.3479,-4.2734,-4.2469,-4.222,-4.0829,-4.0365,-4.0144,-3.9144,-3.904,-3.8985,-3.777,-3.7653,-3.7578,-3.6117,-3.5752,-3.5559,-3.5037,-3.4419,-3.3962,-3.3947,-3.3962,-3.3912,-3.3753,-3.4244,-3.4698,-3.4698,-3.4549,-3.4414,-3.4414,-3.4414,0.0,-3.4414,-3.4578,-3.4645,-3.4414,-3.4578,-3.4645,-3.4414,-3.4414,-3.4414,-3.4414,-3.4385,-3.4182,-3.3839,-3.3465,-3.3101,-3.2704,-3.1225,-2.986,-2.8657,0.0,0.0,0.0,0.0,0.0,0.0,0.0,0.0,0.0,0.0,0.0,0.0,0.0,0.0,0.0,0.0,0.0,0.0,0.0,0.0,0.0,0.0,-4.4413,-4.6391,-4.865,-5.0506,-5.1665,-5.3217,-5.3945,-5.3281,-5.3842,-5.3965,-5.3177,-5.2513,-5.2198,-5.2257,-5.2043,-5.1846,-5.1629,-5.2408,-5.2824,-5.2824,-5.181,-5.1104,-5.0741,-5.0289,-4.9782,-4.9238,-4.9238,-4.9007,-4.8578,-4.768,-4.692,-4.6297,-4.5321,-4.4821,-4.4597,-4.4293,-4.4056,-4.3898,-4.3763,-4.3297,-4.2717,-4.1972,-4.1392,-4.0895,-4.0514,-3.9891,-3.9177,-3.887,-3.8567,-3.823,-3.8148,-3.786,-3.7492,-3.6845,-3.6275,-3.5616,-3.4639,-3.403,-3.3536,-3.3004,-3.3267,-3.3587,-3.3587,-3.4045,-3.4481,-3.4481,-3.4414,-3.4414,-3.4414,-3.4414,-3.4414,-3.4414,-3.4889,-3.499,-3.4472,-3.4889,-3.499,-3.4457,-3.4414,-3.4414,-3.4414,-3.3978,-3.3787,-3.3825,-3.326,-3.2889,-3.269,-3.1635,-3.0868,0.0,0.0,0.0,0.0,0.0,0.0,0.0,0.0,0.0,0.0,0.0,0.0,0.0,0.0,0.0,0.0,0.0,0.0,0.0,0.0,0.0,0.0,-4.3648,-4.5861,-4.8066,-5.0001,-5.1556,-5.2527,-5.3279,-5.3624,-5.3362,-5.3668,-5.3693,-5.3222,-5.2752,-5.2498,-5.2498,-5.2063,-5.1792,-5.1792,-5.2263,-5.2335,-5.1991,-5.1194,-5.0379,-4.9582,-4.8912,-4.8514,-4.8405,-4.8061,-4.7933,-4.7985,-4.7259,-4.6584,-4.592,-4.5197,-4.4487,-4.3799,0.0,0.0,0.0,0.0,-4.2435,-4.1955,-4.1226,-4.0713,-4.0332,-3.9891,-3.9331,-3.8684,-3.817,-3.785,-3.756,-3.7231,-3.6883,-3.6463,-3.6166,-3.5431,-3.4628,-3.394,-3.3216,-3.2556,-3.2179,-3.2396,-3.2658,-3.2658,-3.3398,0.0,-3.4008,-3.424,-3.4414,-3.4414,-3.4414,-3.4501,-3.4777,-3.514,-3.5328,-3.5212,-3.5532,-3.5503,-3.4864,-3.482,0.0,0.0,0.0,-3.3368,-3.3039,-3.2697,0.0,0.0,0.0,-3.1056,-3.0895,-3.0537,0.0,0.0,-2.8638,-2.851,0.0,0.0,0.0,0.0,0.0,0.0,0.0,0.0,0.0,0.0,0.0,0.0,0.0,0.0,0.0,0.0,-4.5346,-4.7269,-4.9385,-5.1236,-5.2415,-5.2371,-5.3078,-5.3241,-5.2444,-5.2516,-5.2589,-5.2452,-5.2434,-5.2397,-5.226,-5.226,0.0,0.0,0.0,-5.2054,-5.1258,-5.0443,-4.9637,-4.8768,-4.7228,-4.6884,-4.7554,-4.6789,-4.6753,-4.7258,-4.7169,-4.6642,-4.5697,-4.5234,-4.4221,-4.3004,-4.329,-4.2965,-4.2303,-4.1574,-4.1236,-4.1137,-4.0426,0.0,0.0,-3.9073,-3.8701,-3.8394,-3.7223,-3.6966,-3.6867,-3.5721,-3.5322,-3.5122,-3.4747,-3.4045,-3.3436,-3.3238,-3.2467,-3.1714,-3.1642,-3.1685,-3.1743,-3.1743,-3.273,-3.3572,-3.3572,-3.4051,-3.4414,-3.4414,-3.4414,-3.4646,-3.5285,-3.543,-3.5691,-3.6243,-3.6373,0.0,-3.543,-3.5427,-3.5082,-3.4443,-3.3891,-3.3042,-3.1968,-3.1866,-3.158,-3.1005,-3.0937,-3.0856,-3.0608,-3.0557,-3.0189,-2.9599,-2.8885,-2.8554,0.0,0.0,0.0,0.0,0.0,0.0,0.0,0.0,0.0,0.0,0.0,0.0,0.0,0.0,0.0,-4.3605,-4.6,-4.7943,-4.9174,-5.0789,-5.1754,-5.1547,-5.2226,-5.2426,-5.1611,-5.2715,-5.3092,-5.2234,-5.2198,-5.1814,-5.0909,-5.0891,-5.0891,-5.0891,-5.1518,-5.1562,-5.0991,-5.0199,-4.9171,-4.7935,-4.6975,0.0,-4.6739,-4.6332,-4.6478,-4.7025,-4.6477,-4.5486,-4.4198,-4.3807,-4.2891,-4.1754,-4.1789,-4.1756,-4.1541,-4.0845,-4.0397,-4.0114,-3.9374,-3.8979,-3.8739,-3.8537,-3.7947,-3.7223,-3.6982,-3.6366,0.0,-3.5482,-3.5394,-3.5266,-3.482,-3.4635,-3.4361,-3.3481,-3.3172,-3.2948,-3.244,-3.273,-3.3093,-3.3093,-3.3703,-3.424,-3.424,-3.4327,-3.4414,-3.4414,-3.4414,-3.4646,-3.5285,-3.5807,-3.617,-3.6301,-3.6794,-3.6635,-3.5529,-3.5427,-3.5082,-3.4443,-3.4013,-3.3221,-3.2011,-3.1907,-3.1764,-3.1626,-3.1377,-3.1425,-3.1829,-3.1329,-3.0987,-3.0839,-2.9743,-2.8729,0.0,0.0,0.0,0.0,0.0,0.0,0.0,0.0,0.0,0.0,0.0,-3.8618,0.0,0.0,-4.2749,-4.4703,-4.627,-4.7505,-4.843,-4.9376,-5.0181,-5.0825,-5.1239,-5.1329,-5.0915,-5.1616,-5.2036,-5.1889,-5.1754,-5.1567,-5.1455,-5.1077,-5.0861,-5.0843,-5.1113,-5.0773,-4.9711,-4.901,-4.815,-4.7083,-4.5766,-4.5346,-4.5725,-4.5455,-4.5668,-4.6191,-4.5847,-4.4968,-4.3714,-4.2375,-4.145,-4.0862,-4.0481,-4.0453,-4.0555,-3.9847,-3.9171,-3.8535,-3.816,-3.7763,-3.7323,-3.7141,-3.6789,-3.6254,-3.5737,-3.5221,-3.4778,-3.4446,-3.4439,-3.4523,-3.4532,-3.4281,-3.3982,-3.3652,-3.3037,-3.2498,-3.2513,-3.2498,-3.26,-3.2919,-3.3499,-3.3935,-3.3935,-3.4196,-3.4414,-3.4414,-3.4414,-3.4646,-3.5285,-3.5923,-3.6446,-3.6765,-3.7114,-3.691,-3.5923,-3.5256,-3.4472,-3.3529,-3.3111,-3.2339,-3.1097,-3.1005,-3.0988,-3.1163,-3.1469,-3.1723,-3.202,-3.1992,-3.1663,-3.122,-3.0545,-2.9642,0.0,0.0,0.0,0.0,0.0,0.0,0.0,0.0,-3.6684,-3.7911,-3.8741,-3.9881,-4.1985,-4.3058,-4.4174,-4.5728,-4.6393,-4.6936,-4.7572,-4.7997,-4.8608,-4.9692,-5.02,-5.0495,-5.0477,-5.0637,-5.0994,-5.1736,-5.1502,-5.1573,-5.2136,-5.1483,-5.1049,-5.0896,-5.053,-4.9701,-4.829,-4.7692,-4.6951,-4.6033,-4.4529,-4.4137,-4.4749,-4.4596,-4.4876,-4.5404,-4.5059,-4.4307,-4.3183,-4.1046,-4.0166,-4.01,-3.945,-3.9347,-3.9551,-3.9018,-3.8127,-3.7235,-3.7235,-3.6728,-3.6093,-3.579,-3.5639,-3.5345,-3.4571,-3.4209,-3.402,-3.3609,-3.3568,-3.3743,-3.4131,-3.3857,-3.354,-3.3757,-3.2904,-3.2222,-3.2774,-3.2454,-3.2237,-3.2788,-3.3311,-3.3645,-3.3645,-3.408,-3.4414,-3.4414,-3.4414,-3.4646,-3.5285,-3.5807,-3.6388,-3.7041,-3.7114,-3.6838,-3.6185,-3.4998,-3.3787,-3.2645,-3.2233,-3.1403,-3.014,-3.0211,-3.0277,-3.0322,-3.1349,-3.1783,-3.1708,-3.2286,-3.22,-3.1381,-3.1233,-3.0493,-2.2829,-2.555,-2.8956,-3.1936,-3.3588,-3.5166,0.0,0.0,-3.7993,-3.9328,-3.9603,-4.0277,-4.253,-4.3212,-4.3947,-4.5577,-4.6549,-4.7173,-4.7261,-4.7856,-4.805,-4.7439,-4.9227,-5.0477,-5.0495,-5.1137,-5.1683,-5.1964,-5.194,-5.1741,-5.1258,-5.0984,-5.0502,-4.9801,-4.8905,-4.8089,-4.7437,-4.669,-4.5665,-4.4367,-4.4007,-4.385,-4.3958,-4.4209,-4.4713,-4.5322,-4.3759,-4.2636,-4.1699,-4.0077,-3.9404,-3.9388,-3.9002,-3.876,-3.8618,-3.8727,-3.8017,-3.6934,-3.6934,-3.6302,-3.549,-3.545,-3.4991,-3.4453,-3.4304,-3.3878,-3.3514,-3.4036,-3.3912,-3.3666,-3.3903,-3.4014,-3.3957,-3.3601,-3.3798,-3.4109,-3.4182,-3.4138,-3.4109,-3.4182,-3.4254,-3.4312,-3.4312,-3.437,-3.4414,-3.4414,-3.4414,-3.4646,-3.5285,-3.543,-3.5706,-3.6359,-3.6417,-3.6156,-3.5517,-3.4531,-3.3607,-3.2987,-3.2258,-3.1279,-3.003,-3.053,-3.0414,-2.9615,-3.1075,-3.1639,-3.1371,-3.1956,-3.2169,-3.2096,-3.1468,-3.0286,-2.6947,-2.8557,0.0,0.0,-3.5284,-3.6602,-3.869,-3.8952,-3.8891,-3.944,-4.0246,-4.1126,-4.2121,-4.3216,-4.4317,0.0,-4.6201,-4.6512,-4.6512,-4.6774,-4.6985,-4.7021,-4.789,-4.8741,-4.9483,-5.0806,-5.1786,-5.2108,-5.1112,-5.063,-5.0926,-4.9337,-4.8303,-4.8042,-4.7327,-4.6613,-4.5893,-4.5287,-4.4606,-4.3917,-4.3248,-4.2851,-4.2721,-4.3678,-4.4126,-4.4135,-4.3183,-4.1989,-4.051,-3.9654,-3.9272,-3.9272,-3.9164,-3.8931,-3.8583,-3.8343,-3.7568,-3.6594,-3.6594,-3.5807,-3.4747,-3.4747,-3.4288,-3.3719,-3.3719,-3.353,-3.3382,-3.3787,-3.4032,-3.4253,-3.4455,-3.4628,-3.4599,-3.405,-3.3565,-3.3412,-3.379,-3.3572,-3.3529,-3.4269,-3.4414,-3.4346,-3.4059,-3.4059,-3.3991,-3.377,-3.4128,-3.4501,-3.4777,-3.514,-3.5473,-3.5735,-3.5764,-3.5503,-3.4864,-3.3941,-3.3107,-3.2477,-3.1405,-3.0342,-2.9486,-2.9914,-2.9864,-2.9292,-3.0643,-3.109,-3.0568,-3.1172,-3.1334,-3.1151,-3.1191,-3.0699,-3.0225,0.0,0.0,-3.4958,-3.6375,-3.7414,-3.8802,-3.8908,-3.8795,-3.8973,-3.9863,-4.0798,-4.151,-4.2859,-4.4268,-4.5562,-4.5955,-4.6105,-4.5972,-4.6055,-4.6315,-4.6741,-4.6985,-4.7606,-4.8758,-5.0285,-5.137,-5.1692,-5.0477,-5.0018,-5.0617,-4.8212,-4.6978,-4.7294,-4.6182,-4.5389,-4.5011,-4.418,-4.3692,-4.3534,-4.2718,-4.2205,-4.2055,-4.311,-4.3506,-4.3276,-4.2721,-4.1512,-3.9849,-3.9484,-3.9272,-3.9272,-3.9218,-3.904,-3.875,-3.8116,-3.7339,-3.6537,-3.6421,-3.5616,-3.4589,-3.4589,-3.4273,-3.3878,-3.3878,-3.3878,-3.3966,-3.4254,-3.4496,-3.477,-3.5079,-3.4921,-3.4646,-3.4351,-3.3484,-3.2948,-3.3587,-3.3369,-3.3311,-3.424,-3.4414,-3.4346,-3.3991,-3.3839,-3.377,-3.3632,-3.3977,-3.4196,-3.4196,-3.4752,-3.5096,-3.5096,-3.5096,-3.4907,-3.4307,-3.3493,-3.2691,-3.1763,-3.0679,-2.9756,-2.8999,-2.9289,-2.9289,-2.8972,-3.0129,-3.0437,-2.9866,-3.0484,-3.0665,-3.0418,-3.1015,-3.0847,0.0,0.0,-3.3134,-3.5642,-3.6644,-3.7257,-3.8145,-3.7742,-3.7351,-3.7824,-3.8037,-3.8752,-4.0831,-4.2039,-4.3357,-4.5286,-4.6084,-4.6346,-4.5871,-4.6217,-4.6442,-4.627,-4.697,-4.785,0.0,-4.9686,-5.0325,-5.0556,-5.0574,-5.0485,-5.0298,-4.8255,-4.7481,-4.8328,-4.5638,-4.453,-4.5291,-4.3715,-4.2918,-4.2918,-4.249,-4.2287,-4.2305,-4.2688,-4.3016,-4.3242,-4.2121,-4.0985,-3.9849,-3.9484,-3.9272,-3.9272,-3.8914,-3.8805,-3.875,-3.8116,-3.7454,-3.6821,-3.6537,-3.5963,-3.5363,-3.5363,-3.5347,-3.5331,-3.5331,-3.5331,-3.5473,-3.6111,-3.5623,-3.5047,-3.5715,-3.4743,-3.3711,-3.424,-3.3906,-3.3616,-3.424,-3.437,-3.437,-3.4399,-3.4414,-3.4414,-3.4414,-3.4059,-3.3908,-3.4346,-3.4059,-3.3839,-3.3839,-3.4157,-3.4443,-3.4443,-3.4443,-3.4293,-3.3839,-3.3465,-3.2583,-3.1045,-3.0569,-2.9835,-2.8641,-2.8908,-2.8972,-2.8587,-2.9563,-2.9866,-2.9549,-3.0106,-3.0405,-3.0418,-3.1015,-3.0618,0.0,0.0,-3.3753,-3.6431,-3.6836,-3.6771,-3.7349,-3.7286,-3.7003,-3.6664,-3.7048,-3.7716,-3.8766,-4.0577,-4.2398,-4.3902,-4.5484,-4.6472,-4.6394,-4.6781,-4.699,-4.6746,-4.7087,0.0,0.0,0.0,0.0,-5.0867,-5.0083,-4.9579,-4.9579,-4.7531,-4.6524,-4.6854,-4.5585,-4.4765,-4.4512,-4.3969,-4.3348,-4.2709,-4.2269,-4.226,-4.2635,-4.272,-4.2579,-4.2139,-4.1781,-4.0798,-3.9484,-3.9379,-3.9272,-3.9272,-3.9164,-3.9148,-3.9094,-3.8623,-3.8365,-3.8059,-3.7351,-3.6774,-3.6358,-3.6131,-3.5758,-3.5394,-3.5394,-3.5394,-3.548,-3.581,-3.543,-3.4953,-3.5364,-3.4758,-3.4051,-3.3833,-3.363,-3.3529,-3.3746,-3.379,-3.3906,-3.4327,-3.4414,-3.4346,-3.4059,-3.3908,-3.3701,-3.3339,-3.377,-3.4196,-3.4196,-3.4346,-3.4414,-3.4414,-3.4128,-3.3977,-3.3839,-3.289,-3.2069,-3.1516,-3.0815,-3.0228,-2.9821,-2.9717,-2.9563,-2.917,-2.9306,-2.921,-2.8885,-2.9102,-2.8999,-2.8746,-3.0092,-3.0033,0.0,-3.3738,-3.39,-3.6,-3.6055,-3.5666,-3.6059,-3.6368,-3.632,-3.5605,-3.6259,-3.7134,-3.758,-3.9614,-4.157,-4.2506,-4.4615,-4.6105,-4.6061,-4.6452,-4.6902,-4.7295,-4.7157,-4.7329,0.0,0.0,0.0,-5.025,-4.9262,-4.8766,-4.9064,-4.6847,-4.5825,-4.6377,-4.5401,-4.4621,-4.4095,-4.4095,-4.3541,-4.249,-4.2187,-4.2316,-4.2798,-4.2517,-4.2084,-4.1561,-4.1288,-4.0442,-3.9272,-3.9272,-3.9272,-3.9272,-3.9272,-3.9272,-3.9272,-3.8914,-3.886,-3.886,-3.796,-3.7441,-3.7189,-3.6917,-3.65,-3.6137,-3.6137,-3.6137,-3.6174,-3.6307,-3.5799,-3.5319,-3.5439,-3.4743,-3.4022,-3.3848,-3.363,-3.3529,-3.3761,-3.3804,-3.3935,-3.4327,-3.4414,-3.4346,-3.4059,-3.3991,-3.377,-3.3058,-3.3632,-3.4059,-3.3839,-3.3908,-3.3991,-3.3991,-3.377,-3.3563,-3.3409,-3.2626,-3.1971,-3.1625,-3.106,-3.0527,-3.0093,-2.9886,-2.9638,-2.917,-2.8985,-2.8844,-2.8587,-2.8587,-2.8392,-2.8145,-2.947,-2.9422,-3.3728,-3.3723,-3.3678,-3.4511,-3.4428,-3.4205,-3.443,-3.4965,-3.5252,-3.4707,-3.5687,-3.6837,0.0,0.0,-4.0955,-4.1401,-4.3786,-4.5506,-4.5134,-4.5488,-4.6302,0.0,0.0,0.0,0.0,0.0,0.0,-4.8822,-4.8218,-4.8159,-4.8785,-4.6389,-4.557,-4.6872,-4.5178,-4.4168,-4.4095,-4.4059,-4.3466,-4.2328,-4.2287,-4.247,-4.2728,-4.1955,-4.158,-4.1476,-4.0724,-3.9986,-3.9272,-3.9272,-3.9272,-3.9272,-3.9272,-3.9272,-3.9272,-3.8914,-3.904,-3.9164,-3.8286,-3.7943,-3.7886,-3.7642,-3.7539,-3.7539,-3.7539,-3.7539,-3.748,-3.748,-3.6754,-3.5913,-3.5913,-3.4708,-3.3674,-3.4269,-3.3949,-3.3674,-3.4283,-3.4414,-3.4414,-3.4414,-3.4414,-3.4414,-3.4414,-3.4414,-3.4128,-3.3409,-3.3563,-3.3479,-3.2846,-3.3058,-3.3269,-3.3269,-3.3269,-3.3129,-3.2704,-3.2704,-3.2256,-3.1368,-3.1341,-3.0812,-2.9618,-2.9536,-2.9252,-2.8655,-2.8614,-2.8587,-2.8587,-2.8587,-2.8587,-2.8536,-2.9238,-2.889,-3.4067,-3.4375,-3.477,-3.5007,-3.4728,-3.4412,-3.435,-3.4325,-3.4265,-3.4155,-3.4627,-3.5407,0.0,0.0,0.0,-4.2335,-4.5287,0.0,-4.7514,-4.7813,0.0,-4.8513,0.0,-4.8581,-4.8855,-4.8586,0.0,-4.9201,-4.9038,-4.8903,-4.8874,-4.8068,-4.7408,-4.6945,-4.623,-4.5309,-4.4095,-4.3498,-4.2985,-4.253,-4.2369,-4.2228,-4.2105,-4.178,-4.1267,-4.069,-4.0485,-3.9986,-3.9272,-3.9272,-3.9272,-3.9272,-3.9272,-3.9272,-3.9272,-3.9202,-3.9218,-3.9218,-3.875,-3.8567,-3.8528,-3.8278,-3.7976,-3.7786,-3.7786,-3.7685,-3.748,-3.748,-3.6754,-3.5913,-3.5913,-3.5035,-3.4211,-3.437,-3.4283,-3.4211,-3.4385,-3.4414,-3.4414,-3.4414,-3.4414,-3.4414,-3.4414,-3.4128,-3.377,-3.3339,-3.3129,-3.2988,-3.3129,-3.3269,-3.3269,-3.3269,-3.3058,-3.2846,-3.2704,-3.2431,-3.2259,-3.1965,-3.1951,-3.1612,-3.0866,-3.0405,-2.9889,-2.9265,-2.8817,-2.8587,-2.8587,-2.8587,-2.8392,-2.8013,-2.947,-2.9306,-3.4592,-3.4836,-3.513,-3.4885,-3.4594,-3.4242,-3.3909,-3.4066,-3.4254,-3.4248,-3.4659,0.0,0.0,0.0,0.0,0.0,0.0,0.0,-4.7531,-4.7794,-4.8193,0.0,-4.8747,0.0,-4.9042,-4.889,-4.8969,-4.9488,-4.9168,-4.879,-4.8348,-4.7995,-4.718,-4.5787,-4.5654,-4.5282,-4.4621,-4.3462,-4.2967,-4.3131,-4.2651,-4.2328,-4.2061,-4.1849,-4.1328,-4.0546,-4.0449,-3.9986,-3.9272,-3.9272,-3.9272,-3.9272,-3.9272,-3.9272,-3.9272,-3.9272,-3.9272,-3.9272,-3.9094,-3.904,-3.8931,-3.856,-3.8262,-3.8075,-3.7943,-3.777,-3.7626,-3.7285,-3.6569,-3.5849,-3.5672,-3.4971,-3.4414,-3.4414,-3.4414,-3.4414,-3.4414,-3.4414,-3.4414,-3.4414,-3.4414,-3.4346,-3.4196,-3.3977,-3.3632,-3.3129,-3.2846,-3.2704,-3.2789,-3.2803,-3.2803,-3.2803,-3.266,-3.2503,-3.2503,-3.2314,-3.2182,-3.2182,-3.2182,-3.1911,-3.1314,-3.073,-3.012,-2.9482,-2.8899,-2.8587,-2.8587,-2.8587,-2.8592,-2.8585,-2.9267,-2.907,-3.5082,-3.5066,-3.5136,-3.4699,-3.4395,-3.4108,-3.3561,-3.4117,-3.4764,-3.4775,0.0,-3.6125,-3.7152,-3.8535,-3.985,-4.0782,0.0,-4.5542,-4.6732,-4.6906,-4.7498,-4.9057,-4.8533,-4.8378,-4.9246,-4.9375,-4.9466,-4.9561,-4.8964,-4.8324,-4.769,-4.7099,-4.6025,-4.4361,-4.4381,-4.4636,-4.4983,-4.3806,-4.3385,-4.3674,-4.3041,-4.2638,-4.2328,-4.2061,-4.1552,-4.0802,-4.0546,-4.002,-3.9272,-3.9272,-3.9272,-3.9272,-3.9272,-3.9272,-3.9272,-3.9272,-3.9272,-3.9272,-3.9272,-3.9272,-3.9218,-3.8672,-3.8464,-3.8335,-3.8075,-3.7886,-3.7711,-3.6892,-3.6305,-3.5785,-3.5285,-3.4787,-3.4414,-3.4414,-3.4414,-3.4414,-3.4414,-3.4414,-3.4414,-3.4414,-3.4414,-3.4278,-3.3908,-3.3839,-3.3563,-3.2917,-3.2704,-3.2574,-3.2241,-3.2182,-3.2182,-3.2182,-3.2182,-3.2182,-3.2182,-3.2182,-3.2255,-3.2241,-3.2173,-3.1789,-3.1262,-3.0595,-2.9998,-2.9374,-2.8858,-2.8587,-2.8587,-2.8668,-2.898,-2.9335,-2.9023,-2.8729,-3.5238,-3.5258,-3.5409,-3.5609,-3.5334,-3.4927,-3.4728,-3.4816,0.0,0.0,0.0,-3.6716,-3.8236,-3.9507,0.0,-4.2921,0.0,0.0,0.0,0.0,-4.8388,0.0,0.0,0.0,0.0,-4.9134,0.0,-4.8948,-4.8977,-4.8688,-4.7966,-4.7161,-4.6025,-4.451,-4.4269,-4.388,-4.3317,-4.4349,-4.4277,-4.3061,-4.3426,-4.3216,-4.253,-4.2328,-4.1727,-4.0802,-4.0754,-4.0187,-3.9272,-3.9272,-3.9272,-3.9272,-3.9272,-3.9272,-3.9272,-3.9272,-3.9272,-3.9272,-3.9272,-3.9272,-3.9272,-3.9164,-3.8782,-3.8391,-3.8335,-3.7992,-3.7464,-3.6846,-3.6305,-3.5785,-3.5285,-3.4787,-3.4414,-3.4414,-3.4414,-3.4414,-3.4414,-3.4414,-3.4414,-3.4414,-3.4414,-3.4414,-3.4346,-3.3991,-3.3632,-3.3269,-3.2917,-3.2574,-3.2241,-3.2182,-3.2182,-3.2182,-3.2182,-3.2182,-3.2182,-3.2182,-3.2314,-3.2574,-3.1921,-3.1305,-3.0952,-3.0159,-2.9347,-2.8763,-2.8641,-2.8587,-2.8587,-2.9089,-2.9174,-2.8809,-2.9649,-2.9486,-3.6592,-3.6504,-3.645,-3.6432,-3.5956,-3.5346,-3.4858,0.0,0.0,0.0,0.0,-3.7422,-3.925,0.0,0.0,0.0,0.0,0.0,0.0,0.0,0.0,0.0,0.0,0.0,0.0,-4.9155,-4.8814,-4.8814,-4.8505,-4.7903,-4.6977,-4.6115,-4.5352,-4.4724,-4.4307,-4.4313,-4.4765,-4.4711,-4.4494,-4.415,-4.3996,-4.3523,-4.2747,-4.257,-4.2026,-4.1248,-4.0943,-4.0336,-3.959,-3.9379,-3.9272,-3.9272,-3.9272,-3.9272,-3.9272,-3.9272,-3.9272,-3.9272,-3.9272,-3.9272,-3.9272,-3.9272,-3.9002,-3.86,-3.8448,-3.8107,-3.7492,-3.6554,-3.6117,-3.5721,-3.4971,-3.4601,-3.4414,-3.4414,-3.4414,-3.4414,-3.4414,-3.4414,-3.4414,-3.4414,-3.4414,-3.4346,-3.4128,-3.3908,-3.3632,-3.3058,-3.2846,-3.2574,-3.2241,-3.2182,-3.2182,-3.2182,-3.2372,-3.2372,-3.2241,-3.2372,-3.2431,-3.2444,-3.1755,-3.1221,-3.113,-3.0092,-2.9333,-2.9048,-2.9048,-2.9048,-2.9048,-2.9363,-2.9531,-2.95,-2.9473,-2.9214,-3.8168,-3.7971,-3.776,-3.7606,-3.6804,-3.5861,-3.523,-3.5148,0.0,0.0,-3.7445,-3.839,-4.028,0.0,0.0,0.0,0.0,0.0,0.0,0.0,0.0,0.0,0.0,0.0,0.0,-4.9277,0.0,-4.859,-4.7767,-4.6809,-4.57,-4.4915,-4.452,-4.462,-4.4272,-4.4621,-4.5725,-4.482,-4.4494,-4.4784,-4.4313,-4.3679,-4.2882,-4.2747,-4.2315,-4.1648,-4.1202,-4.058,-3.9901,-3.9537,-3.9379,-3.9272,-3.9272,-3.9272,-3.9272,-3.9272,-3.9272,-3.9272,-3.9272,-3.9272,-3.9272,-3.9272,-3.904,-3.8639,-3.8448,-3.8148,-3.7535,-3.629,-3.5913,-3.5657,-3.4668,-3.4414,-3.4414,-3.4414,-3.4414,-3.4414,-3.4414,-3.4414,-3.4414,-3.4414,-3.4414,-3.4278,-3.3991,-3.3908,-3.3701,-3.3058,-3.2917,-3.2775,-3.2444,-3.2386,-3.2314,-3.2458,-3.2503,-3.2503,-3.23,-3.2503,-3.2574,-3.2444,-3.1684,-3.1357,-3.1428,-3.0188,-2.9482,-2.9482,-2.9482,-2.9416,-2.9335,-2.9568,-2.9797,-2.9965,-2.9101,-2.8867,-3.9334,-3.9131,-3.9229,-3.953,-3.8397,-3.71,-3.6881,0.0,0.0,-3.806,-3.89,-3.9971,-4.1492,-4.1572,0.0,0.0,0.0,0.0,0.0,0.0,0.0,0.0,0.0,0.0,0.0,-4.9463,-4.8732,-4.7949,-4.6863,-4.5811,-4.4863,-4.4172,-4.3808,-4.3789,-4.3999,-4.3806,-4.3226,-4.453,-4.4476,-4.3118,-4.3788,-4.3679,-4.2882,-4.2882,-4.2418,-4.1709,-4.1666,-4.0972,-3.9901,-3.9849,-3.9642,-3.9272,-3.9272,-3.9272,-3.9272,-3.9272,-3.9272,-3.9272,-3.9272,-3.9272,-3.9272,-3.9272,-3.8892,-3.8448,-3.8408,-3.7992,-3.7329,-3.6243,-3.5913,-3.5657,-3.4668,-3.4414,-3.4414,-3.4414,-3.4414,-3.4414,-3.4414,-3.4414,-3.4414,-3.4414,-3.4414,-3.4414,-3.4346,-3.4346,-3.4196,-3.377,-3.3701,-3.3563,-3.3199,-3.2846,-3.2775,-3.3129,-3.266,-3.2372,-3.2632,-3.2372,-3.2516,-3.3129,-3.2024,-3.1428,-3.1736,-3.031,-2.9482,-2.9482,-2.9482,-2.9201,-2.8715,-2.9781,-2.9753,-2.8699,-2.912,-2.9069,-4.0274,-4.0309,-4.0471,-4.0003,-3.8181,-3.6747,-3.7682,0.0,0.0,-3.8751,-3.9683,-4.0569,-4.2047,-4.2576,-4.31,0.0,0.0,0.0,0.0,0.0,0.0,0.0,0.0,0.0,0.0,0.0,-4.814,-4.7709,-4.7036,-4.643,-4.6008,-4.5881,-4.5565,-4.4929,-4.4871,-4.4675,-4.4349,-4.4494,-4.4258,-4.3625,-4.3951,-4.3602,-4.2709,-4.2709,-4.2374,-4.1813,-4.1596,-4.1036,-4.0204,-3.9986,-3.9642,-3.9272,-3.9272,-3.9272,-3.9272,-3.9272,-3.9272,-3.9272,-3.9272,-3.9272,-3.9272,-3.9272,-3.8892,-3.8391,-3.8391,-3.7992,-3.7285,-3.618,-3.5913,-3.5657,-3.4668,-3.4414,-3.4414,-3.4414,-3.4414,-3.4414,-3.4414,-3.4414,-3.4414,-3.4414,-3.4414,-3.4414,-3.4414,-3.4414,-3.4264,-3.3839,-3.377,-3.3701,-3.3339,-3.3129,-3.3129,-3.3269,-3.2667,-3.2235,-3.2151,-3.2235,-3.2179,-3.2109,-3.121,-3.0827,-3.0952,-2.9644,-2.8971,-2.8986,-2.9278,-2.9359,-2.9106,-2.9538,-2.9555,-2.9031,-2.8942,-2.8736,-4.1214,-4.1342,-4.1605,-4.0912,-3.8866,-3.7344,0.0,0.0,0.0,-3.9437,-4.0333,-4.1131,-4.2569,-4.3266,-4.3791,0.0,0.0,0.0,0.0,0.0,0.0,0.0,0.0,-4.808,-4.9829,-4.8498,-4.7669,-4.8015,-4.7081,-4.6724,-4.7239,-4.7182,-4.6618,-4.5369,-4.5085,-4.482,-4.4584,-4.4023,-4.3733,-4.3733,-4.3733,-4.3328,-4.2609,-4.2609,-4.2351,-4.1874,-4.1569,-4.1036,-4.0351,-4.002,-3.9642,-3.9272,-3.9272,-3.9272,-3.9272,-3.9272,-3.9272,-3.9272,-3.9272,-3.9272,-3.9272,-3.9202,-3.8838,-3.8391,-3.8262,-3.7876,-3.7285,-3.618,-3.5672,-3.5285,-3.4601,-3.4414,-3.4414,-3.4414,-3.4414,-3.4414,-3.4414,-3.4414,-3.4414,-3.4414,-3.4414,-3.4414,-3.4414,-3.4414,-3.4278,-3.3991,-3.3908,-3.3701,-3.3479,-3.3269,-3.3199,-3.3269,-3.2597,-3.2235,-3.2402,-3.2416,-3.2291,-3.1885,-3.1305,-3.0934,-3.0934,-2.9944,-2.9376,-2.9369,-2.9654,-2.9634,-2.941,-2.9376,-2.9341,-2.9118,-2.8736,-2.851,-4.2229,-4.2285,-4.2573,-4.2655,-4.1002,-3.9493,0.0,0.0,0.0,-4.0114,-4.0998,-4.1853,-4.3051,-4.3391,-4.3631,-4.403,0.0,0.0,0.0,0.0,0.0,0.0,0.0,-4.7529,-4.9164,-4.7867,-4.7496,-4.8968,-4.6725,-4.6168,-4.8179,-4.7423,-4.6175,-4.4547,-4.4249,-4.3715,-4.2918,-4.29,-4.29,-4.29,-4.29,-4.2786,-4.2609,-4.2609,-4.2351,-4.1874,-4.1569,-4.1036,-4.0351,-4.002,-3.9642,-3.9272,-3.9272,-3.9272,-3.9272,-3.9272,-3.9272,-3.9272,-3.9272,-3.9272,-3.9272,-3.8914,-3.86,-3.8335,-3.8017,-3.7743,-3.7285,-3.618,-3.5169,-3.4414,-3.4414,-3.4414,-3.4414,-3.4414,-3.4414,-3.4414,-3.4414,-3.4414,-3.4414,-3.4414,-3.4414,-3.4414,-3.4414,-3.4414,-3.4414,-3.4414,-3.4059,-3.377,-3.377,-3.3129,-3.2846,-3.3269,-3.2403,-3.2361,-3.3644,-3.3115,-3.2832,-3.3255,-3.2574,-3.2155,-3.2155,-3.1585,-3.1273,-3.1273,-3.069,-3.0025,-2.941,-2.9376,-2.9118,-2.851,-2.851,-2.851,-4.23,-4.2892,-4.3666,-4.2876,-4.0958,-3.9561,-4.0726,0.0,0.0,-4.061,-4.1153,-4.1674,-4.2865,-4.3142,-4.3301,-4.3749,0.0,0.0,0.0,0.0,0.0,0.0,0.0,-4.8514,0.0,-4.8514,-4.8502,-4.8421,-4.7388,-4.7268,-4.8384,-4.7364,-4.6254,-4.5103,-4.495,-4.4258,-4.29,-4.2882,-4.2882,-4.2882,-4.2882,-4.2786,-4.2609,-4.2609,-4.2351,-4.1874,-4.1569,-4.1036,-4.0351,-4.002,-3.9642,-3.9272,-3.9272,-3.9272,-3.9272,-3.9272,-3.9272,-3.9272,-3.9272,-3.9272,-3.9218,-3.8914,-3.86,-3.8335,-3.8001,-3.7743,-3.7285,-3.618,-3.5169,-3.4414,-3.4414,-3.4414,-3.4414,-3.4414,-3.4414,-3.4414,-3.4414,-3.4414,-3.4414,-3.4414,-3.4414,-3.4414,-3.4414,-3.4196,-3.4059,-3.4346,-3.3839,-3.3563,-3.377,-3.3409,-3.3129,-3.3269,-3.3031,-3.2695,-3.2458,-3.225,-3.2053,-3.1913,-3.17,-3.1572,-3.1572,-3.1015,-3.0656,-3.069,-3.0025,-2.9615,-2.9389,-2.8954,-2.8657,-2.851,-2.851,-2.851,0.0,-4.317,-4.3536,-4.2856,-4.1542,0.0,0.0,0.0,0.0,0.0,0.0,-4.2367,-4.3337,-4.3538,-4.3715,-4.4162,0.0,0.0,0.0,0.0,0.0,0.0,0.0,0.0,-4.7783,-4.8189,-4.8263,-4.7746,-4.7178,-4.7186,-4.7924,-4.7158,-4.6426,-4.586,-4.5494,-4.453,-4.29,-4.319,-4.319,-4.2882,-4.3208,-4.2997,-4.2333,-4.2333,-4.1984,-4.1373,-4.1117,-4.0676,0.0,-3.9884,-3.959,-3.9272,-3.9272,-3.9272,-3.9272,-3.9272,-3.9272,-3.9272,-3.9272,-3.9272,-3.9218,-3.8821,-3.8375,-3.7992,-3.7801,-3.7373,-3.6754,-3.6117,-3.5169,-3.4414,-3.4414,-3.4414,-3.4414,-3.4414,-3.4414,-3.4414,-3.4414,-3.4414,-3.4414,-3.4414,-3.4414,-3.4414,-3.4414,-3.4059,-3.3908,-3.4128,-3.3563,-3.3129,-3.3339,-3.3072,-3.286,-3.286,-3.286,-3.2636,-3.1981,-3.2095,-3.2024,-3.1812,-3.1697,-3.1626,-3.1626,-3.1273,-3.1105,-3.1095,-3.019,-2.9745,-2.9716,-2.8895,-2.851,-2.851,-2.851,-2.851,0.0,0.0,0.0,0.0,0.0,0.0,0.0,0.0,0.0,0.0,0.0,0.0,0.0,0.0,0.0,-4.5006,0.0,0.0,0.0,0.0,0.0,0.0,-4.7425,0.0,-4.7278,-4.7205,-4.7205,-4.7205,-4.6341,-4.6175,-4.7053,-4.6785,-4.6648,-4.6702,-4.5838,-4.4639,-4.3081,-4.3806,-4.3806,-4.3025,-4.3767,-4.336,-4.197,-4.197,-4.148,-4.0628,-4.0419,-4.0138,-3.9901,-3.959,-3.9448,-3.9272,-3.9272,-3.9272,-3.9272,-3.9272,-3.9272,-3.9272,-3.9272,-3.9272,-3.9218,-3.8616,-3.7992,-3.748,-3.748,-3.6769,-3.5976,-3.5913,-3.5219,-3.4481,-3.4414,-3.4414,-3.4414,-3.4414,-3.4414,-3.4414,-3.4414,-3.4414,-3.4414,-3.4414,-3.4414,-3.4414,-3.4414,-3.4059,-3.3839,-3.3839,-3.3199,-3.2704,-3.2775,-3.2444,-3.2182,-3.2182,-3.2182,-3.2182,-3.2182,-3.2516,-3.2632,-3.2632,-3.2372,-3.2182,-3.2182,-3.2182,-3.2182,-3.2182,-3.1022,-3.0317,-3.0241,-2.9118,-2.851,-2.851,-2.851,-2.851,0.0,0.0,0.0,0.0,0.0,0.0,0.0,0.0,0.0,0.0,0.0,0.0,0.0,0.0,0.0,0.0,0.0,0.0,0.0,0.0,0.0,-4.8636,-4.8471,-4.8233,-4.8049,-4.8031,-4.8031,-4.8031,-4.6672,-4.647,-4.784,-4.6627,-4.6127,-4.6684,-4.6382,-4.5743,-4.4747,-4.491,-4.4732,-4.4127,-4.4306,-4.3711,-4.2439,-4.2439,-4.1943,-4.1053,-4.0659,-4.0336,-4.0037,-3.9642,-3.9448,-3.9272,-3.9272,-3.9272,-3.9272,-3.9272,-3.9272,-3.9272,-3.9272,-3.9272,-3.9218,-3.8616,-3.7992,-3.748,-3.748,-3.7029,-3.6445,-3.6054,-3.5479,-3.492,-3.4481,-3.4414,-3.4414,-3.4414,-3.4414,-3.4414,-3.4414,-3.4414,-3.4414,-3.4414,-3.4414,-3.4414,-3.4414,-3.4059,-3.3908,-3.4196,-3.3339,-3.2846,-3.3129,-3.2588,-3.2182,-3.2182,-3.2182,-3.2182,-3.2182,-3.2241,-3.2314,-3.2314,-3.2241,-3.2182,-3.2182,-3.2182,-3.2182,-3.2182,-3.1394,-3.0545,-2.9639,-2.9341,-2.8961,-2.851,-2.851,-2.851,0.0,0.0,0.0,0.0,0.0,0.0,0.0,0.0,0.0,0.0,0.0,0.0,0.0,0.0,0.0,0.0,0.0,0.0,0.0,0.0,0.0,-4.9517,-4.8799,-4.8394,-4.8779,-4.8467,-4.8101,-4.7734,-4.7239,-4.7184,-4.762,-4.7025,-4.6833,-4.7248,-4.7107,-4.6486,-4.5309,-4.5671,-4.5389,-4.4492,-4.4553,-4.3775,-4.2271,-4.1922,-4.1324,-4.0597,-4.0385,-4.0104,-3.9798,-3.959,-3.9448,-3.9272,-3.9272,-3.9272,-3.9272,-3.9272,-3.9272,-3.9272,-3.9272,-3.911,-3.8838,-3.8319,-3.7876,-3.748,-3.748,-3.7285,-3.6892,-3.6117,-3.535,-3.4787,-3.4481,-3.4414,-3.4414,-3.4414,-3.4414,-3.4486,-3.4777,-3.4849,-3.4849,-3.4849,-3.4849,-3.4762,-3.4457,-3.3908,-3.3632,-3.3839,-3.3072,-3.2588,-3.2803,-3.2458,-3.2182,-3.2182,-3.2182,-3.2182,-3.2182,-3.2182,-3.2182,-3.2182,-3.2182,-3.2182,-3.2182,-3.2182,-3.2023,-3.1776,-3.1381,-3.0771,-2.9793,-2.9574,-2.9263,-2.8895,-2.8669,-2.851,0.0,0.0,0.0,0.0,0.0,0.0,0.0,0.0,0.0,0.0,0.0,0.0,0.0,0.0,0.0,0.0,0.0,0.0,0.0,0.0,0.0,-4.99,-4.9087,-4.8751,-4.9318,-4.8733,-4.8002,-4.7197,-4.7654,-4.7727,-4.7179,-4.7492,-4.7775,-4.7902,-4.7759,-4.7006,-4.5549,-4.63,-4.6056,-4.4743,-4.4778,-4.3832,-4.1913,-4.1295,-4.0624,-3.9901,-3.9901,-3.9746,-3.9501,-3.9501,-3.9448,-3.9272,-3.9272,-3.9272,-3.9272,-3.9272,-3.9272,-3.9272,-3.9218,-3.8821,-3.8278,-3.8001,-3.7743,-3.748,-3.748,-3.7421,-3.7241,-3.6428,-3.5564,-3.4896,-3.4811,-3.484,-3.4772,-3.4704,-3.4704,-3.4849,-3.5386,-3.543,-3.547,-3.5488,-3.543,-3.5157,-3.4708,-3.4055,-3.3522,-3.3438,-3.2869,-3.2409,-3.2255,-3.2241,-3.2182,-3.2182,-3.2182,-3.2182,-3.2182,-3.2182,-3.2182,-3.2182,-3.2182,-3.2182,-3.2182,-3.2182,-3.1863,-3.122,-3.122,-3.0846,-3.0165,-2.9639,-2.9341,-2.9263,-2.8736,-2.851,-4.7889,0.0,0.0,0.0,0.0,0.0,0.0,0.0,0.0,0.0,0.0,0.0,0.0,0.0,0.0,0.0,0.0,0.0,0.0,0.0,-5.1444,-5.1323,-5.0568,-4.9833,-4.9268,-4.9145,-4.8725,-4.7922,-4.7317,-4.7284,-4.7831,-4.7237,-4.7211,-4.7884,-4.7759,-4.7342,-4.6641,-4.7216,-4.6962,-4.5844,-4.5844,-4.457,-4.2206,-4.1999,-4.1167,-3.9901,-3.9781,-3.9625,-3.9501,-3.9501,-3.9448,-3.9272,-3.9272,-3.9272,-3.9272,-3.9272,-3.9272,-3.9272,-3.8985,-3.8455,-3.7943,-3.7943,-3.7743,-3.748,-3.748,-3.7165,-3.6894,-3.7312,-3.734,-3.7159,-3.6835,-3.6793,-3.6655,-3.6152,-3.6025,-3.604,-3.6141,-3.5735,-3.5517,-3.6054,-3.5438,-3.4982,-3.5411,-3.5135,-3.4688,-3.4169,-3.3709,-3.3211,-3.2701,-3.2372,-3.2182,-3.2182,-3.2182,-3.2182,-3.2182,-3.2182,-3.2182,-3.2182,-3.2182,-3.2182,-3.2182,-3.2182,-3.1863,-3.122,-3.122,-3.062,-2.9574,-2.9419,-2.9118,-2.8669,-2.851,-2.851,-4.7796,-4.8982,0.0,0.0,0.0,0.0,0.0,0.0,0.0,0.0,0.0,0.0,0.0,0.0,0.0,0.0,0.0,-5.1237,-5.1547,-5.128,-5.1171,-5.1547,-5.0848,-5.0186,-4.984,-4.9404,-4.8821,-4.802,-4.762,-4.7583,-4.7929,-4.7497,-4.742,-4.7801,-4.745,-4.7151,-4.6908,-4.6863,-4.6454,-4.5648,-4.5248,-4.4079,-4.2269,-4.1721,-4.091,-3.9901,-3.9694,-3.9537,-3.9501,-3.9448,-3.9342,-3.9272,-3.9272,-3.9272,-3.9272,-3.9272,-3.9218,-3.8985,-3.8711,-3.8303,-3.7886,-3.7743,-3.7583,-3.748,-3.748,-3.7345,-3.7369,-3.8404,-3.7772,-3.6884,-3.7118,-3.695,-3.667,-3.6387,-3.6301,-3.6301,-3.6301,-3.6083,-3.5967,-3.6257,-3.5698,-3.5368,-3.5653,-3.5212,-3.4682,-3.4404,-3.3776,-3.3238,-3.2965,-3.2791,-3.2535,-3.2209,-3.2467,-3.2521,-3.2209,-3.2182,-3.2182,-3.2182,-3.2182,-3.2182,-3.2182,-3.2182,-3.1863,-3.122,-3.122,-3.0771,-2.9871,-2.9574,-2.9263,-2.8961,-2.8657,-2.851,-4.7293,-4.8775,0.0,0.0,0.0,0.0,0.0,0.0,0.0,0.0,0.0,0.0,0.0,0.0,0.0,0.0,-5.1871,-5.1268,-5.1741,-5.1158,-5.0958,-5.1715,-5.0828,-5.0203,-5.0239,-4.9513,-4.8714,-4.7915,-4.7861,-4.7861,-4.7861,-4.7759,-4.7657,-4.7511,-4.7107,-4.6753,-4.6501,-4.6098,-4.5716,-4.5303,-4.4734,-4.3665,-4.2216,-4.1553,-4.0707,-3.9798,-3.9537,-3.9432,-3.9448,-3.9325,-3.9272,-3.9272,-3.9272,-3.9272,-3.9202,-3.9202,-3.8816,-3.8339,-3.8132,-3.785,-3.753,-3.7345,-3.7464,-3.7717,-3.7717,-3.7828,-3.8207,-3.9424,-3.8373,-3.7136,-3.7841,-3.7534,-3.6967,-3.6967,-3.6721,-3.6577,-3.6722,-3.6447,-3.6245,-3.6548,-3.6112,-3.5674,-3.5829,-3.5258,-3.4774,-3.4547,-3.3998,-3.343,-3.3295,-3.3268,-3.3091,-3.2643,-3.2874,-3.282,-3.2223,-3.2182,-3.2182,-3.2182,-3.2182,-3.2182,-3.2182,-3.2023,-3.1629,-3.0996,-3.0846,-3.0469,-2.9871,-2.9419,-2.9197,-2.9197,-2.8736,-2.851,-4.6102,-4.8105,0.0,0.0,0.0,0.0,0.0,0.0,0.0,0.0,0.0,0.0,0.0,0.0,0.0,0.0,-5.2714,-5.2615,-5.2544,-5.1882,-5.1655,-5.2363,-5.1076,-5.0134,-5.0134,-4.9383,-4.8586,-4.7772,-4.7699,-4.7699,-4.7699,-4.7717,-4.7468,-4.6954,-4.6908,-4.6406,-4.5407,-4.5355,-4.5355,-4.5303,-4.5251,-4.4126,-4.2105,-4.193,-4.098,-3.9501,-3.9379,-3.9325,-3.9325,-3.9325,-3.9272,-3.9272,-3.9272,-3.9094,-3.886,-3.886,-3.8049,-3.7014,-3.7014,-3.6788,-3.65,-3.65,-3.737,-3.8444,-3.8444,-3.8871,-3.9518,-4.0293,-3.9982,-3.9596,-4.0322,-3.9728,-3.8883,-3.8883,-3.8004,-3.7389,-3.7941,-3.6835,-3.6053,-3.7253,-3.6388,-3.5654,-3.6235,-3.5922,-3.5398,-3.4855,-3.4733,-3.4502,-3.3869,-3.3801,-3.3788,-3.3747,-3.3363,-3.282,-3.2223,-3.2182,-3.2182,-3.2182,-3.2182,-3.2182,-3.2182,-3.1616,-3.0996,-3.0393,-2.9793,-2.9263,-2.8657,-2.859,-2.8578,-2.8578,-2.851,-2.851,-4.7046,-4.8319,0.0,0.0,0.0,0.0,0.0,0.0,0.0,0.0,0.0,0.0,0.0,0.0,0.0,-5.2599,-5.2627,-5.249,-5.1864,-5.1556,-5.1275,-5.1031,-5.0452,-4.989,-4.9401,-4.9094,-4.8586,-4.7772,-4.7407,-4.7196,-4.7196,-4.6908,-4.6613,-4.6406,-4.6049,-4.5699,-4.5303,-4.4981,-4.478,-4.4635,-4.4232,-4.3267,-4.1942,-4.1347,-4.0291,-3.8802,-3.8662,-3.8626,-3.8626,-3.8626,-3.8874,-3.9272,-3.9094,-3.8914,-3.8805,-3.86,-3.8084,-3.7502,-3.7502,-3.7573,-3.7654,-3.7212,-3.8017,-3.9044,-3.8634,-3.8981,-3.9645,-4.0388,-3.9909,-3.936,-4.0086,-3.9651,-3.9031,-3.8649,-3.8177,-3.7825,-3.768,-3.7112,-3.6763,-3.7028,-3.6386,-3.5892,-3.6373,-3.5978,-3.5642,-3.5411,-3.5072,-3.4746,-3.4529,-3.4502,-3.4289,-3.391,-3.3417,-3.2969,-3.2752,-3.2399,-3.2182,-3.2182,-3.2182,-3.2009,-3.1616,-3.1307,-3.0771,-2.9793,-2.9496,-2.9106,-2.851,-2.851,-2.851,-2.851,-2.851,-2.851,-4.6606,-4.7674,0.0,0.0,0.0,0.0,0.0,0.0,0.0,0.0,0.0,0.0,0.0,0.0,0.0,0.0,-5.1726,-5.1618,-5.0795,-5.0597,-5.0434,-5.0126,-4.9637,-4.9238,-4.8949,-4.8529,-4.8153,-4.7803,-4.7097,-4.6766,-4.6997,-4.6434,-4.6,-4.585,-4.5511,-4.5094,-4.4712,-4.433,-4.3968,-4.3547,-4.2735,-4.2194,-4.1816,-4.0738,-3.9551,-3.8334,-3.7998,-3.7864,-3.788,-3.8112,-3.8493,-3.8941,-3.8586,-3.8259,-3.7954,-3.7695,-3.7215,-3.6765,-3.6765,-3.7086,-3.7449,-3.6975,-3.8033,-3.9408,-3.8965,-3.933,-4.002,-4.0507,-3.9951,-3.9273,-3.9586,-3.922,-3.8723,-3.8501,-3.8206,-3.7779,-3.7488,-3.7137,-3.6828,-3.6651,-3.6207,-3.5944,-3.6149,-3.5884,-3.571,-3.571,-3.5371,-3.5113,-3.5113,-3.5113,-3.4814,-3.395,-3.358,-3.3186,-3.282,-3.2413,-3.2182,-3.2182,-3.2182,-3.1936,-3.1233,-3.0996,-3.0469,-2.9419,-2.9184,-2.8882,-2.851,-2.851,-2.851,-2.851,-2.851,-2.851,-4.4405,0.0,0.0,0.0,0.0,0.0,0.0,0.0,0.0,0.0,0.0,0.0,0.0,0.0,0.0,-4.9495,-4.9906,-5.0138,-4.9383,-4.9037,-4.9202,-4.9963,-4.8677,-4.8025,-4.8779,-4.768,-4.7183,-4.795,-4.6848,-4.6449,-4.7136,-4.647,-4.585,-4.5303,-4.5303,-4.4677,-4.342,-4.3293,-4.2757,-4.1904,-4.1042,-4.1005,-4.1616,-4.0167,-3.8997,-3.8179,-3.7433,-3.7119,-3.7168,-3.7914,-3.8228,-3.8176,-3.7916,-3.7175,-3.6152,-3.5883,-3.5163,-3.4304,-3.4304,-3.4778,-3.5394,-3.5394,-3.7259,-3.9487,-3.9487,-4.0078,-4.0783,-4.0799,-4.0339,-3.9763,-3.9235,-3.8649,-3.8352,-3.8958,-3.8194,-3.7343,-3.7558,-3.6745,-3.6109,-3.636,-3.6058,-3.5723,-3.571,-3.571,-3.571,-3.571,-3.571,-3.571,-3.571,-3.571,-3.5262,-3.4005,-3.3883,-3.3471,-3.2291,-3.2182,-3.2182,-3.2182,-3.2182,-3.1863,-3.1233,-3.062,-3.0012,-2.9419,-2.8816,-2.851,-2.851,-2.851,-2.851,-2.8522,-2.8522,-2.8522,-4.5822,0.0,0.0,0.0,0.0,0.0,0.0,0.0,0.0,0.0,0.0,0.0,0.0,0.0,0.0,-4.8847,-4.9248,-4.9365,-4.8597,-4.8695,-4.8786,-4.846,-4.7651,-4.7241,-4.7492,-4.7281,-4.7192,-4.7421,-4.7248,-4.7018,-4.6707,-4.5679,-4.4705,-4.4014,-4.3469,-4.2935,-4.2479,-4.2425,-4.2198,-4.1722,-4.0971,-4.0683,-4.0774,-3.9827,-3.8944,-3.8195,-3.798,-3.788,-3.7947,-3.8659,-3.8834,-3.8619,-3.8345,-3.7575,-3.6653,-3.6333,-3.5704,-3.5063,-3.5063,-3.5521,-3.6042,-3.5552,-3.6943,-3.8746,-3.8357,-3.91,-4.0065,-4.0132,-3.9778,-3.922,-3.8782,-3.8188,-3.7915,-3.8352,-3.7997,-3.7548,-3.7582,-3.7161,-3.6612,-3.6443,-3.6312,-3.6058,-3.5723,-3.571,-3.571,-3.571,-3.571,-3.571,-3.571,-3.571,-3.5574,-3.5221,-3.4448,-3.3734,-3.3457,-3.3037,-3.2631,-3.208,-3.2066,-3.1655,-3.0646,-3.0406,-2.9793,-2.8816,-2.859,-2.851,-2.851,-2.851,-2.8703,-2.9063,-2.9063,-2.9063,0.0,0.0,0.0,0.0,0.0,0.0,0.0,0.0,0.0,0.0,0.0,0.0,-4.9065,-4.9007,-4.8583,-4.7422,-4.8029,-4.8317,-4.7417,-4.8028,-4.846,-4.82,-4.7168,-4.6614,-4.6936,-4.6121,-4.5695,-4.6009,-4.5717,-4.5446,-4.5255,-4.4283,-4.3453,-4.298,-4.2486,-4.2061,-4.1651,-4.156,-4.1301,-4.08,-4.0296,-4.0043,-3.9918,-3.9189,-3.8626,-3.8195,-3.7897,-3.7947,-3.8245,-3.8676,-3.8735,-3.8504,-3.8121,-3.739,-3.6541,-3.6181,-3.5568,-3.4952,-3.4952,-3.5221,-3.5505,-3.5094,-3.639,-3.7975,-3.7468,-3.8065,-3.8984,-3.9173,-3.8674,-3.812,-3.813,-3.7749,-3.7457,-3.7672,-3.7519,-3.7303,-3.7162,-3.6929,-3.6615,-3.6218,-3.6138,-3.6058,-3.5723,-3.5884,-3.5884,-3.5723,-3.571,-3.571,-3.571,-3.571,-3.5628,-3.5398,-3.4719,-3.4126,-3.3896,-3.362,-3.3087,-3.2434,-3.2434,-3.1876,-3.0618,-3.039,-2.9786,-2.8895,-2.8863,-2.8727,-2.851,-2.8727,-2.8979,-2.9304,-2.9508,-2.9617,0.0,0.0,0.0,0.0,0.0,0.0,0.0,0.0,0.0,0.0,0.0,-4.9258,-4.8093,-4.7906,-4.7306,-4.5505,-4.6456,-4.7086,-4.621,-4.7098,-4.801,-4.8547,-4.6837,-4.5909,-4.6577,-4.4502,-4.3407,-4.4096,-4.3131,-4.2777,-4.3386,-4.2692,-4.2252,-4.2185,-4.1974,-4.1584,-4.0894,-4.0628,-4.0134,-3.9501,-3.9379,-3.9272,-3.9255,-3.8609,-3.8311,-3.8278,-3.7599,-3.7682,-3.8311,-3.8311,-3.8259,-3.8206,-3.7606,-3.6934,-3.6196,-3.5681,-3.5015,-3.4383,-3.4383,-3.4383,-3.4383,-3.4383,-3.5742,-3.7266,-3.6754,-3.7192,-3.785,-3.7972,-3.7434,-3.691,-3.7391,-3.7226,-3.69,-3.69,-3.69,-3.6836,-3.647,-3.6405,-3.6232,-3.5804,-3.571,-3.571,-3.571,-3.6058,-3.6232,-3.579,-3.571,-3.571,-3.571,-3.571,-3.5506,-3.4963,-3.479,-3.4454,-3.3914,-3.386,-3.3536,-3.287,-3.2791,-3.2313,-3.1121,-3.0599,-2.9997,-2.9502,-2.9436,-2.9136,-2.8655,-2.9136,-2.94,-2.946,-2.9941,-3.0158,0.0,0.0,0.0,0.0,0.0,0.0,0.0,0.0,0.0,0.0,0.0,-4.8343,-4.7271,-4.6605,-4.5862,-4.489,-4.5363,-4.5892,-4.6052,-4.6159,-4.6275,-4.6444,-4.5151,-4.4161,-4.3955,-4.3546,-4.3379,-4.3549,-4.3881,-4.3893,-4.3453,-4.2692,-4.198,-4.1283,-4.0658,-4.0201,-3.984,-3.9787,-3.9581,-3.9325,-3.9325,-3.9272,-3.9272,-3.9123,-3.904,-3.904,-3.8874,-3.8907,-3.904,-3.904,-3.8933,-3.8646,-3.8316,-3.76,-3.6694,-3.6315,-3.5758,-3.5157,-3.5157,-3.5157,-3.5157,-3.5157,-3.5593,-3.6086,-3.6012,-3.6607,-3.7278,-3.7461,-3.7414,-3.7363,-3.7197,-3.685,-3.647,-3.6045,-3.6284,-3.647,-3.6405,-3.6138,-3.5804,-3.571,-3.571,-3.571,-3.571,-3.5804,-3.5804,-3.5723,-3.571,-3.571,-3.571,-3.571,-3.5669,-3.5533,-3.462,-3.3966,-3.3847,-3.3326,-3.2744,-3.2084,-3.2084,-3.2001,-3.1596,-3.1075,-3.0577,-2.9985,-2.994,-2.9857,-2.9749,-2.9857,-3.0134,-3.0543,-3.0651,-3.0699,0.0,0.0,0.0,0.0,0.0,0.0,0.0,0.0,0.0,0.0,-4.808,-4.7977,-4.6622,-4.5998,-4.5466,-4.4705,-4.512,-4.5434,-4.5231,-4.5373,-4.5522,-4.5496,-4.3957,-4.2988,-4.3126,-4.2347,-4.1813,-4.1813,-4.2202,-4.2236,-4.183,-4.1388,-4.0965,-4.0473,-3.9647,-3.9107,-3.8968,-3.8567,-3.8349,-3.8245,-3.8245,-3.8245,-3.8261,-3.8957,-3.9272,-3.9272,-3.9272,-3.9272,-3.9272,-3.9272,-3.9094,-3.875,-3.8504,-3.7995,-3.7358,-3.7044,-3.6485,-3.5884,-3.5884,-3.5663,-3.5338,-3.508,-3.5319,-3.5521,-3.4568,-3.5059,-3.5918,-3.5798,-3.5776,-3.5855,-3.6535,-3.617,-3.5623,-3.5655,-3.5884,-3.6058,-3.6058,-3.5884,-3.571,-3.571,-3.571,-3.571,-3.571,-3.571,-3.5804,-3.5978,-3.5804,-3.571,-3.571,-3.571,-3.5548,-3.5304,-3.4942,-3.443,-3.3775,-3.3762,-3.3251,-3.2264,-3.2264,-3.2092,-3.1748,-3.1479,-3.1088,-3.0575,-3.0495,-3.0338,-3.0086,-3.0338,-3.0603,-3.0879,-3.1132,-3.1252,0.0,0.0,0.0,0.0,0.0,0.0,0.0,0.0,0.0,0.0,-4.7425,-4.7551,-4.6119,-4.5682,-4.5314,-4.4671,-4.5111,-4.5269,-4.4475,-4.4699,-4.4887,-4.4756,-4.2988,-4.1992,-4.2597,-4.1086,-4.007,-4.007,-4.007,-4.007,-4.0087,-3.9935,-3.9901,-3.9849,-3.8923,-3.8385,-3.8402,-3.7517,-3.7102,-3.7102,-3.7102,-3.7102,-3.7152,-3.8344,-3.8907,-3.8907,-3.8907,-3.8907,-3.8907,-3.8907,-3.8851,-3.8679,-3.8325,-3.8092,-3.796,-3.7642,-3.7101,-3.6611,-3.6611,-3.6174,-3.554,-3.4965,-3.5027,-3.5034,-3.3528,-3.3616,-3.4351,-3.4341,-3.413,-3.4278,-3.5825,-3.5607,-3.5113,-3.5682,-3.5804,-3.5804,-3.5723,-3.571,-3.571,-3.571,-3.571,-3.571,-3.571,-3.571,-3.5804,-3.6232,-3.5978,-3.571,-3.571,-3.571,-3.5467,-3.4799,-3.5046,-3.4881,-3.3628,-3.3966,-3.37,-3.2624,-3.2537,-3.2276,-3.1749,-3.1661,-3.1501,-3.1095,-3.1028,-3.0795,-3.0362,-3.0795,-3.1011,-3.1023,-3.1456,-3.1661,0.0,0.0,0.0,0.0,0.0,0.0,0.0,0.0,0.0,0.0,-4.6158,-4.6119,-4.5777,-4.5162,-4.4688,-4.4604,-4.4654,-4.4844,-4.5094,-4.4079,-4.332,-4.3366,-4.1919,-4.0865,-4.0543,-4.0239,-4.007,-4.007,-4.007,-4.0037,-3.9935,-3.9901,-3.9798,-3.9537,-3.882,-3.8334,-3.8212,-3.7483,-3.7102,-3.7102,-3.7102,-3.7102,-3.7119,-3.7301,-3.74,-3.74,-3.74,-3.74,-3.74,-3.74,-3.7713,-3.8239,-3.7688,-3.7785,-3.8278,-3.7716,-3.7417,-3.7338,-3.7338,-3.6961,-3.6412,-3.5776,-3.4835,-3.3991,-3.4186,-3.3858,-3.3705,-3.4733,-3.5077,-3.5335,-3.5598,-3.5593,-3.5695,-3.6204,-3.6312,-3.6232,-3.5804,-3.571,-3.571,-3.571,-3.571,-3.571,-3.571,-3.571,-3.571,-3.5804,-3.5723,-3.571,-3.571,-3.571,-3.5467,-3.4799,-3.4301,-3.3628,-3.2884,-3.2351,-3.2001,-3.1837,-3.1837,-3.1749,-3.1661,-3.1661,-3.1677,-3.1632,-3.1604,-3.1529,-3.1456,-3.1529,-3.1565,-3.1565,-3.1637,-3.1661,0.0,0.0,0.0,0.0,0.0,0.0,0.0,0.0,0.0,-4.6106,-4.5801,-4.5665,-4.5145,-4.4807,-4.4587,-4.4587,-4.4587,-4.4376,-4.3729,-4.3047,-4.2313,-4.151,-4.0844,-4.0303,-4.0121,-4.007,-4.007,-4.007,-4.0037,-3.975,-3.9295,-3.9126,-3.8839,-3.8269,-3.7486,-3.702,-3.697,-3.6241,-3.5876,-3.5876,-3.629,-3.6274,-3.5876,-3.6307,-3.6721,-3.7102,-3.7102,-3.7102,-3.7102,-3.7102,-3.7182,-3.7324,-3.7469,-3.7501,-3.7488,-3.7642,-3.7626,-3.748,-3.7165,-3.6907,-3.6477,-3.5278,-3.4539,-3.4032,-3.3082,-3.2845,-3.3028,-3.3367,-3.3812,-3.4369,-3.5272,-3.5567,-3.5778,-3.6517,-3.6549,-3.6391,-3.6429,-3.6429,-3.635,-3.6138,-3.5884,-3.571,-3.571,-3.571,-3.571,-3.571,-3.5386,-3.5304,-3.5629,-3.5046,-3.4468,-3.4134,-3.3882,-3.33,-3.2189,-3.2189,-3.2101,-3.1749,-3.1661,-3.1661,-3.1661,-3.1661,-3.1661,-3.1661,-3.1661,-3.1661,-3.1661,-3.1661,-3.1661,-3.1661,-3.1661,-3.1661,0.0,0.0,0.0,0.0,0.0,0.0,0.0,0.0,0.0,0.0,-4.5415,-4.5246,-4.4671,-4.4587,-4.4587,-4.4587,-4.4587,-4.4113,-4.276,-4.2422,-4.1813,-4.051,-4.0189,-4.007,-4.0087,-4.0037,-4.0037,-4.0037,-3.9935,-3.9513,-3.8724,-3.8539,-3.8052,-3.7253,-3.6423,-3.6009,-3.6009,-3.5263,-3.4899,-3.4899,-3.5462,-3.5429,-3.4916,-3.5462,-3.6025,-3.6539,-3.6539,-3.6539,-3.6539,-3.6539,-3.6471,-3.6516,-3.6954,-3.6961,-3.6837,-3.7243,-3.734,-3.7093,-3.6646,-3.6399,-3.6089,-3.4651,-3.4192,-3.3883,-3.2454,-3.2401,-3.283,-3.2959,-3.3422,-3.4169,-3.537,-3.5794,-3.6108,-3.6788,-3.6772,-3.6536,-3.6665,-3.6758,-3.6679,-3.6298,-3.5965,-3.571,-3.571,-3.571,-3.571,-3.571,-3.5291,-3.5046,-3.5386,-3.4551,-3.3797,-3.3471,-3.3471,-3.2957,-3.1837,-3.2189,-3.2189,-3.1749,-3.1661,-3.1661,-3.1661,-3.1661,-3.1661,-3.1661,-3.1661,-3.1661,-3.1661,-3.1661,-3.1661,-3.1661,-3.1661,-3.1661,0.0,0.0,0.0,0.0,0.0,0.0,0.0,0.0,0.0,-4.479,-4.4637,-4.4621,-4.4587,-4.4587,-4.4587,-4.4587,-4.4587,-4.4299,-4.347,-4.2743,-4.1999,-4.1238,-4.0425,-3.9935,-4.007,-3.9884,-3.9781,-3.9901,-3.9781,-3.9359,-3.8487,-3.8385,-3.8001,-3.7135,-3.639,-3.6009,-3.6009,-3.5263,-3.4899,-3.4899,-3.4932,-3.4932,-3.4899,-3.4932,-3.4982,-3.5015,-3.5015,-3.5015,-3.5015,-3.5015,-3.5429,-3.6009,-3.571,-3.6034,-3.66,-3.6324,-3.6189,-3.6166,-3.6013,-3.5672,-3.5195,-3.4396,-3.3703,-3.3121,-3.3582,-3.3506,-3.3508,-3.4601,-3.54,-3.5981,-3.6051,-3.6501,-3.695,-3.6978,-3.6978,-3.6758,-3.5951,-3.6138,-3.6312,-3.5804,-3.5723,-3.571,-3.571,-3.571,-3.571,-3.571,-3.5629,-3.5467,-3.4799,-3.4716,-3.4134,-3.2884,-3.2711,-3.245,-3.1749,-3.1749,-3.1749,-3.1661,-3.1661,-3.1661,-3.1661,-3.1661,-3.1661,-3.1661,-3.1661,-3.1661,-3.1661,-3.1661,-3.1661,-3.1661,-3.1661,-3.1661,0.0,0.0,0.0,0.0,0.0,0.0,0.0,0.0,-4.5909,-4.5243,-4.524,-4.5162,-4.4671,-4.4587,-4.4587,-4.4587,-4.4164,-4.3572,-4.2794,-4.2472,-4.1963,-4.1148,-4.1285,-4.1403,-4.1403,-4.0929,-4.0643,-4.0591,-4.005,-3.909,-3.7786,-3.8033,-3.77,-3.6439,-3.6605,-3.6489,-3.6009,-3.6208,-3.6075,-3.5611,-3.6092,-3.6307,-3.6307,-3.5827,-3.5611,-3.5578,-3.5098,-3.4899,-3.4899,-3.4899,-3.5048,-3.5346,-3.5663,-3.5725,-3.5724,-3.6596,-3.6447,-3.5838,-3.5873,-3.5608,-3.5065,-3.4053,-3.3651,-3.3468,-3.3297,-3.352,-3.3958,-3.4393,-3.5264,-3.6141,-3.6429,-3.6745,-3.6915,-3.6693,-3.6836,-3.6744,-3.5871,-3.6058,-3.6312,-3.6152,-3.5884,-3.571,-3.571,-3.571,-3.571,-3.571,-3.5304,-3.4964,-3.4716,-3.4288,-3.3606,-3.2748,-3.2607,-3.2325,-3.1785,-3.1661,-3.1661,-3.1661,-3.1661,-3.1661,-3.1661,-3.1661,-3.1661,-3.1661,-3.1395,-3.1395,-3.1661,-3.1661,-3.1661,-3.1661,-3.1312,-3.1156,0.0,0.0,0.0,0.0,0.0,0.0,0.0,0.0,-4.547,-4.5412,-4.5496,-4.5476,-4.5043,-4.4959,-4.4874,-4.4621,-4.4147,-4.3453,-4.2439,-4.225,-4.1825,-4.0759,-4.1281,-4.1718,-4.1681,-4.1244,-4.0889,-4.0889,-3.9826,-3.8737,-3.7652,-3.775,-3.7384,-3.6406,-3.6854,-3.687,-3.6373,-3.6904,-3.6771,-3.6009,-3.6539,-3.6655,-3.634,-3.586,-3.5628,-3.5595,-3.5114,-3.4899,-3.4899,-3.4899,-3.4899,-3.4949,-3.5446,-3.5317,-3.4994,-3.5786,-3.5748,-3.5199,-3.5115,-3.5041,-3.478,-3.4053,-3.3917,-3.3905,-3.3557,-3.4096,-3.4939,-3.4939,-3.5849,-3.6831,-3.6968,-3.69,-3.6772,-3.647,-3.6443,-3.6429,-3.579,-3.6058,-3.6312,-3.5898,-3.5723,-3.5548,-3.5127,-3.5386,-3.5548,-3.5127,-3.4881,-3.4616,-3.4309,-3.382,-3.338,-3.2941,-3.281,-3.2611,-3.2238,-3.2214,-3.213,-3.1949,-3.1949,-3.1781,-3.1408,-3.1396,-3.1312,-3.0958,-3.0785,-3.0779,-3.0944,-3.0944,-3.0944,-3.0932,-3.0423,-3.0174,0.0,0.0,0.0,0.0,0.0,0.0,0.0,0.0,-4.3767,-4.5094,-4.5362,-4.5437,-4.5662,-4.5737,-4.5483,-4.4739,-4.457,-4.4028,-4.254,-4.223,-4.16,-4.017,-4.0411,-4.0754,-4.09,-4.065,-4.0525,-4.0634,-3.911,-3.8212,-3.8212,-3.7533,-3.7152,-3.7168,-3.7168,-3.7168,-3.7135,-3.727,-3.6904,-3.6042,-3.6172,-3.5806,-3.4998,-3.4965,-3.4965,-3.4965,-3.4916,-3.4899,-3.4899,-3.4899,-3.4899,-3.4899,-3.4899,-3.4691,-3.4415,-3.3918,-3.3955,-3.4195,-3.3691,-3.3891,-3.4414,-3.4414,-3.4428,-3.4443,-3.4443,-3.5328,-3.6344,-3.6344,-3.723,-3.8127,-3.7687,-3.7007,-3.6405,-3.6391,-3.6058,-3.5629,-3.5629,-3.5978,-3.5978,-3.4881,-3.5223,-3.5304,-3.3966,-3.4799,-3.5209,-3.3882,-3.4314,-3.4438,-3.3633,-3.3556,-3.351,-3.3329,-3.3308,-3.3308,-3.3284,-3.3284,-3.3068,-3.2551,-3.2515,-3.2022,-3.0963,-3.0915,-3.0417,-2.9468,-2.9997,-2.9992,-2.9515,-2.9493,-2.9558,-2.9546,-2.9086,-2.8758,-4.333,0.0,0.0,0.0,0.0,0.0,0.0,0.0,-4.3707,-4.478,-4.5244,-4.5589,-4.6187,-4.6271,-4.6035,-4.531,-4.4378,-4.3534,-4.3019,-4.2913,-4.2635,-4.1977,-4.2668,-4.3079,-4.3039,-4.2072,-4.1438,-4.1383,-3.9518,-3.8299,-3.8212,-3.803,-3.8025,-3.8307,-3.8553,-3.8479,-3.8035,-3.8086,-3.7703,-3.6937,-3.7519,-3.7619,-3.7284,-3.6738,-3.6489,-3.6439,-3.5363,-3.4899,-3.4899,-3.4899,-3.4899,-3.4851,-3.4284,-3.3919,-3.3758,-3.4026,-3.3861,-3.3619,-3.4451,-3.4574,-3.4414,-3.4414,-3.4719,-3.5096,-3.5096,-3.5996,-3.7027,-3.7027,-3.7593,-3.8052,-3.738,-3.6772,-3.6312,-3.5965,-3.5386,-3.4964,-3.4964,-3.4716,-3.4468,-3.4634,-3.4881,-3.4881,-3.4468,-3.4301,-3.4301,-3.4384,-3.4484,-3.4293,-3.3594,-3.4226,-3.4348,-3.3401,-3.3609,-3.3681,-3.332,-3.3284,-3.3026,-3.258,-3.2121,-3.1595,-3.0938,-3.0926,-3.0765,-3.0445,-3.0673,-3.0642,-3.0548,-3.0182,-3.0009,-2.9998,-2.9848,-2.9596,0.0,0.0,0.0,0.0,0.0,0.0,-4.2654,-4.2961,-4.3487,-4.4338,-4.4849,-4.5379,-4.5857,-4.5984,-4.5689,-4.4968,-4.4186,-4.3569,-4.3138,-4.3048,-4.2835,-4.2332,-4.2948,-4.3398,-4.3298,-4.2349,-4.1549,-4.1194,-3.9415,-3.8114,-3.7609,-3.7593,-3.7866,-3.8346,-3.84,-3.8434,-3.8385,-3.8069,-3.7553,-3.6837,-3.7569,-3.7719,-3.7284,-3.6837,-3.6655,-3.6589,-3.5413,-3.4851,-3.4739,-3.4739,-3.4626,-3.4399,-3.4036,-3.3495,-3.3043,-3.3651,-3.3591,-3.3309,-3.4153,-3.4434,-3.4457,-3.4719,-3.5067,-3.5415,-3.5677,-3.6475,-3.7302,-3.7302,-3.7515,-3.7596,-3.7134,-3.6522,-3.6058,-3.5804,-3.5386,-3.5127,-3.5127,-3.4551,-3.405,-3.3882,-3.405,-3.4212,-3.3862,-3.39,-3.4063,-3.4132,-3.4262,-3.4209,-3.3722,-3.4206,-3.4478,-3.3945,-3.4186,-3.4246,-3.3958,-3.3744,-3.3446,-3.3114,-3.2618,-3.209,-3.1564,-3.1552,-3.1355,-3.0939,-3.1157,-3.1145,-3.0975,-3.0274,-2.9779,-2.9577,-2.9749,-2.9715,0.0,0.0,-4.2551,-4.2895,-4.2425,0.0,-4.2097,-4.2507,-4.3037,-4.3756,-4.4314,-4.4807,-4.5035,-4.5118,-4.4934,-4.4156,-4.4048,-4.3848,-4.3153,-4.2956,-4.2608,-4.192,-4.227,-4.2576,-4.2634,-4.1972,-4.1243,-4.0547,-3.9086,-3.7686,-3.6551,-3.6722,-3.7037,-3.7546,-3.7357,-3.7572,-3.8317,-3.7569,-3.6886,-3.6204,-3.6853,-3.6821,-3.6125,-3.6042,-3.6042,-3.6075,-3.5263,-3.4756,-3.4497,-3.4448,-3.4202,-3.3751,-3.385,-3.3261,-3.241,-3.2986,-3.3201,-3.3243,-3.3536,-3.3935,-3.4501,-3.5082,-3.5357,-3.5575,-3.6141,-3.6823,-3.7404,-3.7404,-3.7196,-3.6978,-3.6978,-3.635,-3.571,-3.5629,-3.5548,-3.5467,-3.5386,-3.4881,-3.4063,-3.2884,-3.3217,-3.3467,-3.2755,-3.3531,-3.406,-3.3477,-3.3814,-3.4182,-3.4064,-3.409,-3.4306,-3.4775,-3.4775,-3.4739,-3.4739,-3.4252,-3.3953,-3.3875,-3.3468,-3.296,-3.2524,-3.2428,-3.2007,-3.1196,-3.1562,-3.1552,-3.1139,-3.0179,-2.9409,-2.8927,-2.9446,-2.9598,-4.2932,-4.2634,-4.2418,-4.2255,-4.1671,0.0,-4.2621,-4.2097,-4.1747,-4.332,-4.3456,-4.3456,-4.4023,-4.4623,-4.4714,-4.3684,-4.3927,-4.3981,-4.3393,-4.3294,-4.3168,-4.284,-4.2939,-4.3081,-4.3353,-4.2734,-4.2005,-4.1276,-3.9266,-3.7311,-3.553,-3.6414,-3.6685,-3.6111,-3.6869,-3.7446,-3.7765,-3.6987,-3.6482,-3.6379,-3.6386,-3.6604,-3.687,-3.6274,-3.6324,-3.682,-3.5479,-3.4756,-3.4497,-3.425,-3.3901,-3.3427,-3.2879,-3.2619,-3.2553,-3.2594,-3.2972,-3.35,-3.4074,-3.4312,-3.4428,-3.4559,-3.5299,-3.6156,-3.6272,-3.7114,-3.8028,-3.8028,-3.751,-3.6978,-3.6978,-3.635,-3.5548,-3.5046,-3.4468,-3.3966,-3.3386,-3.2772,-3.2311,-3.2519,-3.3116,-3.3495,-3.3341,-3.3097,-3.3203,-3.3991,-3.3735,-3.3651,-3.3982,-3.4414,-3.4715,-3.4823,-3.4451,-3.4198,-3.4198,-3.4102,-3.3863,-3.3372,-3.3264,-3.3074,-3.2491,-3.2097,-3.1921,-3.2222,-3.2337,-3.2333,-3.2242,-3.1162,-3.0477,-2.9914,-3.0872,-3.0801,-4.3164,-4.28,-4.246,-4.2268,-4.1988,0.0,0.0,-4.1972,-4.1824,-4.2377,-4.2294,-4.2202,-4.2567,-4.2833,-4.2964,-4.2752,-4.2823,-4.2883,-4.2743,-4.2929,-4.3052,-4.3096,-4.3113,-4.3087,-4.3039,-4.2402,-4.1486,-4.0295,-3.7716,-3.5938,-3.5377,-3.5361,-3.5205,-3.482,-3.5851,-3.6617,-3.7101,-3.6555,-3.6332,-3.6427,-3.657,-3.6804,-3.7102,-3.6721,-3.6754,-3.7036,-3.5545,-3.4756,-3.4448,-3.405,-3.3766,-3.3419,-3.2695,-3.2315,-3.2121,-3.2676,-3.3098,-3.3558,-3.4196,-3.4414,-3.4516,-3.5154,-3.5793,-3.636,-3.6851,-3.7247,-3.7596,-3.7596,-3.7148,-3.6601,-3.6229,-3.5683,-3.5046,-3.4384,-3.3966,-3.3628,-3.33,-3.2922,-3.2678,-3.2959,-3.3435,-3.371,-3.371,-3.3446,-3.3534,-3.443,-3.4231,-3.4054,-3.4042,-3.4499,-3.4631,-3.4114,-3.4042,-3.4042,-3.4042,-3.3744,-3.3671,-3.4029,-3.375,-3.3652,-3.3652,-3.3405,-3.3382,-3.364,-3.3948,-3.3889,-3.3633,-3.3434,-3.2483,-3.0986,-3.1426,-3.1319,-4.3446,-4.2866,-4.2336,-4.2485,-4.2319,-4.2054,0.0,0.0,0.0,-4.1541,-4.1309,0.0,0.0,0.0,-4.0951,-4.1449,-4.1379,-4.1413,-4.1757,-4.1901,-4.2326,-4.3137,-4.2941,-4.2736,-4.2532,-4.1559,-4.0359,-3.885,-3.624,-3.4926,-3.5399,-3.4304,-3.38,-3.3923,-3.4912,-3.5835,-3.6525,-3.6307,-3.6267,-3.6379,-3.6705,-3.6903,-3.6887,-3.6786,-3.6786,-3.682,-3.5268,-3.4529,-3.4464,-3.3941,-3.3675,-3.3547,-3.2894,-3.2314,-3.2009,-3.2974,-3.3466,-3.3746,-3.437,-3.4588,-3.4777,-3.5938,-3.6316,-3.6563,-3.7343,-3.7303,-3.6978,-3.6978,-3.661,-3.6039,-3.5318,-3.4927,-3.4571,-3.3856,-3.3802,-3.382,-3.3849,-3.3633,-3.3449,-3.356,-3.3825,-3.4042,-3.4042,-3.4042,-3.4222,-3.4751,-3.4739,-3.4523,-3.4102,-3.4414,-3.4354,-3.3525,-3.3705,-3.3933,-3.403,-3.3553,-3.3742,-3.4546,-3.4374,-3.4335,-3.4823,-3.4919,-3.498,-3.498,-3.5408,-3.5431,-3.4917,-3.5336,-3.4328,-3.2114,-3.2118,-3.188,-4.2816,-4.2104,-4.169,-4.2353,-4.1558,-4.1094,-4.2949,0.0,-4.1508,-4.1425,0.0,-4.0299,-3.9636,0.0,0.0,-3.9755,-3.9951,-4.032,-4.0737,-4.0214,-4.0784,-4.3314,-4.2502,-4.1934,-4.261,-4.0702,-3.8921,-3.7763,-3.685,-3.5823,-3.4706,-3.4121,-3.3879,-3.4084,-3.4877,-3.5665,-3.6316,-3.6224,-3.6204,-3.6204,-3.6141,-3.6125,-3.6125,-3.5575,-3.5626,-3.6026,-3.4172,-3.3834,-3.4448,-3.3979,-3.3715,-3.3537,-3.292,-3.3004,-3.3484,-3.3621,-3.393,-3.4399,-3.5038,-3.5256,-3.5372,-3.6083,-3.6476,-3.6785,-3.741,-3.7303,-3.6978,-3.6978,-3.6367,-3.5471,-3.4803,-3.4751,-3.466,-3.3933,-3.4097,-3.4423,-3.431,-3.3759,-3.3425,-3.3871,-3.3958,-3.4042,-3.4042,-3.4042,-3.4222,-3.4751,-3.4426,-3.4114,-3.4054,-3.409,-3.409,-3.397,-3.3609,-3.3549,-3.4006,-3.3947,-3.3971,-3.4126,-3.4474,-3.4738,-3.4823,-3.528,-3.5533,-3.5533,-3.5541,-3.5577,-3.5517,-3.511,-3.4481,-3.3754,-3.3779,-3.347,-4.2071,-4.2286,-4.2568,-4.2021,-4.2071,-4.2386,-4.2866,-4.2502,-4.2054,-4.2054,0.0,0.0,0.0,0.0,0.0,0.0,-3.9761,-3.9801,-3.9929,-3.9834,-4.0575,-4.2765,-4.1466,-4.0288,-4.0098,-3.8278,-3.7054,-3.6999,-3.5962,-3.5134,-3.4747,-3.4207,-3.4029,-3.4266,-3.5023,-3.5727,-3.6368,-3.6469,-3.6555,-3.6555,-3.6694,-3.661,-3.6337,-3.6116,-3.5785,-3.5411,-3.4207,-3.4143,-3.4751,-3.3928,-3.4203,-3.5076,-3.397,-3.365,-3.3644,-3.3293,-3.3675,-3.4399,-3.4298,-3.4748,-3.5532,-3.6562,-3.7022,-3.7206,-3.7232,-3.6993,-3.6452,-3.5435,-3.5089,-3.4835,-3.3757,-3.3766,-3.3995,-3.3619,-3.3662,-3.3806,-3.3766,-3.3687,-3.3789,-3.4006,-3.4042,-3.4138,-3.4438,-3.4499,-3.4571,-3.4799,-3.4643,-3.439,-3.4078,-3.4306,-3.427,-3.3669,-3.3681,-3.3813,-3.4018,-3.4042,-3.4174,-3.4475,-3.4992,-3.528,-3.528,-3.6086,-3.6386,-3.6086,-3.6675,-3.6843,-3.6531,-3.6615,-3.6237,-3.5413,-3.4786,-3.4042,-4.1326,-4.1922,-4.2485,-4.1392,-4.1939,-4.27,-4.2551,-4.2353,-4.227,-4.2485,-4.1773,0.0,0.0,0.0,-3.986,-3.971,0.0,-3.8935,-3.8999,-3.906,-3.9845,-4.1787,-4.0483,-3.9077,-3.8169,-3.6869,-3.6186,-3.6224,-3.5395,-3.4986,-3.5148,-3.4419,-3.4307,-3.4877,-3.5436,-3.5847,-3.6034,-3.6368,-3.6443,-3.616,-3.6271,-3.6142,-3.5695,-3.5663,-3.531,-3.4691,-3.3948,-3.4176,-3.4974,-3.4089,-3.4596,-3.5848,-3.4889,-3.4292,-3.3908,-3.3469,-3.3762,-3.437,-3.4095,-3.482,-3.6083,-3.7186,-3.7555,-3.7457,-3.6978,-3.6615,-3.6097,-3.4563,-3.4423,-3.4424,-3.3232,-3.3208,-3.3532,-3.3381,-3.3332,-3.3368,-3.3618,-3.3775,-3.4006,-3.3861,-3.4066,-3.433,-3.4571,-3.4619,-3.4667,-3.4811,-3.4823,-3.4643,-3.4114,-3.4366,-3.4318,-3.3573,-3.3825,-3.4102,-3.4246,-3.439,-3.4691,-3.5232,-3.5617,-3.5905,-3.6038,-3.6783,-3.7084,-3.6843,-3.7445,-3.7649,-3.7409,-3.7505,-3.7228,-3.6591,-3.5533,-3.464,-4.0597,-4.0448,-4.0464,-4.0415,-4.0448,-4.0845,-4.2204,-4.1972,-4.1657,-4.2369,-4.1392,-4.0558,-4.0861,-3.9593,-3.8569,-3.8862,-3.8193,0.0,0.0,-3.7173,-3.7779,-4.0357,-3.9831,-3.8938,-3.7931,-3.7579,-3.6879,-3.5514,-3.5909,-3.6108,-3.5893,-3.4655,-3.4678,-3.6198,-3.6291,-3.5979,-3.5131,-3.571,-3.5535,-3.4596,-3.4109,-3.3747,-3.3471,-3.3228,-3.3352,-3.3699,-3.2747,-3.3345,-3.4888,-3.4607,-3.474,-3.5125,-3.5175,-3.4986,-3.4668,-3.4654,-3.452,-3.4501,-3.5096,-3.6156,-3.7346,-3.797,-3.7886,-3.7457,-3.6545,-3.635,-3.6182,-3.511,-3.4705,-3.4431,-3.3709,-3.3557,-3.3636,-3.3595,-3.3556,-3.3615,-3.4226,-3.4218,-3.3897,-3.3404,-3.4126,-3.4643,-3.415,-3.4066,-3.4234,-3.4751,-3.4823,-3.4643,-3.4114,-3.4054,-3.4054,-3.4018,-3.403,-3.4246,-3.4763,-3.5268,-3.5797,-3.6314,-3.6374,-3.6615,-3.712,-3.718,-3.7433,-3.7926,-3.7457,-3.7457,-3.795,-3.6952,-3.6699,-3.7144,-3.6086,-3.5581,-3.9852,-4.0475,-4.1106,-4.0553,-4.0801,-4.1471,-4.2303,-4.1955,-4.1756,-4.2999,-4.2469,-4.1684,-4.1444,-4.088,-4.0075,-3.8845,-3.8087,-3.7483,0.0,-3.6333,-3.6386,-3.7969,-3.8279,-3.7895,-3.6656,-3.6285,-3.5718,-3.4791,-3.4936,-3.5034,-3.5087,-3.5192,-3.5523,-3.6196,-3.6168,-3.6009,-3.5692,-3.5603,-3.5127,-3.4359,-3.4534,-3.4164,-3.3403,-3.369,-3.3594,-3.3154,-3.329,-3.3894,-3.485,-3.4352,-3.4775,-3.5546,-3.5044,-3.4831,-3.4654,-3.42,-3.4447,-3.5198,-3.6272,-3.6939,-3.7404,-3.8014,-3.7462,-3.657,-3.6184,-3.6097,-3.567,-3.3943,-3.4232,-3.4789,-3.3236,-3.3142,-3.3404,-3.3418,-3.363,-3.3922,-3.4104,-3.4377,-3.4511,-3.4342,-3.4306,-3.4366,-3.4535,-3.427,-3.4222,-3.4751,-3.4823,-3.4763,-3.4583,-3.4559,-3.4691,-3.5052,-3.5088,-3.5304,-3.5821,-3.6038,-3.6218,-3.6398,-3.6735,-3.7,-3.718,-3.7529,-3.7793,-3.7986,-3.7805,-3.7805,-3.7986,-3.7276,-3.6843,-3.6651,-3.5942,-3.5617,-3.9511,-4.0147,-4.0817,-4.0263,-4.0567,-4.1061,-4.172,-4.1249,-4.1143,-4.2883,-4.2435,-4.1733,-4.1771,-4.1281,-4.0333,-3.8679,-3.7826,-3.7063,0.0,-3.5559,-3.5472,-3.6394,-3.7038,-3.7073,-3.6207,-3.612,-3.5691,-3.482,-3.4748,-3.483,-3.5034,-3.5331,-3.5666,-3.6049,-3.6034,-3.5689,-3.5186,-3.5126,-3.4668,-3.3894,-3.4059,-3.3818,-3.333,-3.3592,-3.3457,-3.3139,-3.3543,-3.4158,-3.4835,-3.4495,-3.4812,-3.5429,-3.4883,-3.4631,-3.4572,-3.4134,-3.4578,-3.5546,-3.6852,-3.7302,-3.7301,-3.7425,-3.6803,-3.5878,-3.5385,-3.5264,-3.4934,-3.3421,-3.397,-3.4702,-3.3126,-3.2899,-3.3056,-3.3236,-3.3392,-3.3537,-3.3729,-3.4174,-3.4499,-3.4318,-3.4306,-3.4366,-3.4523,-3.4414,-3.4438,-3.4775,-3.4823,-3.4895,-3.5088,-3.5112,-3.5304,-3.5845,-3.5893,-3.611,-3.6639,-3.6687,-3.6771,-3.6952,-3.7288,-3.7469,-3.7469,-3.7805,-3.7986,-3.7986,-3.7793,-3.7793,-3.7986,-3.7072,-3.6555,-3.6386,-3.5665,-3.5437]},{"header":{"parameterUnit":"m.s-1","parameterCategory":1,"la1":30.6,"la2":29.2853,"lo1":-89.7004,"lo2":-87.6739,"dy":0.0162,"dx":0.0183,"nx":112,"ny":82,"refTime":"2023-02-27T06:00:00:Z","depth":0,"parameterNumber":3,"parameterNumberName":"V-component_of_WINDS"},"data":[0.0,0.0,0.0,0.0,0.0,0.0,0.0,0.0,0.0,0.0,0.0,0.0,0.0,0.0,0.0,0.0,0.0,0.0,0.0,0.0,0.0,0.0,0.0,0.0,0.0,0.0,0.0,0.0,0.0,0.0,0.0,0.0,0.0,0.0,0.0,0.0,0.0,0.0,0.0,0.0,0.0,0.0,0.0,0.0,0.0,0.0,0.0,0.0,0.0,0.0,0.0,0.0,0.0,0.0,0.0,0.0,0.0,0.0,0.0,0.0,0.0,0.0,0.0,0.0,0.0,0.0,0.0,0.0,0.0,0.0,0.0,0.0,0.0,0.0,0.0,0.0,0.0,0.0,0.0,0.0,0.0,0.0,0.0,0.0,0.0,0.0,0.0,0.0,0.0,0.0,-2.5173,-2.048,-1.9625,-1.9738,-2.0722,-2.2331,-2.365,-2.4569,0.0,0.0,0.0,0.0,0.0,0.0,0.0,0.0,0.0,0.0,0.0,0.0,0.0,0.0,0.0,0.0,0.0,0.0,0.0,0.0,0.0,0.0,0.0,0.0,0.0,0.0,0.0,0.0,0.0,0.0,0.0,0.0,0.0,0.0,0.0,0.0,0.0,0.0,0.0,0.0,0.0,0.0,0.0,0.0,0.0,0.0,0.0,0.0,0.0,0.0,0.0,0.0,0.0,0.0,0.0,0.0,0.0,0.0,0.0,0.0,0.0,0.0,0.0,0.0,0.0,0.0,0.0,0.0,0.0,0.0,0.0,0.0,0.0,0.0,0.0,0.0,0.0,0.0,0.0,0.0,0.0,0.0,0.0,0.0,0.0,0.0,0.0,0.0,0.0,0.0,0.0,0.0,0.0,0.0,0.0,0.0,0.0,0.0,0.0,0.0,0.0,0.0,0.0,0.0,-2.4927,-2.1681,-2.0773,-2.0605,-2.0935,-2.202,-2.3407,-2.4887,0.0,0.0,0.0,0.0,0.0,0.0,0.0,0.0,0.0,0.0,0.0,0.0,0.0,0.0,0.0,0.0,0.0,0.0,0.0,0.0,0.0,0.0,0.0,0.0,0.0,0.0,0.0,0.0,0.0,0.0,0.0,0.0,0.0,0.0,0.0,0.0,0.0,0.0,0.0,0.0,0.0,0.0,0.0,0.0,0.0,0.0,0.0,0.0,0.0,0.0,0.0,0.0,0.0,0.0,0.0,0.0,0.0,0.0,0.0,0.0,0.0,0.0,0.0,0.0,0.0,0.0,0.0,0.0,0.0,0.0,0.0,0.0,0.0,0.0,0.0,0.0,0.0,0.0,0.0,0.0,0.0,0.0,0.0,0.0,0.0,0.0,0.0,0.0,0.0,0.0,0.0,0.0,0.0,0.0,0.0,0.0,0.0,0.0,0.0,0.0,0.0,0.0,0.0,-2.5362,-2.3806,-2.3104,-2.2521,-2.2377,-2.2832,-2.4184,-2.5208,-2.5891,-2.771,0.0,0.0,0.0,0.0,0.0,0.0,0.0,0.0,0.0,0.0,0.0,0.0,0.0,0.0,0.0,0.0,0.0,0.0,0.0,0.0,0.0,0.0,0.0,0.0,0.0,0.0,0.0,0.0,0.0,0.0,0.0,0.0,0.0,0.0,0.0,0.0,0.0,0.0,0.0,0.0,0.0,0.0,0.0,0.0,0.0,0.0,0.0,0.0,0.0,0.0,0.0,0.0,0.0,0.0,0.0,0.0,0.0,0.0,0.0,0.0,0.0,0.0,0.0,0.0,0.0,0.0,0.0,0.0,0.0,0.0,0.0,0.0,0.0,0.0,0.0,0.0,0.0,0.0,0.0,0.0,0.0,0.0,0.0,0.0,0.0,0.0,0.0,0.0,0.0,0.0,0.0,0.0,0.0,0.0,0.0,0.0,0.0,0.0,0.0,0.0,0.0,0.0,-2.4908,-2.3448,-2.4065,-2.4024,-2.4032,-2.4361,-2.583,-2.677,-2.6803,-2.893,0.0,0.0,0.0,0.0,0.0,0.0,0.0,0.0,0.0,0.0,0.0,0.0,0.0,0.0,0.0,0.0,0.0,0.0,0.0,0.0,0.0,0.0,0.0,0.0,0.0,0.0,0.0,0.0,0.0,0.0,0.0,0.0,0.0,0.0,0.0,0.0,0.0,0.0,0.0,0.0,0.0,0.0,0.0,0.0,0.0,0.0,0.0,0.0,0.0,0.0,0.0,0.0,0.0,0.0,0.0,0.0,0.0,0.0,0.0,0.0,0.0,0.0,0.0,0.0,0.0,0.0,0.0,0.0,0.0,0.0,0.0,0.0,0.0,0.0,0.0,0.0,0.0,0.0,0.0,0.0,0.0,0.0,0.0,0.0,0.0,0.0,0.0,0.0,0.0,0.0,0.0,0.0,0.0,0.0,0.0,0.0,0.0,0.0,0.0,0.0,0.0,0.0,-2.5846,-2.4957,-2.4296,-2.4804,-2.5085,-2.4492,-2.5549,-2.651,-2.7259,-2.9115,0.0,0.0,0.0,0.0,0.0,0.0,0.0,0.0,0.0,0.0,0.0,0.0,0.0,0.0,0.0,0.0,0.0,0.0,0.0,0.0,0.0,0.0,0.0,0.0,0.0,0.0,0.0,0.0,0.0,0.0,0.0,0.0,0.0,0.0,0.0,0.0,0.0,0.0,0.0,0.0,0.0,0.0,0.0,0.0,0.0,0.0,0.0,0.0,0.0,0.0,0.0,0.0,0.0,0.0,0.0,0.0,0.0,0.0,0.0,0.0,0.0,0.0,0.0,0.0,0.0,0.0,0.0,0.0,0.0,0.0,0.0,0.0,0.0,0.0,0.0,0.0,0.0,0.0,0.0,0.0,0.0,0.0,0.0,0.0,0.0,0.0,0.0,0.0,0.0,0.0,0.0,0.0,0.0,0.0,0.0,0.0,0.0,0.0,0.0,0.0,0.0,0.0,-2.6615,-2.6107,-2.5361,-2.6006,-2.6581,-2.6751,-2.7332,-2.7912,-2.8086,0.0,0.0,0.0,0.0,0.0,0.0,0.0,0.0,0.0,0.0,0.0,0.0,0.0,0.0,0.0,0.0,0.0,0.0,0.0,0.0,0.0,0.0,0.0,0.0,0.0,0.0,0.0,0.0,0.0,0.0,0.0,0.0,0.0,0.0,0.0,0.0,0.0,0.0,0.0,0.0,0.0,0.0,0.0,0.0,0.0,0.0,0.0,0.0,0.0,0.0,0.0,0.0,0.0,0.0,0.0,0.0,0.0,0.0,0.0,0.0,0.0,0.0,0.0,0.0,0.0,0.0,0.0,0.0,0.0,0.0,0.0,0.0,0.0,0.0,0.0,0.0,0.0,0.0,0.0,0.0,0.0,0.0,0.0,0.0,0.0,0.0,0.0,0.0,0.0,0.0,0.0,0.0,0.0,0.0,0.0,0.0,0.0,0.0,0.0,0.0,0.0,0.0,-2.7538,-2.7053,-2.6564,-2.6,-2.6801,-2.7512,-2.8014,-2.8125,-2.8334,-2.8631,0.0,0.0,0.0,0.0,0.0,0.0,0.0,0.0,0.0,0.0,0.0,0.0,0.0,0.0,0.0,0.0,0.0,0.0,0.0,0.0,0.0,0.0,0.0,0.0,0.0,0.0,0.0,0.0,0.0,0.0,0.0,0.0,0.0,0.0,0.0,0.0,0.0,0.0,0.0,0.0,0.0,0.0,0.0,0.0,0.0,0.0,0.0,0.0,0.0,0.0,0.0,0.0,0.0,0.0,0.0,0.0,0.0,0.0,0.0,0.0,0.0,0.0,0.0,0.0,0.0,0.0,0.0,0.0,0.0,0.0,0.0,0.0,0.0,0.0,0.0,0.0,0.0,0.0,0.0,0.0,0.0,0.0,0.0,0.0,0.0,0.0,0.0,0.0,0.0,0.0,0.0,0.0,0.0,0.0,0.0,0.0,0.0,0.0,0.0,0.0,0.0,0.0,-2.8218,-2.7069,-2.6338,-2.6069,-2.7011,-2.7623,-2.7623,-2.7308,-2.7641,0.0,0.0,0.0,0.0,0.0,0.0,0.0,0.0,0.0,0.0,0.0,0.0,0.0,0.0,0.0,0.0,0.0,0.0,0.0,0.0,0.0,0.0,0.0,0.0,0.0,0.0,0.0,0.0,0.0,0.0,0.0,0.0,0.0,0.0,0.0,0.0,0.0,0.0,0.0,0.0,0.0,0.0,0.0,0.0,0.0,0.0,0.0,0.0,0.0,0.0,0.0,0.0,0.0,0.0,0.0,0.0,0.0,0.0,0.0,0.0,0.0,0.0,0.0,0.0,0.0,0.0,0.0,0.0,0.0,0.0,0.0,0.0,0.0,0.0,0.0,0.0,0.0,0.0,0.0,0.0,0.0,0.0,0.0,0.0,0.0,0.0,0.0,0.0,0.0,0.0,0.0,0.0,0.0,0.0,0.0,0.0,0.0,0.0,0.0,0.0,0.0,0.0,0.0,-2.7566,-2.7631,-2.7321,-2.6003,-2.6808,-2.7512,-2.7828,-2.7707,-2.8081,-2.9001,0.0,0.0,0.0,0.0,0.0,0.0,0.0,0.0,0.0,0.0,0.0,0.0,0.0,0.0,0.0,0.0,0.0,0.0,0.0,0.0,0.0,0.0,0.0,0.0,0.0,0.0,0.0,0.0,0.0,0.0,0.0,0.0,0.0,0.0,0.0,0.0,0.0,0.0,0.0,0.0,0.0,0.0,0.0,0.0,0.0,0.0,0.0,0.0,0.0,0.0,0.0,0.0,0.0,0.0,0.0,0.0,0.0,0.0,0.0,0.0,0.0,0.0,0.0,0.0,0.0,0.0,0.0,0.0,0.0,0.0,0.0,0.0,0.0,0.0,0.0,0.0,0.0,0.0,0.0,0.0,0.0,0.0,0.0,0.0,0.0,0.0,0.0,0.0,0.0,0.0,0.0,0.0,0.0,0.0,0.0,0.0,0.0,0.0,0.0,0.0,0.0,0.0,-2.8339,-2.8001,-2.7572,-2.6348,-2.6731,-2.7141,-2.7343,-2.7398,-2.7801,-2.8557,0.0,0.0,0.0,0.0,0.0,0.0,0.0,0.0,0.0,0.0,0.0,0.0,0.0,0.0,0.0,0.0,0.0,0.0,0.0,0.0,0.0,0.0,0.0,0.0,0.0,0.0,0.0,0.0,0.0,0.0,0.0,0.0,0.0,0.0,0.0,0.0,0.0,0.0,0.0,0.0,0.0,0.0,0.0,0.0,0.0,0.0,0.0,0.0,0.0,0.0,0.0,0.0,0.0,0.0,0.0,0.0,0.0,0.0,0.0,0.0,0.0,0.0,0.0,0.0,0.0,0.0,0.0,0.0,0.0,0.0,0.0,0.0,0.0,0.0,0.0,0.0,0.0,0.0,0.0,0.0,0.0,0.0,0.0,0.0,0.0,0.0,0.0,0.0,0.0,0.0,0.0,0.0,0.0,0.0,0.0,0.0,0.0,0.0,0.0,0.0,0.0,0.0,-2.9706,-2.8254,-2.7294,-2.7114,-2.6881,-2.6871,-2.6832,-2.6913,-2.7247,-2.8028,0.0,0.0,0.0,0.0,0.0,0.0,0.0,0.0,0.0,0.0,0.0,0.0,0.0,0.0,0.0,0.0,0.0,0.0,0.0,0.0,0.0,0.0,0.0,0.0,0.0,0.0,0.0,0.0,0.0,0.0,0.0,0.0,0.0,0.0,0.0,0.0,0.0,0.0,0.0,0.0,0.0,0.0,0.0,0.0,0.0,0.0,0.0,0.0,0.0,0.0,0.0,0.0,0.0,0.0,0.0,0.0,0.0,0.0,0.0,0.0,-2.2159,-2.2217,0.0,0.0,0.0,0.0,0.0,0.0,0.0,0.0,0.0,0.0,0.0,0.0,0.0,0.0,0.0,0.0,0.0,0.0,0.0,0.0,0.0,0.0,0.0,0.0,0.0,0.0,0.0,0.0,0.0,0.0,0.0,0.0,0.0,0.0,0.0,0.0,0.0,0.0,0.0,0.0,-2.857,-2.8098,-2.7926,-2.7946,-2.8167,-2.8499,-2.901,-2.8812,-2.8973,-2.9762,-2.9879,0.0,0.0,0.0,0.0,0.0,0.0,0.0,0.0,0.0,0.0,0.0,0.0,0.0,0.0,0.0,0.0,0.0,0.0,0.0,0.0,0.0,0.0,0.0,0.0,0.0,0.0,0.0,0.0,0.0,0.0,0.0,0.0,0.0,0.0,0.0,0.0,0.0,0.0,0.0,0.0,0.0,0.0,0.0,0.0,0.0,0.0,0.0,0.0,0.0,0.0,0.0,0.0,0.0,0.0,0.0,0.0,0.0,0.0,0.0,-2.1139,-2.1743,0.0,0.0,0.0,0.0,0.0,0.0,0.0,0.0,0.0,0.0,0.0,0.0,0.0,0.0,0.0,0.0,0.0,0.0,0.0,0.0,0.0,0.0,0.0,0.0,0.0,0.0,0.0,0.0,0.0,0.0,0.0,0.0,0.0,0.0,0.0,0.0,0.0,0.0,0.0,0.0,-2.9196,-2.8588,-2.8339,-2.8656,-2.8418,-2.843,-2.8741,-2.8667,-2.893,-2.9555,-2.993,0.0,0.0,0.0,0.0,0.0,0.0,0.0,0.0,0.0,0.0,0.0,0.0,0.0,0.0,0.0,0.0,0.0,0.0,0.0,0.0,0.0,0.0,0.0,0.0,0.0,0.0,0.0,0.0,0.0,0.0,0.0,0.0,0.0,0.0,0.0,0.0,0.0,0.0,0.0,0.0,0.0,0.0,0.0,0.0,0.0,0.0,0.0,0.0,0.0,0.0,0.0,0.0,0.0,-2.0903,-2.0924,-1.9638,-2.0281,-2.0406,-2.0178,-2.0345,-2.1266,-2.2656,-2.2763,0.0,0.0,0.0,0.0,0.0,0.0,0.0,0.0,0.0,0.0,0.0,0.0,0.0,0.0,0.0,0.0,0.0,0.0,0.0,0.0,0.0,0.0,-3.1232,-3.1302,-3.1568,-3.1888,-3.1763,0.0,0.0,0.0,0.0,0.0,0.0,0.0,0.0,0.0,0.0,0.0,-3.0089,-2.9172,-2.8715,-2.9235,-2.8563,-2.8091,-2.8264,-2.8454,-2.8757,-2.9162,-2.9955,-3.063,0.0,0.0,0.0,0.0,0.0,0.0,0.0,0.0,0.0,0.0,0.0,0.0,0.0,0.0,0.0,0.0,0.0,0.0,0.0,0.0,0.0,0.0,0.0,0.0,0.0,0.0,0.0,0.0,0.0,0.0,0.0,0.0,-1.9546,-1.9629,0.0,0.0,0.0,0.0,0.0,0.0,0.0,0.0,0.0,0.0,0.0,0.0,0.0,-2.2501,-2.2835,-2.154,-2.0685,-2.0479,-2.1281,-2.1428,-2.0976,-2.1628,-2.1752,-2.1437,-2.1465,0.0,-2.1138,-2.3242,0.0,0.0,0.0,0.0,0.0,0.0,0.0,0.0,0.0,0.0,0.0,0.0,0.0,0.0,0.0,0.0,0.0,0.0,0.0,0.0,0.0,0.0,-3.1875,-3.2031,-3.2009,-3.21,-3.2767,-3.1675,-3.0687,-3.0833,-3.0582,-3.0432,0.0,0.0,0.0,0.0,0.0,0.0,-2.9608,-2.9024,-2.901,-2.9691,-2.9487,-2.9665,-3.055,-3.0542,-3.0566,-3.0662,-3.0675,-3.065,-3.0738,-3.1434,0.0,0.0,0.0,0.0,0.0,0.0,0.0,0.0,0.0,0.0,0.0,0.0,0.0,0.0,0.0,0.0,0.0,0.0,0.0,0.0,0.0,0.0,0.0,0.0,0.0,0.0,0.0,0.0,0.0,-2.0349,-1.9344,-1.8681,-1.9043,-1.9248,0.0,0.0,0.0,0.0,0.0,0.0,0.0,0.0,0.0,-2.5791,-2.4354,-2.3598,-2.3576,-2.2299,-2.1354,-2.1006,-2.1657,-2.1708,-2.1233,-2.1884,-2.1906,-2.1415,-2.1233,-2.0855,-2.0643,-2.2919,-2.3791,-2.3757,0.0,0.0,0.0,0.0,-2.4951,-2.516,-2.5506,-2.5678,-2.5668,-2.5616,0.0,0.0,0.0,0.0,0.0,0.0,0.0,-2.9769,-3.0803,-3.1329,-3.183,-3.2541,-3.2619,-3.2607,-3.2604,-3.1775,-3.1047,-3.1115,-3.1006,-3.0798,-3.056,-3.0791,0.0,0.0,0.0,-3.0216,-2.9831,-2.9551,-2.9475,-2.9816,-2.9843,-3.0047,-3.0482,-3.0582,-3.0585,-3.0585,-3.0675,-3.0698,-3.0698,-3.1373,-3.1453,0.0,0.0,0.0,0.0,0.0,0.0,0.0,0.0,0.0,0.0,0.0,0.0,0.0,0.0,0.0,0.0,0.0,0.0,0.0,0.0,0.0,0.0,0.0,0.0,0.0,0.0,0.0,0.0,-2.028,-1.9638,-1.8349,-1.8829,-1.9008,0.0,0.0,0.0,0.0,0.0,0.0,-2.5034,-2.4954,-2.5107,-2.5748,-2.4693,-2.4121,-2.3913,-2.272,-2.1904,-2.1467,-2.195,-2.1884,-2.135,-2.192,-2.1825,-2.1203,-2.1042,-2.0691,-2.0332,-2.2151,-2.334,-2.3914,-2.4584,-2.4982,-2.5168,-2.5361,-2.5543,-2.5675,-2.6187,-2.6392,-2.6351,-2.6123,-2.625,-2.6356,-2.6256,0.0,0.0,0.0,0.0,-2.8918,-3.0692,-3.1198,-3.1436,-3.2416,-3.2654,-3.2528,-3.2089,-3.1574,-3.1198,-3.1198,-3.1153,-3.0947,-3.0509,-3.0791,0.0,-3.0763,-3.0609,-3.0368,-3.0228,-3.0011,-2.9856,-2.9934,-3.0011,-3.0152,-3.0152,-3.0368,-3.0444,-3.0444,-3.0698,-3.0849,-3.0911,-3.1347,-3.1416,-3.1119,0.0,0.0,0.0,0.0,0.0,0.0,0.0,0.0,0.0,0.0,0.0,0.0,0.0,0.0,0.0,0.0,0.0,0.0,0.0,0.0,0.0,0.0,0.0,0.0,0.0,0.0,0.0,0.0,0.0,-1.9618,-1.9153,0.0,0.0,0.0,0.0,-2.2818,-2.2146,-2.2616,-2.5067,-2.4394,-2.4076,-2.4227,-2.3378,-2.3077,-2.3566,-2.2326,-2.1928,-2.2132,-2.2169,-2.2008,-2.1686,-2.2023,-2.1825,-2.1225,-2.1525,-2.1115,-2.0317,-2.116,-2.1738,-2.2158,-2.3211,-2.4221,-2.5178,-2.5178,-2.5533,-2.5885,-2.5906,-2.5916,-2.5978,-2.6403,-2.6237,-2.5962,-2.6325,-2.619,0.0,0.0,-2.8542,-2.8833,-3.0256,-3.0658,-3.0796,-3.1348,-3.1474,-3.1461,-3.1436,-3.1022,-3.0658,-3.0658,-3.0375,-3.0215,-3.0381,0.0,-3.0737,-3.0711,-3.0698,-3.0609,-3.0444,-3.0228,-3.0152,-3.0368,-3.0228,-3.0152,-3.0368,-3.0533,-3.0698,-3.0698,-3.0836,-3.1123,-3.1556,-3.1556,-3.1896,-3.2577,-3.2096,0.0,0.0,0.0,0.0,0.0,0.0,0.0,0.0,0.0,0.0,0.0,0.0,0.0,0.0,0.0,0.0,0.0,0.0,0.0,0.0,0.0,0.0,0.0,0.0,0.0,0.0,0.0,0.0,-1.9605,-1.9697,0.0,-1.9241,-2.0153,-2.1277,-2.2468,-2.2716,-2.3372,-2.4733,-2.4339,-2.4173,-2.4521,-2.3454,-2.3149,-2.3506,-2.2045,-2.1445,-2.1562,-2.1774,-2.1591,-2.1079,-2.1408,-2.1313,-2.0881,-2.0581,-2.0463,-2.0529,-2.1115,-2.1733,-2.2512,-2.4773,-2.5722,-2.5824,-2.6128,-2.6411,-2.6598,-2.6765,-2.6765,-2.6693,-2.6268,-2.5627,-2.4985,-2.5154,-2.5317,-2.5589,-2.6483,-2.7232,-2.802,-2.9597,-3.0171,-3.0653,-3.1597,-3.1805,-3.1703,-3.1347,-3.1118,-3.0877,-3.052,-3.0292,-3.0228,-3.0533,-3.0622,-3.0773,-3.0836,-3.0773,-3.0698,-3.0609,-3.0457,-3.0292,-3.0368,-3.0457,-3.0546,-3.0622,-3.0761,-3.0911,-3.0911,-3.0986,-3.1198,-3.1556,-3.185,-3.1951,-3.2124,-3.2139,-3.252,0.0,0.0,0.0,0.0,0.0,0.0,0.0,0.0,0.0,0.0,0.0,0.0,0.0,0.0,0.0,0.0,0.0,0.0,0.0,0.0,0.0,0.0,0.0,0.0,0.0,-2.0825,-2.0446,-2.0219,-2.0377,-2.0291,-1.98,-2.0795,-2.1719,-2.2506,-2.2525,-2.301,-2.4053,-2.3525,-2.3406,-2.3511,-2.2867,-2.2712,-2.2945,-2.1591,-2.1101,-2.1211,-2.1203,-2.0976,-2.0567,-2.0786,-2.0706,-2.0377,-1.9945,-2.0007,-2.0504,-2.1485,-2.2291,-2.3111,-2.5305,-2.6251,-2.64,-2.6805,-2.6996,-2.7061,-2.7086,-2.7024,-2.6879,-2.5958,-2.5254,-2.4747,-2.4753,-2.4871,-2.5115,-2.6008,-2.6588,-2.7324,-2.9112,-2.9794,-3.0236,-3.1236,-3.1329,-3.1099,-3.0714,-3.0637,-3.0535,-3.0226,-3.024,-3.0394,-3.0622,-3.0773,-3.0849,-3.0986,-3.0911,-3.0773,-3.0773,-3.0609,-3.0533,-3.0596,-3.0685,-3.0698,-3.0773,-3.0911,-3.0986,-3.0986,-3.0986,-3.1198,-3.1556,-3.1909,-3.2082,-3.211,-3.2081,-3.2245,-3.2544,0.0,0.0,0.0,0.0,0.0,0.0,0.0,0.0,0.0,0.0,0.0,0.0,0.0,0.0,0.0,0.0,0.0,0.0,0.0,0.0,0.0,0.0,0.0,-2.2019,-2.1578,-2.1194,-2.1318,-2.1242,-2.0941,-2.0372,-2.0566,-2.131,-2.2885,-2.1579,-2.1421,-2.2854,-2.2175,-2.1525,-2.1203,-2.1511,-2.1679,-2.1679,-2.1042,-2.0874,-2.1174,-2.0537,-2.023,-2.0223,-2.0223,-2.0055,-1.9869,-1.9861,-1.9979,-2.0285,-2.219,-2.3285,-2.389,-2.4688,-2.579,-2.69,-2.69,-2.7071,-2.7169,-2.6703,-2.6537,-2.6382,-2.5513,-2.5223,-2.5207,-2.5179,-2.4871,-2.4956,-2.6693,-2.6857,-2.6928,-2.8858,-2.9341,-2.9574,-3.019,-2.992,-2.9523,-2.951,-2.9523,-2.9609,-2.9731,-3.0297,-3.0698,-3.0698,-3.0836,-3.0986,-3.0986,-3.0986,0.0,-3.0986,-3.0862,-3.0786,-3.0986,-3.0862,-3.0786,-3.0986,-3.0986,-3.0986,-3.0986,-3.096,-3.1185,-3.1556,-3.1896,-3.2245,-3.2704,-3.1914,-3.1466,-3.1411,0.0,0.0,0.0,0.0,0.0,0.0,0.0,0.0,0.0,0.0,0.0,0.0,0.0,0.0,0.0,0.0,0.0,0.0,0.0,0.0,0.0,0.0,-2.071,-2.0655,-2.04,-2.0406,-2.0874,-2.1097,-2.1114,-2.0988,-2.1481,-2.1803,-2.2027,-2.1484,-2.1222,-2.1645,-2.1292,-2.0947,-2.0859,-2.1174,-2.1342,-2.1342,-2.0933,-2.0647,-2.0501,-2.0318,-2.0113,-1.9894,-1.9894,-2.0049,-2.037,-2.0732,-2.1383,-2.2207,-2.3971,-2.4973,-2.5489,-2.6091,-2.6602,-2.69,-2.7081,-2.7055,-2.6693,-2.6227,-2.5865,-2.5554,-2.5316,-2.5169,-2.52,-2.5243,-2.5527,-2.603,-2.6218,-2.6633,-2.7115,-2.7891,-2.8597,-2.9229,-2.9454,-2.9712,-2.98,-2.9457,-2.9691,-2.9978,-2.9978,-3.052,-3.0911,-3.0911,-3.0986,-3.0986,-3.0986,-3.0986,-3.0986,-3.0986,-3.1276,-3.1368,-3.1039,-3.1276,-3.1368,-3.1026,-3.0986,-3.0986,-3.0986,-3.0594,-3.069,-3.1542,-3.1288,-3.1622,-3.269,-3.2332,-3.2528,0.0,0.0,0.0,0.0,0.0,0.0,0.0,0.0,0.0,0.0,0.0,0.0,0.0,0.0,0.0,0.0,0.0,0.0,0.0,0.0,0.0,0.0,-2.0819,-2.1021,-2.0527,-2.0456,-2.0569,-2.0823,-2.1256,-2.1394,-2.1154,-2.1547,-2.1693,-2.1503,-2.1313,-2.1211,-2.1211,-2.1035,-2.0925,-2.0925,-2.1115,-2.1145,-2.1006,-2.0684,-2.0355,-2.0033,-1.9762,-1.9601,-1.9557,-1.9418,-1.9732,-2.0368,-2.0671,-2.1599,-2.302,-2.4285,-2.5169,-2.5928,0.0,0.0,0.0,0.0,-2.6517,-2.6216,-2.5761,-2.544,-2.5202,-2.5169,-2.5177,-2.5242,-2.5384,-2.565,-2.5935,-2.5828,-2.6187,-2.6736,-2.7006,-2.7932,-2.88,-2.8859,-2.913,-2.9314,-2.8974,-2.917,-2.9405,-2.9405,-3.0072,0.0,-3.062,-3.083,-3.0986,-3.0986,-3.0986,-3.1065,-3.1313,-3.164,-3.181,-3.1705,-3.1993,-3.1967,-3.1392,-3.1352,0.0,0.0,0.0,-3.0309,-3.081,-3.049,0.0,0.0,0.0,-3.2159,-3.2986,-3.3767,0.0,0.0,-3.5843,-3.6492,0.0,0.0,0.0,0.0,0.0,0.0,0.0,0.0,0.0,0.0,0.0,0.0,0.0,0.0,0.0,0.0,-2.1751,-2.1792,-2.1217,-2.1354,-2.131,-2.1159,-2.1445,-2.1511,-2.1189,-2.1218,-2.1247,-2.1325,-2.1318,-2.1303,-2.138,-2.138,0.0,0.0,0.0,-2.1163,-2.084,-2.0509,-2.0055,-1.9703,-1.9081,-1.8942,-1.9213,-1.9023,-1.9366,-2.0181,-2.0388,-2.1379,-2.3158,-2.3925,-2.4765,-2.5585,-2.6658,-2.6848,-2.6434,-2.5978,-2.5892,-2.583,-2.5384,0.0,0.0,-2.5253,-2.5253,-2.5292,-2.5702,-2.5525,-2.522,-2.5597,-2.5781,-2.5989,-2.6422,-2.7446,-2.8306,-2.8388,-2.8473,-2.8556,-2.849,-2.8529,-2.8582,-2.8582,-2.947,-3.0228,-3.0228,-3.066,-3.0986,-3.0986,-3.0986,-3.1196,-3.1771,-3.1901,-3.2136,-3.2633,-3.2751,0.0,-3.1901,-3.1759,-3.1588,-3.1013,-3.0516,-3.0145,-2.9811,-2.9977,-3.0363,-3.1005,-3.1072,-3.1263,-3.1696,-3.2768,-3.3529,-3.405,-3.567,-3.6383,0.0,0.0,0.0,0.0,0.0,0.0,0.0,0.0,0.0,0.0,0.0,0.0,0.0,0.0,0.0,-2.1268,-2.1695,-2.2102,-2.1894,-2.2348,-2.2235,-2.0957,-2.1101,-2.1181,-2.0852,-2.1298,-2.172,-2.1904,-2.1888,-2.1994,-2.2268,-2.226,-2.226,-2.226,-2.2534,-2.2286,-2.1382,-2.105,-2.0367,-1.9367,-1.8979,0.0,-1.8884,-1.931,-1.9968,-2.0814,-2.192,-2.2927,-2.3998,-2.4785,-2.5391,-2.5838,-2.6113,-2.6092,-2.5958,-2.5523,-2.5612,-2.5802,-2.5326,-2.5434,-2.5763,-2.5749,-2.5716,-2.5702,-2.5775,-2.5701,0.0,-2.5661,-2.5716,-2.5858,-2.6358,-2.7427,-2.8325,-2.8344,-2.9091,-2.9666,-2.9209,-2.947,-2.9797,-2.9797,-3.0346,-3.083,-3.083,-3.0908,-3.0986,-3.0986,-3.0986,-3.1196,-3.1771,-3.2241,-3.2568,-3.2685,-3.313,-3.2986,-3.185,-3.1759,-3.1588,-3.1013,-3.1167,-3.0844,-2.9851,-3.0812,-3.1488,-3.1626,-3.1929,-3.24,-3.296,-3.3596,-3.3965,-3.41,-3.529,-3.5795,0.0,0.0,0.0,0.0,0.0,0.0,0.0,0.0,0.0,0.0,0.0,-2.2408,0.0,0.0,-2.2017,-2.2045,-2.1946,-2.2026,-2.2071,-2.2113,-2.208,-2.1574,-2.175,-2.1788,-2.1612,-2.191,-2.2222,-2.2562,-2.1835,-2.1624,-2.1841,-2.1681,-2.1589,-2.1582,-2.2092,-2.1945,-2.1101,-2.0552,-1.9821,-1.9023,-1.884,-1.8783,-1.894,-1.9529,-2.0213,-2.105,-2.1745,-2.2912,-2.4231,-2.4961,-2.54,-2.5533,-2.5295,-2.5524,-2.5836,-2.5385,-2.5317,-2.5505,-2.5258,-2.5114,-2.5175,-2.5407,-2.5403,-2.5385,-2.5373,-2.5355,-2.5268,-2.5027,-2.5367,-2.5779,-2.5669,-2.7025,-2.8263,-2.7988,-2.8592,-2.9261,-2.9274,-2.9261,-2.9353,-2.964,-3.0163,-3.0555,-3.0555,-3.079,-3.0986,-3.0986,-3.0986,-3.1196,-3.1771,-3.2346,-3.2816,-3.3104,-3.3417,-3.3234,-3.2346,-3.1744,-3.1039,-3.0189,-3.0474,-3.0157,-2.8998,-2.9551,-3.0188,-3.0624,-3.0925,-3.1585,-3.2584,-3.3129,-3.3659,-3.407,-3.4677,-3.517,0.0,0.0,0.0,0.0,0.0,0.0,0.0,0.0,-2.2261,-2.2109,-2.1919,-2.1879,-2.2089,-2.2058,-2.2145,-2.2924,-2.2502,-2.2137,-2.2436,-2.2127,-2.2152,-2.2646,-2.2614,-2.2482,-2.2474,-2.2545,-2.2704,-2.2765,-2.1729,-2.1099,-2.1064,-2.1062,-2.0885,-2.0692,-2.1319,-2.1225,-2.0498,-1.9754,-1.9089,-1.8599,-1.8559,-1.8735,-1.8995,-1.9739,-2.0451,-2.1172,-2.1492,-2.2575,-2.406,-2.4785,-2.5099,-2.5057,-2.4771,-2.5188,-2.5808,-2.5338,-2.5236,-2.5234,-2.5234,-2.5007,-2.469,-2.506,-2.5071,-2.498,-2.4888,-2.4855,-2.4717,-2.4418,-2.5066,-2.5775,-2.5487,-2.6931,-2.8394,-2.8075,-2.8477,-2.9013,-2.951,-2.9222,-2.9026,-2.9523,-2.9993,-3.0294,-3.0294,-3.0686,-3.0986,-3.0986,-3.0986,-3.1196,-3.1771,-3.2241,-3.2764,-3.3352,-3.3417,-3.3169,-3.2581,-3.1651,-3.069,-2.9652,-2.9927,-2.9671,-2.8477,-2.8544,-2.8984,-2.9668,-3.0011,-3.0827,-3.1986,-3.2569,-3.3199,-3.3948,-3.4085,-3.4618,-2.9751,-2.8376,-2.6884,-2.4728,-2.418,-2.4282,0.0,0.0,-2.2046,-2.3051,-2.2179,-2.1641,-2.2852,-2.2735,-2.2634,-2.3223,-2.3335,-2.3263,-2.3306,-2.36,-2.3826,-2.3782,-2.2955,-2.2474,-2.2482,-2.2768,-2.2741,-2.2191,-2.2047,-2.1564,-2.084,-2.1249,-2.1437,-2.1139,-2.1391,-2.116,-2.0258,-1.9819,-1.9032,-1.7925,-1.8341,-1.8613,-1.8659,-2.0031,-2.085,-2.1255,-2.2658,-2.315,-2.3233,-2.42,-2.4623,-2.4612,-2.4967,-2.5412,-2.5804,-2.5391,-2.5402,-2.5742,-2.5742,-2.5656,-2.5549,-2.5638,-2.5306,-2.4917,-2.4923,-2.4613,-2.4349,-2.4728,-2.5324,-2.6067,-2.6967,-2.8164,-2.9259,-2.9727,-3.0299,-3.0712,-3.0777,-3.0738,-3.0712,-3.0777,-3.0843,-3.0895,-3.0895,-3.0947,-3.0986,-3.0986,-3.0986,-3.1196,-3.1771,-3.1901,-3.215,-3.2738,-3.279,-3.2555,-3.198,-3.1642,-3.1203,-3.0493,-3.1151,-3.1007,-2.9769,-3.0264,-3.0547,-3.0401,-3.1211,-3.1917,-3.2344,-3.2947,-3.3312,-3.3382,-3.3894,-3.4383,-2.5909,-2.4934,0.0,0.0,-2.2587,-2.3318,-2.3133,-2.2376,-2.1891,-2.2428,-2.2309,-2.2329,-2.287,-2.2978,-2.3193,0.0,-2.3287,-2.319,-2.319,-2.3321,-2.3554,-2.3829,-2.3487,-2.3118,-2.2681,-2.2886,-2.2652,-2.1851,-2.0521,-1.9562,-1.9167,-1.9435,-1.9393,-1.9045,-1.9968,-2.0147,-1.9599,-1.8874,-1.8476,-1.8303,-1.8581,-1.8855,-1.9244,-2.0483,-2.1403,-2.2005,-2.3082,-2.3395,-2.3389,-2.4181,-2.454,-2.454,-2.4711,-2.5041,-2.5538,-2.5863,-2.6062,-2.6223,-2.6223,-2.5778,-2.5245,-2.5245,-2.4912,-2.4499,-2.4499,-2.4361,-2.4365,-2.523,-2.5879,-2.6521,-2.7653,-2.88,-2.9681,-2.9599,-2.9826,-3.0085,-3.0424,-3.0228,-3.0189,-3.0856,-3.0986,-3.1061,-3.1347,-3.1347,-3.1421,-3.1629,-3.1272,-3.1065,-3.1313,-3.164,-3.194,-3.2176,-3.2202,-3.1967,-3.1392,-3.1101,-3.0738,-3.0153,-3.046,-3.0342,-2.9486,-2.9525,-2.9604,-2.9678,-2.9982,-3.0419,-3.0971,-3.1582,-3.2025,-3.2258,-3.2868,-3.3355,-2.2263,0.0,0.0,-2.0387,-2.1214,-2.2259,-2.173,-2.1901,-2.2061,-2.1826,-2.2553,-2.32,-2.3009,-2.3271,-2.3538,-2.3466,-2.3038,-2.2736,-2.3046,-2.2837,-2.284,-2.3431,-2.3554,-2.309,-2.1964,-2.252,-2.2336,-2.1016,-1.925,-1.7958,-1.7552,-1.7667,-1.7681,-1.7448,-1.8542,-1.9033,-1.8875,-1.8075,-1.7875,-1.8255,-1.8575,-1.9012,-1.9387,-2.0678,-2.1691,-2.2528,-2.3075,-2.3367,-2.359,-2.4196,-2.454,-2.454,-2.4625,-2.4871,-2.5285,-2.6196,-2.6389,-2.6303,-2.6462,-2.5876,-2.513,-2.513,-2.49,-2.4613,-2.4613,-2.4613,-2.4791,-2.5812,-2.659,-2.7288,-2.828,-2.9302,-2.9985,-2.973,-2.9624,-2.9666,-3.0241,-3.0045,-2.9993,-3.083,-3.0986,-3.1061,-3.1421,-3.1556,-3.1629,-3.1776,-3.1408,-3.1198,-3.1198,-3.1428,-3.1601,-3.1601,-3.1601,-3.1431,-3.1163,-3.1096,-3.0753,-3.0142,-3.028,-3.0016,-2.9253,-2.8908,-2.8908,-2.9226,-2.9222,-2.9522,-3.0127,-3.0752,-3.1205,-3.1499,-3.2117,-3.2791,0.0,0.0,-2.0205,-1.9453,-2.0104,-2.0972,-2.1144,-2.2011,-2.2554,-2.1948,-2.2855,-2.3747,-2.3693,-2.3664,-2.3664,-2.37,-2.2601,-2.2106,-2.3247,-2.2417,-2.1903,-2.2443,-2.2656,-2.1932,0.0,-2.1604,-2.1751,-1.9154,-1.8658,-1.7754,-1.6101,-1.6733,-1.7164,-1.7233,-1.7633,-1.7991,-1.8299,-1.7662,-1.734,-1.734,-1.8365,-1.8827,-1.8835,-2.0247,-2.1447,-2.251,-2.287,-2.3188,-2.359,-2.4196,-2.454,-2.454,-2.5031,-2.52,-2.5285,-2.6196,-2.6225,-2.5902,-2.6303,-2.6129,-2.5693,-2.5693,-2.5681,-2.567,-2.567,-2.567,-2.5773,-2.6357,-2.7335,-2.8381,-2.8922,-2.9543,-3.022,-3.083,-3.0529,-3.0268,-3.083,-3.0947,-3.0947,-3.0973,-3.0986,-3.0986,-3.0986,-3.1347,-3.1482,-3.1061,-3.1347,-3.1556,-3.1556,-3.1299,-3.1013,-3.1013,-3.1013,-3.1149,-3.1556,-3.1896,-3.1741,-3.091,-3.1244,-3.0895,-2.9659,-2.9289,-2.9226,-2.9602,-2.9822,-3.0127,-3.0465,-3.1176,-3.1485,-3.1499,-3.2117,-3.2978,0.0,0.0,-1.9585,-1.9473,-2.0524,-2.166,-2.2331,-2.2737,-2.3122,-2.3583,-2.3489,-2.3454,-2.3873,-2.3664,-2.326,-2.2976,-2.2184,-2.1794,-2.2005,-2.1073,-2.0554,-2.1057,-2.0964,0.0,0.0,0.0,0.0,-1.8138,-1.7123,-1.6229,-1.5395,-1.6135,-1.6475,-1.6362,-1.7498,-1.8086,-1.7984,-1.7765,-1.7734,-1.78,-1.8819,-1.9594,-2.0222,-2.0721,-2.1578,-2.2879,-2.2922,-2.3436,-2.4196,-2.4368,-2.454,-2.454,-2.4711,-2.47,-2.4786,-2.5443,-2.5514,-2.555,-2.6642,-2.6474,-2.5814,-2.613,-2.598,-2.5716,-2.5716,-2.5716,-2.5896,-2.6863,-2.7681,-2.8558,-2.9412,-3.0215,-3.066,-3.0464,-3.0281,-3.0189,-3.0385,-3.0424,-3.0529,-3.0908,-3.0986,-3.1061,-3.1347,-3.1482,-3.1703,-3.2055,-3.1629,-3.1198,-3.1198,-3.1061,-3.0986,-3.0986,-3.1272,-3.1408,-3.1556,-3.1762,-3.1791,-3.1516,-3.1495,-3.1302,-3.0881,-3.0109,-2.9822,-3.0207,-2.9692,-2.9595,-2.9912,-3.0136,-3.0425,-3.0691,-3.1434,-3.2348,0.0,-1.6638,-1.8406,-1.9243,-2.0399,-2.1643,-2.2642,-2.3393,-2.4039,-2.447,-2.4342,-2.4115,-2.4288,-2.3451,-2.2453,-2.1892,-2.0923,-2.0287,-2.0387,-1.9479,-1.895,-1.959,-1.9412,-1.8882,0.0,0.0,0.0,-1.718,-1.6006,-1.5376,-1.547,-1.5902,-1.6227,-1.6423,-1.7541,-1.8028,-1.7816,-1.7816,-1.8035,-1.8365,-1.9004,-1.9845,-2.0874,-2.0737,-2.1559,-2.3038,-2.2886,-2.3467,-2.454,-2.454,-2.454,-2.454,-2.454,-2.454,-2.454,-2.5031,-2.5115,-2.5115,-2.6456,-2.6583,-2.6161,-2.6576,-2.6519,-2.6255,-2.6255,-2.6255,-2.6403,-2.7112,-2.7969,-2.8728,-2.9474,-3.0202,-3.0634,-3.0477,-3.0281,-3.0189,-3.0398,-3.0438,-3.0555,-3.0908,-3.0986,-3.1061,-3.1347,-3.1421,-3.1629,-3.2345,-3.1776,-3.1347,-3.1556,-3.1482,-3.1421,-3.1421,-3.1629,-3.185,-3.1982,-3.2061,-3.2111,-3.2041,-3.1884,-3.1612,-3.1162,-3.0546,-3.016,-3.0207,-2.9624,-2.9352,-2.9602,-2.9602,-2.9789,-3.005,-3.0785,-3.169,-1.5193,-1.5905,-1.6975,-1.8835,-1.9977,-2.0961,-2.2146,-2.3919,-2.5145,-2.4529,-2.5105,-2.5436,0.0,0.0,-2.132,-2.0529,-1.8812,-1.7811,-1.858,-1.7803,-1.7427,0.0,0.0,0.0,0.0,0.0,0.0,-1.6217,-1.5551,-1.5416,-1.6205,-1.5973,-1.6361,-1.7408,-1.7682,-1.7845,-1.7816,-1.7801,-1.8115,-1.8735,-1.8827,-1.9467,-2.084,-2.0463,-2.1301,-2.2991,-2.2574,-2.3202,-2.454,-2.454,-2.454,-2.454,-2.454,-2.454,-2.454,-2.5031,-2.4871,-2.4711,-2.5946,-2.6445,-2.6528,-2.6974,-2.7149,-2.7149,-2.7149,-2.7149,-2.7231,-2.7231,-2.8075,-2.9081,-2.9081,-2.9644,-3.032,-3.0856,-3.0568,-3.032,-3.0869,-3.0986,-3.0986,-3.0986,-3.0986,-3.0986,-3.0986,-3.0986,-3.1272,-3.1982,-3.185,-3.1909,-3.2561,-3.2345,-3.2128,-3.2128,-3.2128,-3.2273,-3.2704,-3.2704,-3.2681,-3.2483,-3.2455,-3.1907,-3.067,-3.0586,-3.0291,-2.9673,-2.9631,-2.9602,-2.9602,-2.9602,-2.9602,-2.9679,-3.0277,-3.1117,-1.4813,-1.6488,-1.81,-1.8614,-2.0355,-2.2029,-2.2521,-2.3262,-2.4104,-2.4929,-2.4133,-2.3436,0.0,0.0,0.0,-2.0306,-1.8874,0.0,-1.7529,-1.6814,0.0,-1.6823,0.0,-1.6137,-1.5992,-1.497,0.0,-1.4691,-1.4759,-1.5068,-1.5998,-1.6317,-1.6788,-1.7435,-1.821,-1.8306,-1.7816,-1.7574,-1.7695,-1.8272,-1.8643,-1.9244,-1.9971,-2.0152,-2.114,-2.2555,-2.2441,-2.3202,-2.454,-2.454,-2.454,-2.454,-2.454,-2.454,-2.454,-2.4615,-2.4625,-2.4625,-2.5285,-2.5527,-2.5622,-2.6063,-2.6467,-2.6704,-2.6704,-2.688,-2.7231,-2.7231,-2.8075,-2.9081,-2.9081,-2.9923,-3.0803,-3.0947,-3.0869,-3.0803,-3.096,-3.0986,-3.0986,-3.0986,-3.0986,-3.0986,-3.0986,-3.1272,-3.1629,-3.2055,-3.2273,-3.2417,-3.2273,-3.2128,-3.2128,-3.2128,-3.2345,-3.2561,-3.2704,-3.3002,-3.3115,-3.3101,-3.3087,-3.2736,-3.1963,-3.1485,-3.0951,-3.0305,-2.9841,-2.9602,-2.9602,-2.9602,-2.9789,-3.0172,-3.092,-3.1982,-1.5221,-1.6337,-1.7611,-1.8842,-2.0276,-2.1605,-2.2232,-2.3086,-2.3985,-2.4768,-2.3709,0.0,0.0,0.0,0.0,0.0,0.0,0.0,-1.6135,-1.5529,-1.5311,0.0,-1.537,0.0,-1.5345,-1.4366,-1.3811,-1.384,-1.3751,-1.4221,-1.5593,-1.5479,-1.6015,-1.7462,-1.7754,-1.7951,-1.8028,-1.756,-1.7688,-1.8308,-1.8435,-1.8735,-1.9279,-1.9737,-2.0718,-2.2129,-2.2306,-2.3202,-2.454,-2.454,-2.454,-2.454,-2.454,-2.454,-2.454,-2.454,-2.454,-2.454,-2.4786,-2.4871,-2.5041,-2.5644,-2.6052,-2.629,-2.6445,-2.6693,-2.6962,-2.7464,-2.8315,-2.916,-2.9406,-3.0266,-3.0986,-3.0986,-3.0986,-3.0986,-3.0986,-3.0986,-3.0986,-3.0986,-3.0986,-3.1061,-3.1198,-3.1408,-3.1776,-3.2273,-3.2561,-3.2704,-3.2646,-3.266,-3.266,-3.266,-3.2803,-3.2931,-3.2931,-3.3171,-3.3326,-3.3326,-3.3326,-3.3045,-3.2426,-3.1822,-3.119,-3.053,-2.9926,-2.9602,-2.9602,-2.9602,-2.9868,-3.0387,-3.1112,-3.2144,-1.5896,-1.6166,-1.6571,-1.8938,-1.9958,-2.0595,-2.1691,-2.3012,-2.4004,-2.4125,0.0,-2.2683,-2.2544,-2.0382,-1.8056,-1.658,0.0,-1.4688,-1.4287,-1.4117,-1.4182,-1.4764,-1.4607,-1.4445,-1.4471,-1.3809,-1.3254,-1.3048,-1.2549,-1.3062,-1.5151,-1.4287,-1.4843,-1.7251,-1.7036,-1.7246,-1.8174,-1.7699,-1.7749,-1.8426,-1.827,-1.8319,-1.8735,-1.9279,-2.0266,-2.1695,-2.2129,-2.3105,-2.454,-2.454,-2.454,-2.454,-2.454,-2.454,-2.454,-2.454,-2.454,-2.454,-2.454,-2.454,-2.4625,-2.5475,-2.5822,-2.5979,-2.629,-2.6528,-2.6775,-2.7926,-2.8621,-2.9238,-2.9871,-3.0508,-3.0986,-3.0986,-3.0986,-3.0986,-3.0986,-3.0986,-3.0986,-3.0986,-3.0986,-3.1136,-3.1482,-3.1556,-3.185,-3.2489,-3.2704,-3.286,-3.3241,-3.3326,-3.3326,-3.3326,-3.3326,-3.3326,-3.3326,-3.3326,-3.3255,-3.3241,-3.3171,-3.2918,-3.2232,-3.1682,-3.1064,-3.0417,-2.9883,-2.9602,-2.9602,-2.9687,-3.001,-3.0644,-3.126,-3.2188,-1.5597,-1.6723,-1.7751,-1.7657,-1.9285,-2.109,-2.149,-2.1756,0.0,0.0,0.0,-2.217,-2.2635,-2.0675,0.0,-1.7124,0.0,0.0,0.0,0.0,-1.3419,0.0,0.0,0.0,0.0,-1.2593,0.0,-1.1638,-1.1082,-1.1801,-1.4322,-1.4082,-1.4843,-1.6752,-1.7327,-1.7618,-1.7501,-1.7918,-1.7889,-1.7507,-1.821,-1.8456,-1.8272,-1.8735,-1.9903,-2.1695,-2.1784,-2.2853,-2.454,-2.454,-2.454,-2.454,-2.454,-2.454,-2.454,-2.454,-2.454,-2.454,-2.454,-2.454,-2.454,-2.4711,-2.5306,-2.5895,-2.5979,-2.6479,-2.7219,-2.8018,-2.8621,-2.9238,-2.9871,-3.0508,-3.0986,-3.0986,-3.0986,-3.0986,-3.0986,-3.0986,-3.0986,-3.0986,-3.0986,-3.0986,-3.1061,-3.1421,-3.1776,-3.2128,-3.2489,-3.286,-3.3241,-3.3326,-3.3326,-3.3326,-3.3326,-3.3326,-3.3326,-3.3326,-3.3171,-3.286,-3.2626,-3.2136,-3.1223,-3.0825,-3.0389,-2.9785,-2.9659,-2.9602,-2.9602,-3.0122,-3.0609,-3.1166,-3.2357,-3.3475,-1.5816,-1.6732,-1.7581,-1.7573,-1.9118,-2.0613,-2.0635,0.0,0.0,0.0,0.0,-2.0957,-2.12,0.0,0.0,0.0,0.0,0.0,0.0,0.0,0.0,0.0,0.0,0.0,0.0,-1.2028,-1.1269,-1.1269,-1.0864,-1.139,-1.3028,-1.443,-1.5505,-1.6058,-1.723,-1.7904,-1.8086,-1.8064,-1.7977,-1.7838,-1.8111,-1.8028,-1.7707,-1.8179,-1.9263,-2.0791,-2.1427,-2.2589,-2.4024,-2.4368,-2.454,-2.454,-2.454,-2.454,-2.454,-2.454,-2.454,-2.454,-2.454,-2.454,-2.454,-2.454,-2.4967,-2.5549,-2.5812,-2.6313,-2.7115,-2.8303,-2.8858,-2.9316,-3.0266,-3.0748,-3.0986,-3.0986,-3.0986,-3.0986,-3.0986,-3.0986,-3.0986,-3.0986,-3.0986,-3.1061,-3.1272,-3.1482,-3.1776,-3.2345,-3.2561,-3.286,-3.3241,-3.3326,-3.3326,-3.3326,-3.3086,-3.3086,-3.3241,-3.3086,-3.3002,-3.3016,-3.2597,-3.219,-3.1678,-3.089,-3.0375,-3.008,-3.008,-3.008,-3.008,-3.0942,-3.1668,-3.2335,-3.346,-3.4509,-1.6103,-1.6708,-1.7507,-1.7836,-1.9057,-2.0186,-2.0033,-2.0911,0.0,0.0,-2.0756,-2.0198,-1.9755,0.0,0.0,0.0,0.0,0.0,0.0,0.0,0.0,0.0,0.0,0.0,0.0,-1.1603,0.0,-1.1106,-1.1028,-1.1346,-1.2139,-1.4594,-1.5875,-1.5473,-1.6994,-1.8028,-1.8474,-1.8108,-1.7977,-1.8094,-1.7904,-1.7647,-1.7326,-1.7707,-1.8619,-1.9977,-2.0881,-2.2148,-2.3503,-2.411,-2.4368,-2.454,-2.454,-2.454,-2.454,-2.454,-2.454,-2.454,-2.454,-2.454,-2.454,-2.454,-2.4871,-2.5454,-2.5812,-2.6218,-2.7021,-2.8609,-2.9081,-2.9394,-3.0672,-3.0986,-3.0986,-3.0986,-3.0986,-3.0986,-3.0986,-3.0986,-3.0986,-3.0986,-3.0986,-3.1136,-3.1421,-3.1482,-3.1703,-3.2345,-3.2489,-3.2632,-3.3016,-3.31,-3.3171,-3.303,-3.2931,-3.2931,-3.3157,-3.2931,-3.286,-3.3016,-3.2666,-3.233,-3.2261,-3.1124,-3.053,-3.053,-3.053,-3.0594,-3.0644,-3.1847,-3.2804,-3.3573,-3.4528,-3.5332,-1.5992,-1.732,-1.8606,-1.7911,-1.8935,-2.0248,-2.0443,0.0,0.0,-2.0772,-2.0902,-2.0586,-1.9348,-1.8076,0.0,0.0,0.0,0.0,0.0,0.0,0.0,0.0,0.0,0.0,0.0,-1.0966,-1.0469,-1.0301,-1.1035,-1.1635,-1.2021,-1.4033,-1.5191,-1.5185,-1.6889,-1.7699,-1.7465,-1.7991,-1.7969,-1.7421,-1.7691,-1.7647,-1.7326,-1.7326,-1.8334,-1.9894,-1.9985,-2.1329,-2.3503,-2.359,-2.3937,-2.454,-2.454,-2.454,-2.454,-2.454,-2.454,-2.454,-2.454,-2.454,-2.454,-2.454,-2.5137,-2.5812,-2.5906,-2.6479,-2.7371,-2.87,-2.9081,-2.9394,-3.0672,-3.0986,-3.0986,-3.0986,-3.0986,-3.0986,-3.0986,-3.0986,-3.0986,-3.0986,-3.0986,-3.0986,-3.1061,-3.1061,-3.1198,-3.1629,-3.1703,-3.185,-3.22,-3.2561,-3.2632,-3.2273,-3.2803,-3.3086,-3.2775,-3.3086,-3.2945,-3.2273,-3.2305,-3.2261,-3.1875,-3.0978,-3.053,-3.053,-3.053,-3.0772,-3.12,-3.2501,-3.363,-3.466,-3.5326,-3.5897,-1.6169,-1.7007,-1.7913,-1.7811,-1.8932,-2.016,-2.0566,0.0,0.0,-2.0931,-2.0548,-1.9787,-1.8501,-1.6986,-1.5263,0.0,0.0,0.0,0.0,0.0,0.0,0.0,0.0,0.0,0.0,0.0,-1.0342,-1.0577,-1.1728,-1.2658,-1.3084,-1.4908,-1.6024,-1.6353,-1.7449,-1.805,-1.7918,-1.7977,-1.7882,-1.7625,-1.7757,-1.7838,-1.78,-1.78,-1.8535,-1.972,-2.0175,-2.1248,-2.2862,-2.3319,-2.3937,-2.454,-2.454,-2.454,-2.454,-2.454,-2.454,-2.454,-2.454,-2.454,-2.454,-2.454,-2.5137,-2.5895,-2.5895,-2.6479,-2.7464,-2.8779,-2.9081,-2.9394,-3.0672,-3.0986,-3.0986,-3.0986,-3.0986,-3.0986,-3.0986,-3.0986,-3.0986,-3.0986,-3.0986,-3.0986,-3.0986,-3.0986,-3.1123,-3.1556,-3.1629,-3.1703,-3.2055,-3.2273,-3.2273,-3.2128,-3.2102,-3.2095,-3.2151,-3.2095,-3.2179,-3.2249,-3.2038,-3.1783,-3.1634,-3.0563,-3.0263,-3.0948,-3.1397,-3.204,-3.2898,-3.413,-3.4912,-3.5374,-3.59,-3.6289,-1.6235,-1.6913,-1.7553,-1.7683,-1.8642,-1.9752,0.0,0.0,0.0,-2.0639,-2.0219,-1.9289,-1.7524,-1.6177,-1.4758,0.0,0.0,0.0,0.0,0.0,0.0,0.0,0.0,-1.1654,-1.1733,-1.142,-1.1444,-1.2083,-1.2946,-1.384,-1.4894,-1.6131,-1.6852,-1.7076,-1.776,-1.8108,-1.8013,-1.7786,-1.7669,-1.7669,-1.7669,-1.7836,-1.8087,-1.8087,-1.8635,-1.9637,-2.0275,-2.1248,-2.2482,-2.3222,-2.3937,-2.454,-2.454,-2.454,-2.454,-2.454,-2.454,-2.454,-2.454,-2.454,-2.454,-2.4615,-2.5221,-2.5895,-2.6052,-2.6644,-2.7464,-2.8779,-2.9406,-2.9871,-3.0748,-3.0986,-3.0986,-3.0986,-3.0986,-3.0986,-3.0986,-3.0986,-3.0986,-3.0986,-3.0986,-3.0986,-3.0986,-3.0986,-3.1136,-3.1421,-3.1482,-3.1703,-3.1909,-3.2128,-3.22,-3.2128,-3.1755,-3.1539,-3.1703,-3.1717,-3.1871,-3.2305,-3.2136,-3.2033,-3.2033,-3.1007,-3.0821,-3.1632,-3.222,-3.3056,-3.3982,-3.5164,-3.5752,-3.5958,-3.6289,-3.6492,-1.6104,-1.7084,-1.8071,-1.7777,-1.8255,-1.9049,0.0,0.0,0.0,-1.9782,-1.9886,-1.9405,-1.6741,-1.6008,-1.5343,-1.4094,0.0,0.0,0.0,0.0,0.0,0.0,0.0,-1.3517,-1.3981,-1.3613,-1.3844,-1.4854,-1.4508,-1.5224,-1.7417,-1.7495,-1.7264,-1.6766,-1.743,-1.7662,-1.734,-1.7333,-1.7333,-1.7333,-1.7333,-1.7613,-1.8087,-1.8087,-1.8635,-1.9637,-2.0275,-2.1248,-2.2482,-2.3222,-2.3937,-2.454,-2.454,-2.454,-2.454,-2.454,-2.454,-2.454,-2.454,-2.454,-2.454,-2.5031,-2.5549,-2.5979,-2.6373,-2.6798,-2.7464,-2.8779,-3.0037,-3.0986,-3.0986,-3.0986,-3.0986,-3.0986,-3.0986,-3.0986,-3.0986,-3.0986,-3.0986,-3.0986,-3.0986,-3.0986,-3.0986,-3.0986,-3.0986,-3.0986,-3.1347,-3.1629,-3.1629,-3.2273,-3.2561,-3.2128,-3.1981,-3.1801,-3.1649,-3.2259,-3.2547,-3.2114,-3.286,-3.3297,-3.3297,-3.2707,-3.2384,-3.2384,-3.2911,-3.3493,-3.3982,-3.5164,-3.5958,-3.6492,-3.6492,-3.6492,-1.8064,-1.7766,-1.7311,-1.765,-1.845,-1.9402,-2.0305,0.0,0.0,-2.058,-2.0631,-1.9877,-1.721,-1.656,-1.6082,-1.4638,0.0,0.0,0.0,0.0,0.0,0.0,0.0,-1.3911,0.0,-1.3911,-1.4022,-1.4228,-1.4941,-1.5816,-1.6897,-1.7709,-1.7987,-1.7767,-1.8047,-1.7882,-1.7333,-1.7326,-1.7326,-1.7326,-1.7326,-1.7613,-1.8087,-1.8087,-1.8635,-1.9637,-2.0275,-2.1248,-2.2482,-2.3222,-2.3937,-2.454,-2.454,-2.454,-2.454,-2.454,-2.454,-2.454,-2.454,-2.454,-2.4625,-2.5031,-2.5549,-2.5979,-2.6362,-2.6798,-2.7464,-2.8779,-3.0037,-3.0986,-3.0986,-3.0986,-3.0986,-3.0986,-3.0986,-3.0986,-3.0986,-3.0986,-3.0986,-3.0986,-3.0986,-3.0986,-3.0986,-3.1198,-3.1347,-3.1061,-3.1556,-3.185,-3.1629,-3.1982,-3.2273,-3.2128,-3.2037,-3.199,-3.1758,-3.1969,-3.2194,-3.2333,-3.2541,-3.2693,-3.2693,-3.2117,-3.2164,-3.2911,-3.3493,-3.4218,-3.5179,-3.5915,-3.6352,-3.6492,-3.6492,-3.6492,0.0,-1.8214,-1.7479,-1.7751,-1.8387,0.0,0.0,0.0,0.0,0.0,0.0,-2.0778,-1.8619,-1.8145,-1.7662,-1.6402,0.0,0.0,0.0,0.0,0.0,0.0,0.0,0.0,-1.5181,-1.5194,-1.5217,-1.5169,-1.59,-1.6478,-1.6971,-1.7867,-1.8405,-1.8296,-1.8265,-1.7991,-1.7333,-1.745,-1.745,-1.7326,-1.7457,-1.792,-1.8627,-1.8627,-1.9355,-2.0628,-2.1177,-2.1971,0.0,-2.3493,-2.4024,-2.454,-2.454,-2.454,-2.454,-2.454,-2.454,-2.454,-2.454,-2.454,-2.4625,-2.5211,-2.5884,-2.6479,-2.6715,-2.7278,-2.8075,-2.8858,-3.0037,-3.0986,-3.0986,-3.0986,-3.0986,-3.0986,-3.0986,-3.0986,-3.0986,-3.0986,-3.0986,-3.0986,-3.0986,-3.0986,-3.0986,-3.1347,-3.1482,-3.1272,-3.185,-3.2273,-3.2055,-3.2359,-3.2574,-3.2574,-3.2574,-3.2494,-3.2403,-3.2235,-3.2305,-3.2514,-3.268,-3.275,-3.275,-3.2384,-3.2492,-3.32,-3.3974,-3.4673,-3.5415,-3.6163,-3.6492,-3.6492,-3.6492,-3.6492,0.0,0.0,0.0,0.0,0.0,0.0,0.0,0.0,0.0,0.0,0.0,0.0,0.0,0.0,0.0,-1.8988,0.0,0.0,0.0,0.0,0.0,0.0,-1.7261,0.0,-1.7208,-1.7181,-1.7181,-1.7181,-1.7096,-1.7264,-1.7592,-1.8076,-1.8375,-1.8397,-1.8404,-1.8035,-1.7406,-1.7699,-1.7699,-1.7493,-1.7794,-1.8517,-1.9571,-1.9571,-2.0456,-2.2059,-2.252,-2.3057,-2.3503,-2.4024,-2.4292,-2.454,-2.454,-2.454,-2.454,-2.454,-2.454,-2.454,-2.454,-2.454,-2.4625,-2.5559,-2.6479,-2.7231,-2.7231,-2.8087,-2.9003,-2.9081,-2.9947,-3.0911,-3.0986,-3.0986,-3.0986,-3.0986,-3.0986,-3.0986,-3.0986,-3.0986,-3.0986,-3.0986,-3.0986,-3.0986,-3.0986,-3.1347,-3.1556,-3.1556,-3.22,-3.2704,-3.2632,-3.3016,-3.3326,-3.3326,-3.3326,-3.3326,-3.3326,-3.2945,-3.2775,-3.2775,-3.3086,-3.3326,-3.3326,-3.3326,-3.3326,-3.3326,-3.4303,-3.4876,-3.4942,-3.5958,-3.6492,-3.6492,-3.6492,-3.6492,0.0,0.0,0.0,0.0,0.0,0.0,0.0,0.0,0.0,0.0,0.0,0.0,0.0,0.0,0.0,0.0,0.0,0.0,0.0,0.0,0.0,-1.7702,-1.7642,-1.7555,-1.7488,-1.7482,-1.7482,-1.7482,-1.7103,-1.7144,-1.7887,-1.7782,-1.7938,-1.8389,-1.8622,-1.8482,-1.8079,-1.8145,-1.8529,-1.9302,-1.938,-1.9805,-2.0584,-2.0584,-2.0798,-2.1257,-2.1961,-2.2589,-2.3232,-2.3937,-2.4292,-2.454,-2.454,-2.454,-2.454,-2.454,-2.454,-2.454,-2.454,-2.454,-2.4625,-2.5559,-2.6479,-2.7231,-2.7231,-2.7777,-2.8474,-2.8937,-2.9639,-3.0355,-3.0911,-3.0986,-3.0986,-3.0986,-3.0986,-3.0986,-3.0986,-3.0986,-3.0986,-3.0986,-3.0986,-3.0986,-3.0986,-3.1347,-3.1482,-3.1198,-3.2055,-3.2561,-3.2273,-3.2874,-3.3326,-3.3326,-3.3326,-3.3326,-3.3326,-3.3241,-3.3171,-3.3171,-3.3241,-3.3326,-3.3326,-3.3326,-3.3326,-3.3326,-3.3962,-3.4677,-3.5479,-3.5752,-3.6085,-3.6492,-3.6492,-3.6492,0.0,0.0,0.0,0.0,0.0,0.0,0.0,0.0,0.0,0.0,0.0,0.0,0.0,0.0,0.0,0.0,0.0,0.0,0.0,0.0,0.0,-1.8023,-1.7882,-1.7853,-1.7995,-1.788,-1.7745,-1.761,-1.7427,-1.7407,-1.7804,-1.8051,-1.833,-1.8611,-1.8913,-1.8782,-1.8306,-1.8452,-1.9033,-1.9925,-1.9836,-2.0413,-2.1538,-2.1361,-2.1626,-2.2157,-2.2501,-2.3038,-2.3677,-2.4024,-2.4292,-2.454,-2.454,-2.454,-2.454,-2.454,-2.454,-2.454,-2.454,-2.4796,-2.5221,-2.5968,-2.6644,-2.7231,-2.7231,-2.7464,-2.7926,-2.8858,-2.9793,-3.0508,-3.0911,-3.0986,-3.0986,-3.0986,-3.0986,-3.1052,-3.1313,-3.1378,-3.1378,-3.1378,-3.1378,-3.13,-3.1026,-3.1482,-3.1776,-3.1556,-3.2359,-3.2874,-3.266,-3.303,-3.3326,-3.3326,-3.3326,-3.3326,-3.3326,-3.3326,-3.3326,-3.3326,-3.3326,-3.3326,-3.3326,-3.3326,-3.3452,-3.3632,-3.3948,-3.4476,-3.535,-3.5559,-3.5816,-3.6163,-3.6367,-3.6492,0.0,0.0,0.0,0.0,0.0,0.0,0.0,0.0,0.0,0.0,0.0,0.0,0.0,0.0,0.0,0.0,0.0,0.0,0.0,0.0,0.0,-1.8285,-1.8231,-1.8349,-1.8562,-1.8342,-1.8067,-1.7764,-1.7936,-1.7963,-1.7757,-1.8469,-1.8819,-1.8869,-1.9175,-1.9111,-1.8751,-1.8824,-1.9313,-2.0273,-2.0289,-2.1024,-2.2639,-2.2305,-2.2634,-2.3503,-2.3503,-2.3764,-2.4206,-2.4206,-2.4292,-2.454,-2.454,-2.454,-2.454,-2.454,-2.454,-2.454,-2.4625,-2.5211,-2.6063,-2.6362,-2.6798,-2.7231,-2.7231,-2.7313,-2.7557,-2.8718,-2.9842,-3.0738,-3.107,-3.1096,-3.1172,-3.1248,-3.1248,-3.1378,-3.1862,-3.1901,-3.1798,-3.1954,-3.1901,-3.1795,-3.1389,-3.1896,-3.2372,-3.2291,-3.2869,-3.3269,-3.3255,-3.3241,-3.3326,-3.3326,-3.3326,-3.3326,-3.3326,-3.3326,-3.3326,-3.3326,-3.3326,-3.3326,-3.3326,-3.3326,-3.3577,-3.407,-3.407,-3.4409,-3.5008,-3.5479,-3.5752,-3.5816,-3.6289,-3.6492,-2.5463,0.0,0.0,0.0,0.0,0.0,0.0,0.0,0.0,0.0,0.0,0.0,0.0,0.0,0.0,0.0,0.0,0.0,0.0,0.0,-1.9234,-1.9444,-1.9285,-1.9129,-1.8912,-1.8742,-1.8582,-1.8276,-1.8163,-1.8032,-1.8241,-1.837,-1.8597,-1.8862,-1.9175,-1.9731,-2.0523,-1.9678,-2.0177,-2.2113,-2.2113,-2.2832,-2.4123,-2.4248,-2.4008,-2.3503,-2.3667,-2.3927,-2.4206,-2.4206,-2.4292,-2.454,-2.454,-2.454,-2.454,-2.454,-2.454,-2.454,-2.4956,-2.5695,-2.6445,-2.6445,-2.6798,-2.7231,-2.7231,-2.7626,-2.8182,-2.876,-2.9042,-2.9557,-3.1183,-3.1563,-3.1724,-3.2267,-3.2437,-3.245,-3.2542,-3.2176,-3.198,-3.2463,-3.2473,-3.2478,-3.2877,-3.3342,-3.3498,-3.2996,-3.3271,-3.3356,-3.2844,-3.3086,-3.3326,-3.3326,-3.3326,-3.3326,-3.3326,-3.3326,-3.3326,-3.3326,-3.3326,-3.3326,-3.3326,-3.3326,-3.3577,-3.407,-3.407,-3.461,-3.5559,-3.5688,-3.5958,-3.6367,-3.6492,-3.6492,-2.6494,-2.6319,0.0,0.0,0.0,0.0,0.0,0.0,0.0,0.0,0.0,0.0,0.0,0.0,0.0,0.0,0.0,-1.9284,-1.9787,-1.9556,-1.9515,-1.9787,-1.9646,-1.9516,-1.9382,-1.9212,-1.8985,-1.8674,-1.8518,-1.8504,-1.8639,-1.883,-1.8919,-1.9071,-1.9776,-2.038,-2.0885,-2.0987,-2.1785,-2.3384,-2.318,-2.3561,-2.4404,-2.4453,-2.4098,-2.3503,-2.3851,-2.411,-2.4206,-2.4292,-2.4464,-2.454,-2.454,-2.454,-2.454,-2.454,-2.4625,-2.4956,-2.538,-2.5957,-2.6528,-2.6798,-2.7056,-2.7231,-2.7231,-2.7383,-2.7778,-2.8547,-2.9378,-3.027,-3.1423,-3.1979,-3.23,-3.2619,-3.2685,-3.2685,-3.2685,-3.2489,-3.2385,-3.2646,-3.2855,-3.2981,-3.3247,-3.3856,-3.4231,-3.3957,-3.3924,-3.3824,-3.3545,-3.3661,-3.3691,-3.3354,-3.3621,-3.3677,-3.3354,-3.3326,-3.3326,-3.3326,-3.3326,-3.3326,-3.3326,-3.3326,-3.3577,-3.407,-3.407,-3.4476,-3.5285,-3.5559,-3.5816,-3.6085,-3.6352,-3.6492,-2.703,-2.662,0.0,0.0,0.0,0.0,0.0,0.0,0.0,0.0,0.0,0.0,0.0,0.0,0.0,0.0,-1.9652,-1.9424,-1.9991,-1.9766,-1.9688,-2.0111,-2.0022,-1.9902,-1.9916,-1.9629,-1.9312,-1.8995,-1.8974,-1.8974,-1.8974,-1.9175,-1.9376,-1.968,-2.0483,-2.1183,-2.1684,-2.2484,-2.3294,-2.4088,-2.3785,-2.3955,-2.4496,-2.4354,-2.4098,-2.3677,-2.411,-2.4282,-2.4292,-2.4454,-2.454,-2.454,-2.454,-2.454,-2.4615,-2.4615,-2.4967,-2.5376,-2.5721,-2.6135,-2.6524,-2.6885,-2.7219,-2.7403,-2.7403,-2.7483,-2.7759,-2.8643,-2.9846,-3.0885,-3.1472,-3.2199,-3.2849,-3.2849,-3.2919,-3.2934,-3.3064,-3.2961,-3.2922,-3.3198,-3.3528,-3.3853,-3.4001,-3.4648,-3.5079,-3.5002,-3.4748,-3.4618,-3.4478,-3.445,-3.4267,-3.3803,-3.4042,-3.3986,-3.3368,-3.3326,-3.3326,-3.3326,-3.3326,-3.3326,-3.3326,-3.3452,-3.377,-3.4274,-3.4409,-3.4743,-3.5285,-3.5688,-3.5894,-3.5894,-3.6289,-3.6492,-2.6083,-2.5848,0.0,0.0,0.0,0.0,0.0,0.0,0.0,0.0,0.0,0.0,0.0,0.0,0.0,0.0,-2.0235,-2.0329,-2.0565,-2.0437,-2.0478,-2.1023,-2.0507,-2.0128,-2.0128,-1.9952,-1.963,-1.9301,-1.9272,-1.9272,-1.9272,-1.9279,-1.9783,-2.0783,-2.0885,-2.1887,-2.389,-2.3989,-2.3989,-2.4088,-2.406,-2.4334,-2.4802,-2.4945,-2.4745,-2.4206,-2.4368,-2.4454,-2.4454,-2.4454,-2.454,-2.454,-2.454,-2.4786,-2.5115,-2.5115,-2.5424,-2.5797,-2.5797,-2.6119,-2.6519,-2.6519,-2.7151,-2.7931,-2.7931,-2.8241,-2.8712,-2.9274,-2.9992,-3.0659,-3.1221,-3.2315,-3.3356,-3.3356,-3.3475,-3.3666,-3.4162,-3.3753,-3.362,-3.4739,-3.514,-3.5499,-3.6077,-3.6554,-3.6655,-3.6093,-3.5967,-3.5728,-3.5226,-3.5156,-3.5142,-3.5099,-3.4548,-3.3986,-3.3368,-3.3326,-3.3326,-3.3326,-3.3326,-3.3326,-3.3326,-3.3756,-3.4274,-3.481,-3.535,-3.5816,-3.6352,-3.6429,-3.6414,-3.6414,-3.6492,-3.6492,-2.6753,-2.6921,0.0,0.0,0.0,0.0,0.0,0.0,0.0,0.0,0.0,0.0,0.0,0.0,0.0,-2.0852,-2.073,-2.0544,-2.0692,-2.0569,-2.0587,-2.0618,-2.0384,-2.0157,-1.9959,-1.9835,-1.963,-1.9301,-1.9879,-2.0277,-2.0277,-2.0885,-2.1489,-2.1887,-2.2584,-2.3285,-2.4088,-2.4805,-2.5206,-2.5382,-2.5025,-2.498,-2.5077,-2.4967,-2.4449,-2.3778,-2.4041,-2.4136,-2.4136,-2.4136,-2.4291,-2.454,-2.4786,-2.5031,-2.52,-2.5549,-2.5931,-2.6259,-2.6259,-2.6801,-2.7357,-2.7036,-2.7621,-2.8367,-2.8069,-2.8322,-2.8804,-2.9343,-3.0347,-3.1308,-3.1743,-3.2686,-3.3484,-3.3894,-3.4074,-3.4058,-3.3927,-3.371,-3.3687,-3.4379,-3.4832,-3.5425,-3.6215,-3.6772,-3.6908,-3.6669,-3.6318,-3.5981,-3.5756,-3.5728,-3.5662,-3.5268,-3.4604,-3.414,-3.3916,-3.355,-3.3326,-3.3326,-3.3326,-3.3437,-3.3756,-3.4016,-3.4476,-3.535,-3.5623,-3.5943,-3.6492,-3.6492,-3.6492,-3.6492,-3.6492,-3.6492,-2.759,-2.7386,0.0,0.0,0.0,0.0,0.0,0.0,0.0,0.0,0.0,0.0,0.0,0.0,0.0,0.0,-2.1294,-2.1249,-2.104,-2.07,-2.0377,-2.0252,-2.0055,-1.9894,-1.9777,-1.9978,-2.0069,-2.0045,-2.0846,-2.1436,-2.1542,-2.2148,-2.2685,-2.2985,-2.3692,-2.423,-2.4403,-2.5208,-2.5641,-2.5779,-2.5425,-2.5227,-2.525,-2.4842,-2.4237,-2.3606,-2.3629,-2.366,-2.367,-2.3815,-2.4053,-2.4333,-2.4819,-2.4965,-2.5002,-2.5426,-2.5817,-2.5983,-2.5983,-2.6575,-2.7208,-2.6864,-2.7633,-2.8632,-2.831,-2.8838,-2.9613,-2.9973,-3.0934,-3.1945,-3.2488,-3.3202,-3.381,-3.4063,-3.41,-3.4166,-3.4052,-3.403,-3.4193,-3.4781,-3.5271,-3.5788,-3.6466,-3.6836,-3.6978,-3.6978,-3.6627,-3.636,-3.636,-3.636,-3.6051,-3.531,-3.4773,-3.4365,-3.3986,-3.3564,-3.3326,-3.3326,-3.3326,-3.3507,-3.4085,-3.4274,-3.4743,-3.5688,-3.5879,-3.6148,-3.6492,-3.6492,-3.6492,-3.6492,-3.6492,-3.6492,-2.8153,0.0,0.0,0.0,0.0,0.0,0.0,0.0,0.0,0.0,0.0,0.0,0.0,0.0,0.0,-2.2037,-2.222,-2.2323,-2.1858,-2.0689,-1.9879,-2.0186,-1.9667,-1.9403,-1.9832,-2.0485,-2.1131,-2.1474,-2.2095,-2.2655,-2.3117,-2.2791,-2.2985,-2.4088,-2.4088,-2.4384,-2.5068,-2.5248,-2.5312,-2.5178,-2.4905,-2.5005,-2.5502,-2.4615,-2.4132,-2.3857,-2.3391,-2.3194,-2.3225,-2.3691,-2.3888,-2.3971,-2.4272,-2.4373,-2.45,-2.4893,-2.4966,-2.4923,-2.4923,-2.5268,-2.5716,-2.5716,-2.707,-2.8689,-2.8689,-2.9928,-3.1294,-3.1306,-3.1801,-3.2488,-3.3215,-3.3894,-3.423,-3.3569,-3.3495,-3.392,-3.487,-3.5022,-3.5176,-3.6201,-3.6693,-3.6993,-3.6978,-3.6978,-3.6978,-3.6978,-3.6978,-3.6978,-3.6978,-3.6978,-3.6515,-3.5367,-3.524,-3.466,-3.3438,-3.3326,-3.3326,-3.3326,-3.3326,-3.3577,-3.4085,-3.461,-3.5139,-3.5688,-3.6226,-3.6492,-3.6492,-3.6492,-3.6492,-3.6507,-3.6507,-3.6507,-2.7532,0.0,0.0,0.0,0.0,0.0,0.0,0.0,0.0,0.0,0.0,0.0,0.0,0.0,0.0,-2.3168,-2.2444,-2.185,-2.151,-2.0545,-1.9711,-1.9579,-2.0104,-2.0418,-2.0527,-2.1672,-2.2509,-2.2619,-2.3815,-2.4476,-2.4314,-2.4544,-2.478,-2.4775,-2.4469,-2.4539,-2.4898,-2.499,-2.5105,-2.5442,-2.4984,-2.4931,-2.5231,-2.4646,-2.4217,-2.3867,-2.3732,-2.367,-2.3712,-2.4157,-2.4502,-2.484,-2.526,-2.5464,-2.5427,-2.5916,-2.5821,-2.5474,-2.5474,-2.5807,-2.6186,-2.583,-2.6841,-2.828,-2.8773,-2.9733,-3.0882,-3.178,-3.25,-3.3202,-3.3713,-3.4384,-3.4743,-3.423,-3.4363,-3.4709,-3.5046,-3.5265,-3.5666,-3.6284,-3.647,-3.6693,-3.6993,-3.6978,-3.6978,-3.6978,-3.6978,-3.6978,-3.6978,-3.6978,-3.6838,-3.6473,-3.5672,-3.5085,-3.4646,-3.4211,-3.4086,-3.4552,-3.4538,-3.4545,-3.4639,-3.4824,-3.535,-3.6226,-3.6429,-3.6492,-3.6492,-3.6492,-3.6738,-3.72,-3.72,-3.72,0.0,0.0,0.0,0.0,0.0,0.0,0.0,0.0,0.0,0.0,0.0,0.0,-2.4329,-2.4836,-2.5022,-2.3903,-2.3425,-2.2917,-2.1985,-2.1008,-2.0197,-1.9596,-2.0143,-2.0632,-2.0775,-2.2122,-2.3032,-2.3191,-2.4308,-2.4932,-2.4956,-2.5054,-2.5088,-2.4814,-2.4653,-2.4529,-2.4534,-2.4726,-2.4816,-2.5002,-2.4815,-2.4779,-2.4943,-2.4488,-2.4136,-2.3867,-2.3681,-2.3712,-2.3898,-2.4167,-2.444,-2.4766,-2.5352,-2.5458,-2.5349,-2.5927,-2.5842,-2.5394,-2.5394,-2.5589,-2.5796,-2.5497,-2.6439,-2.7845,-2.8491,-2.9606,-3.087,-3.2006,-3.303,-3.3874,-3.4332,-3.4895,-3.5236,-3.4977,-3.5141,-3.5399,-3.5575,-3.5817,-3.6138,-3.6536,-3.6615,-3.6693,-3.6993,-3.6836,-3.6836,-3.6993,-3.6978,-3.6978,-3.6978,-3.6978,-3.6894,-3.6655,-3.5953,-3.5494,-3.5254,-3.4815,-3.4866,-3.5395,-3.5395,-3.5558,-3.6008,-3.574,-3.5814,-3.6163,-3.6612,-3.6769,-3.6492,-3.6769,-3.7092,-3.7507,-3.7769,-3.7908,0.0,0.0,0.0,0.0,0.0,0.0,0.0,0.0,0.0,0.0,0.0,-2.6467,-2.5035,-2.6011,-2.6492,-2.4579,-2.4831,-2.4642,-2.2788,-2.1837,-2.1,-1.9985,-2.0123,-2.044,-2.0859,-2.2188,-2.3202,-2.357,-2.4154,-2.4697,-2.5049,-2.4648,-2.4394,-2.4355,-2.4601,-2.4495,-2.4088,-2.4533,-2.4594,-2.4206,-2.4368,-2.454,-2.4529,-2.4126,-2.3939,-2.3919,-2.3494,-2.3546,-2.3939,-2.3939,-2.4023,-2.4106,-2.4891,-2.4912,-2.4645,-2.5451,-2.544,-2.4981,-2.4981,-2.4981,-2.4981,-2.4981,-2.5968,-2.7325,-2.8075,-2.9452,-3.1063,-3.2288,-3.3411,-3.442,-3.5021,-3.548,-3.579,-3.579,-3.579,-3.5884,-3.6312,-3.6405,-3.6549,-3.6915,-3.6978,-3.6978,-3.6978,-3.6693,-3.6549,-3.69,-3.6978,-3.6978,-3.6978,-3.6978,-3.6768,-3.6206,-3.6183,-3.5991,-3.5427,-3.537,-3.565,-3.6187,-3.6258,-3.6684,-3.7752,-3.7119,-3.6552,-3.5948,-3.7006,-3.7292,-3.6676,-3.7292,-3.7631,-3.7707,-3.8323,-3.86,0.0,0.0,0.0,0.0,0.0,0.0,0.0,0.0,0.0,0.0,0.0,-2.6797,-2.6473,-2.6502,-2.6345,-2.5527,-2.4758,-2.389,-2.271,-2.1402,-2.0482,-2.0194,-2.0695,-2.142,-2.2276,-2.3767,-2.4668,-2.4764,-2.5207,-2.5342,-2.5088,-2.4648,-2.4359,-2.4196,-2.3949,-2.3917,-2.4176,-2.4262,-2.4374,-2.4454,-2.4454,-2.454,-2.454,-2.4447,-2.4395,-2.4395,-2.4291,-2.4312,-2.4395,-2.4395,-2.4565,-2.4978,-2.5481,-2.5601,-2.5574,-2.6143,-2.598,-2.5543,-2.5543,-2.5543,-2.5543,-2.5543,-2.6337,-2.7565,-2.8645,-3.0176,-3.1838,-3.2998,-3.4133,-3.4994,-3.5453,-3.5898,-3.6312,-3.6679,-3.6443,-3.6312,-3.6405,-3.6615,-3.6915,-3.6978,-3.6978,-3.6978,-3.6978,-3.6915,-3.6915,-3.6993,-3.6978,-3.6978,-3.6978,-3.6978,-3.6936,-3.6796,-3.6803,-3.6745,-3.6616,-3.7012,-3.7502,-3.8068,-3.8068,-3.8138,-3.8499,-3.7865,-3.7591,-3.7866,-3.815,-3.8215,-3.8077,-3.8215,-3.8569,-3.9093,-3.9231,-3.9293,0.0,0.0,0.0,0.0,0.0,0.0,0.0,0.0,0.0,0.0,-2.6788,-2.6731,-2.6512,-2.6423,-2.625,-2.581,-2.5398,-2.4669,-2.3171,-2.2498,-2.1835,-2.0974,-2.1439,-2.2022,-2.269,-2.3594,-2.4141,-2.4141,-2.4365,-2.4385,-2.415,-2.4016,-2.389,-2.384,-2.3587,-2.3614,-2.388,-2.375,-2.3731,-2.3898,-2.3898,-2.3898,-2.3908,-2.4343,-2.454,-2.454,-2.454,-2.454,-2.454,-2.454,-2.4786,-2.5285,-2.5728,-2.5992,-2.6158,-2.6668,-2.6508,-2.6071,-2.6071,-2.5911,-2.5793,-2.6077,-2.6736,-2.7627,-2.875,-3.0075,-3.1499,-3.2947,-3.3802,-3.4624,-3.5746,-3.617,-3.6409,-3.6922,-3.6836,-3.6693,-3.6693,-3.6836,-3.6978,-3.6978,-3.6978,-3.6978,-3.6978,-3.6978,-3.6915,-3.6772,-3.6915,-3.6978,-3.6978,-3.6978,-3.7134,-3.7366,-3.7144,-3.7247,-3.7842,-3.7827,-3.8251,-3.9139,-3.9139,-3.9279,-3.9558,-3.9223,-3.8735,-3.8095,-3.8683,-3.8831,-3.8508,-3.8831,-3.917,-3.9524,-3.9847,-4.0001,0.0,0.0,0.0,0.0,0.0,0.0,0.0,0.0,0.0,0.0,-2.6559,-2.6494,-2.6093,-2.6109,-2.6162,-2.5791,-2.6045,-2.5612,-2.3897,-2.3767,-2.3367,-2.2071,-2.2022,-2.2327,-2.2769,-2.3009,-2.3135,-2.3135,-2.3135,-2.3135,-2.3144,-2.3406,-2.3503,-2.359,-2.3503,-2.3523,-2.3533,-2.333,-2.3184,-2.3184,-2.3184,-2.3184,-2.3215,-2.396,-2.4312,-2.4312,-2.4312,-2.4312,-2.4312,-2.4312,-2.4513,-2.4999,-2.5608,-2.6058,-2.6456,-2.6974,-2.6955,-2.66,-2.66,-2.6403,-2.6178,-2.6588,-2.7244,-2.7992,-2.889,-3.0004,-3.1202,-3.2731,-3.354,-3.4278,-3.5825,-3.6234,-3.636,-3.6788,-3.6915,-3.6915,-3.6993,-3.6978,-3.6978,-3.6978,-3.6978,-3.6978,-3.6978,-3.6978,-3.6915,-3.6549,-3.6772,-3.6978,-3.6978,-3.6978,-3.7211,-3.781,-3.7582,-3.7734,-3.8855,-3.856,-3.8767,-3.9753,-3.9824,-4.0036,-4.0455,-4.0524,-3.978,-3.8228,-3.9183,-3.9416,-3.8862,-3.9416,-3.9693,-3.9708,-4.0262,-4.0524,0.0,0.0,0.0,0.0,0.0,0.0,0.0,0.0,0.0,0.0,-2.5982,-2.6093,-2.6297,-2.6074,-2.5801,-2.5752,-2.5781,-2.5371,-2.423,-2.3561,-2.3033,-2.2695,-2.2172,-2.2073,-2.2938,-2.3115,-2.3135,-2.3135,-2.3135,-2.3232,-2.3406,-2.3503,-2.3677,-2.411,-2.3673,-2.3606,-2.3877,-2.3422,-2.3184,-2.3184,-2.3184,-2.3184,-2.3194,-2.3308,-2.337,-2.337,-2.337,-2.337,-2.337,-2.337,-2.368,-2.4127,-2.4945,-2.5607,-2.6063,-2.6903,-2.7185,-2.7128,-2.7128,-2.7475,-2.7814,-2.7328,-2.8209,-2.9548,-3.0245,-3.1162,-3.2125,-3.3395,-3.447,-3.5182,-3.5443,-3.622,-3.6802,-3.6522,-3.647,-3.6549,-3.6915,-3.6978,-3.6978,-3.6978,-3.6978,-3.6978,-3.6978,-3.6978,-3.6978,-3.6915,-3.6993,-3.6978,-3.6978,-3.6978,-3.7211,-3.781,-3.8263,-3.8855,-3.9538,-3.995,-4.0231,-4.0385,-4.0385,-4.0455,-4.0524,-4.0524,-4.0363,-4.0125,-4.027,-4.0355,-4.0262,-4.0355,-4.0401,-4.0401,-4.0493,-4.0524,0.0,0.0,0.0,0.0,0.0,0.0,0.0,0.0,0.0,-2.6352,-2.6177,-2.61,-2.6064,-2.5869,-2.5742,-2.5742,-2.5742,-2.5363,-2.4364,-2.3984,-2.3575,-2.3009,-2.264,-2.2687,-2.3047,-2.3135,-2.3135,-2.3135,-2.3232,-2.3298,-2.3146,-2.3393,-2.3453,-2.3451,-2.3084,-2.302,-2.3101,-2.2646,-2.2418,-2.2418,-2.2677,-2.2666,-2.2418,-2.2687,-2.2946,-2.3184,-2.3184,-2.3184,-2.3184,-2.3184,-2.346,-2.3893,-2.4566,-2.5295,-2.6006,-2.6603,-2.6962,-2.7231,-2.7626,-2.7938,-2.8243,-2.8313,-2.924,-3.0242,-3.0447,-3.1442,-3.2599,-3.3367,-3.4108,-3.4821,-3.5272,-3.5723,-3.6092,-3.6042,-3.6232,-3.6391,-3.627,-3.627,-3.635,-3.6615,-3.6836,-3.6978,-3.6978,-3.6978,-3.6978,-3.6978,-3.7289,-3.7366,-3.7056,-3.7582,-3.8113,-3.8412,-3.8634,-3.9162,-4.0106,-4.0106,-4.0176,-4.0455,-4.0524,-4.0524,-4.0524,-4.0524,-4.0524,-4.0524,-4.0524,-4.0524,-4.0524,-4.0524,-4.0524,-4.0524,-4.0524,-4.0524,0.0,0.0,0.0,0.0,0.0,0.0,0.0,0.0,0.0,0.0,-2.6221,-2.6123,-2.5791,-2.5742,-2.5742,-2.5742,-2.5742,-2.5469,-2.4687,-2.4492,-2.4141,-2.3389,-2.3203,-2.3135,-2.3144,-2.3232,-2.3232,-2.3232,-2.3406,-2.3391,-2.3038,-2.3271,-2.3318,-2.2941,-2.2649,-2.2501,-2.2501,-2.2035,-2.1807,-2.1807,-2.2159,-2.2139,-2.1818,-2.2159,-2.2511,-2.2832,-2.2832,-2.2832,-2.2832,-2.2832,-2.3123,-2.3488,-2.3998,-2.4697,-2.5436,-2.6321,-2.6758,-2.7198,-2.8119,-2.8566,-2.8706,-2.9076,-2.9854,-3.0642,-3.0663,-3.1564,-3.2687,-3.3248,-3.3862,-3.4469,-3.5063,-3.5329,-3.5483,-3.5682,-3.5978,-3.6218,-3.6031,-3.5965,-3.6045,-3.6457,-3.6758,-3.6978,-3.6978,-3.6978,-3.6978,-3.6978,-3.7352,-3.7582,-3.7289,-3.8037,-3.8708,-3.9017,-3.9017,-3.9451,-4.0385,-4.0106,-4.0106,-4.0455,-4.0524,-4.0524,-4.0524,-4.0524,-4.0524,-4.0524,-4.0524,-4.0524,-4.0524,-4.0524,-4.0524,-4.0524,-4.0524,-4.0524,0.0,0.0,0.0,0.0,0.0,0.0,0.0,0.0,0.0,-2.5859,-2.5771,-2.5762,-2.5742,-2.5742,-2.5742,-2.5742,-2.5742,-2.5576,-2.5098,-2.4678,-2.4248,-2.3809,-2.3575,-2.3406,-2.3135,-2.3493,-2.3667,-2.3503,-2.3667,-2.3649,-2.3469,-2.3523,-2.3401,-2.3205,-2.2739,-2.2501,-2.2501,-2.2035,-2.1807,-2.1807,-2.1828,-2.1828,-2.1807,-2.1828,-2.1859,-2.188,-2.188,-2.188,-2.188,-2.188,-2.2139,-2.261,-2.308,-2.3513,-2.4111,-2.6029,-2.6779,-2.7006,-2.8518,-2.9406,-2.9795,-2.9377,-2.9818,-3.0751,-3.1316,-3.1796,-3.2359,-3.356,-3.4335,-3.4746,-3.4814,-3.5248,-3.5683,-3.571,-3.571,-3.5965,-3.6744,-3.6615,-3.647,-3.6915,-3.6993,-3.6978,-3.6978,-3.6978,-3.6978,-3.6978,-3.7056,-3.7211,-3.781,-3.7886,-3.8412,-3.9538,-3.9681,-3.9895,-4.0455,-4.0455,-4.0455,-4.0524,-4.0524,-4.0524,-4.0524,-4.0524,-4.0524,-4.0524,-4.0524,-4.0524,-4.0524,-4.0524,-4.0524,-4.0524,-4.0524,-4.0524,0.0,0.0,0.0,0.0,0.0,0.0,0.0,0.0,-2.7042,-2.6517,-2.6251,-2.6074,-2.5791,-2.5742,-2.5742,-2.5742,-2.5498,-2.5156,-2.4707,-2.4521,-2.4349,-2.4117,-2.4077,-2.4146,-2.4146,-2.3989,-2.3821,-2.391,-2.3827,-2.3604,-2.3042,-2.3536,-2.3443,-2.277,-2.2873,-2.2801,-2.2501,-2.2625,-2.2542,-2.2252,-2.2553,-2.2687,-2.2687,-2.2387,-2.2252,-2.2232,-2.1932,-2.1807,-2.1807,-2.1807,-2.1901,-2.2087,-2.2611,-2.32,-2.3983,-2.5269,-2.6359,-2.7376,-2.8663,-2.9484,-2.9948,-2.9864,-3.0433,-3.1209,-3.105,-3.1809,-3.2793,-3.3213,-3.4054,-3.4749,-3.4419,-3.5022,-3.5804,-3.6058,-3.5884,-3.5951,-3.6822,-3.6693,-3.647,-3.6628,-3.6836,-3.6978,-3.6978,-3.6978,-3.6978,-3.6978,-3.7366,-3.7658,-3.7886,-3.8927,-3.9697,-3.9727,-4.0446,-4.0821,-4.0501,-4.0524,-4.0524,-4.0524,-4.0524,-4.0524,-4.0524,-4.0524,-4.0524,-4.0524,-4.073,-4.073,-4.0524,-4.0524,-4.0524,-4.0524,-4.0078,-3.9878,0.0,0.0,0.0,0.0,0.0,0.0,0.0,0.0,-2.7321,-2.6884,-2.6665,-2.6388,-2.6006,-2.5957,-2.5908,-2.5762,-2.5488,-2.5088,-2.4502,-2.4516,-2.4392,-2.4009,-2.4316,-2.4574,-2.4675,-2.4416,-2.4326,-2.4326,-2.4048,-2.3622,-2.3186,-2.3474,-2.336,-2.2749,-2.3029,-2.3039,-2.2729,-2.2948,-2.2866,-2.2501,-2.2721,-2.2793,-2.2708,-2.2408,-2.2263,-2.2242,-2.1942,-2.1807,-2.1807,-2.1807,-2.1807,-2.1838,-2.2149,-2.2717,-2.3493,-2.4826,-2.6092,-2.75,-2.8946,-2.9796,-3.0367,-3.0394,-3.0808,-3.1341,-3.0884,-3.1795,-3.2867,-3.2867,-3.3724,-3.4647,-3.4473,-3.517,-3.5978,-3.6312,-3.6284,-3.627,-3.69,-3.6693,-3.647,-3.685,-3.6993,-3.7134,-3.7505,-3.7289,-3.7134,-3.7505,-3.7734,-3.811,-3.8779,-3.995,-4.0674,-4.0679,-4.1434,-4.174,-4.1263,-4.1232,-4.1124,-4.0893,-4.0893,-4.0678,-4.0201,-4.0185,-4.0078,-3.9982,-4.0484,-4.066,-4.051,-4.051,-4.051,-4.0494,-3.9827,-3.9501,0.0,0.0,0.0,0.0,0.0,0.0,0.0,0.0,-2.7482,-2.6961,-2.6854,-2.6765,-2.6496,-2.6406,-2.626,-2.583,-2.5732,-2.542,-2.456,-2.4628,-2.4505,-2.3662,-2.4402,-2.4852,-2.4575,-2.491,-2.5077,-2.49,-2.432,-2.3877,-2.3877,-2.3453,-2.3215,-2.3225,-2.3225,-2.3225,-2.3205,-2.2951,-2.2726,-2.2522,-2.2275,-2.205,-2.1869,-2.1849,-2.1849,-2.1849,-2.1818,-2.1807,-2.1807,-2.1807,-2.1807,-2.1807,-2.1807,-2.2101,-2.2671,-2.4756,-2.6172,-2.7322,-2.9417,-3.0516,-3.0986,-3.0986,-3.0999,-3.1013,-3.1013,-3.181,-3.2725,-3.2725,-3.3522,-3.4481,-3.499,-3.5737,-3.6405,-3.6391,-3.6693,-3.7056,-3.7056,-3.6772,-3.6772,-3.7734,-3.7443,-3.7366,-3.856,-3.781,-3.7429,-3.8634,-3.8277,-3.8585,-4.0439,-4.0706,-4.1198,-4.2468,-4.2633,-4.2633,-4.2602,-4.2602,-4.2325,-4.1663,-4.1617,-4.0986,-3.9631,-3.957,-3.9462,-3.9105,-3.9807,-4.0347,-4.0625,-4.0593,-4.0497,-4.0481,-3.985,-3.9582,-2.7076,0.0,0.0,0.0,0.0,0.0,0.0,0.0,-2.7577,-2.7441,-2.7051,-2.6854,-2.707,-2.712,-2.6981,-2.6557,-2.5751,-2.5261,-2.5214,-2.5278,-2.5365,-2.5473,-2.5765,-2.6141,-2.6245,-2.5656,-2.5269,-2.5359,-2.4217,-2.37,-2.3877,-2.3764,-2.3992,-2.464,-2.4325,-2.3928,-2.3422,-2.3339,-2.3104,-2.2746,-2.2992,-2.3166,-2.3298,-2.2956,-2.2801,-2.277,-2.2097,-2.1807,-2.1807,-2.1807,-2.1807,-2.1883,-2.2585,-2.3095,-2.3638,-2.5757,-2.7176,-2.821,-2.9554,-3.0454,-3.0986,-3.0986,-3.1261,-3.1601,-3.1601,-3.2411,-3.3339,-3.3339,-3.3849,-3.4564,-3.5318,-3.5978,-3.647,-3.6758,-3.7289,-3.7658,-3.7658,-3.7886,-3.8113,-3.7962,-3.7734,-3.7734,-3.8113,-3.8263,-3.8263,-3.8188,-3.8806,-3.9623,-4.0573,-4.152,-4.2228,-4.256,-4.3017,-4.311,-4.2648,-4.2602,-4.2654,-4.2652,-4.2241,-4.1928,-4.181,-4.1794,-4.1767,-4.1712,-4.2608,-4.3158,-4.3224,-4.1926,-4.1304,-4.1288,-4.1083,-4.0735,0.0,0.0,0.0,0.0,0.0,0.0,-2.77,-2.7766,-2.7704,-2.7303,-2.7215,-2.7132,-2.7282,-2.7222,-2.7182,-2.6753,-2.6157,-2.5664,-2.5664,-2.5738,-2.5865,-2.5941,-2.6319,-2.6594,-2.6794,-2.5951,-2.5462,-2.5368,-2.4272,-2.3701,-2.3845,-2.4413,-2.4708,-2.4902,-2.4819,-2.4367,-2.3523,-2.3329,-2.3012,-2.2574,-2.3023,-2.3227,-2.3298,-2.3018,-2.2904,-2.2863,-2.2128,-2.1883,-2.2025,-2.2025,-2.2166,-2.2446,-2.2957,-2.3672,-2.4562,-2.6055,-2.7323,-2.8575,-2.9689,-3.0465,-3.1026,-3.1261,-3.1575,-3.1888,-3.2123,-3.2842,-3.3587,-3.3587,-3.4225,-3.5059,-3.5548,-3.6204,-3.6693,-3.6915,-3.7289,-3.7505,-3.7505,-3.8037,-3.8486,-3.8634,-3.8486,-3.85,-3.9299,-3.9343,-3.9358,-3.9787,-4.0293,-4.095,-4.183,-4.2619,-4.3152,-4.3448,-4.3756,-4.3833,-4.3464,-4.358,-4.3588,-4.335,-4.3089,-4.2778,-4.2269,-4.2254,-4.2181,-4.2003,-4.2884,-4.3663,-4.4237,-4.3035,-4.2333,-4.2045,-4.19,-4.1852,0.0,0.0,-2.6847,-2.7723,-2.7551,0.0,-2.7338,-2.7604,-2.7683,-2.6945,-2.7156,-2.7323,-2.706,-2.711,-2.6999,-2.6663,-2.6729,-2.6607,-2.6057,-2.6194,-2.6238,-2.5941,-2.6413,-2.6734,-2.6641,-2.6227,-2.5771,-2.5337,-2.4542,-2.4124,-2.4078,-2.5121,-2.5455,-2.4734,-2.4843,-2.4516,-2.3596,-2.3023,-2.2493,-2.2186,-2.2584,-2.2674,-2.2573,-2.2522,-2.2522,-2.2542,-2.2035,-2.2035,-2.2402,-2.2478,-2.2745,-2.3305,-2.3265,-2.4166,-2.555,-2.6238,-2.7369,-2.8771,-2.98,-3.0555,-3.1065,-3.1588,-3.1836,-3.2032,-3.2542,-3.3156,-3.3679,-3.3679,-3.4686,-3.571,-3.571,-3.635,-3.6978,-3.7056,-3.7134,-3.7211,-3.7289,-3.7734,-3.8501,-3.9715,-3.9412,-3.9533,-4.1179,-4.0676,-4.0591,-4.2276,-4.2132,-4.2212,-4.3405,-4.3633,-4.391,-4.451,-4.451,-4.4464,-4.4464,-4.484,-4.4651,-4.375,-4.4013,-4.3541,-4.2005,-4.1882,-4.1713,-4.1398,-4.2075,-4.3031,-4.4265,-4.391,-4.3396,-4.2684,-4.2446,-4.2864,-2.6827,-2.6641,-2.6764,-2.731,-2.7062,0.0,-2.7679,-2.7338,-2.6981,-2.7201,-2.6761,-2.65,-2.6845,-2.7211,-2.74,-2.743,-2.785,-2.8019,-2.7379,-2.7316,-2.7369,-2.7556,-2.7619,-2.7578,-2.7222,-2.6703,-2.6248,-2.5792,-2.5744,-2.5643,-2.5461,-2.5497,-2.5926,-2.672,-2.4519,-2.3627,-2.4291,-2.2777,-2.2029,-2.1859,-2.2188,-2.2541,-2.3039,-2.2666,-2.2697,-2.3008,-2.217,-2.2035,-2.2402,-2.2777,-2.3191,-2.3734,-2.4552,-2.5599,-2.6834,-2.8209,-2.9171,-2.99,-3.0546,-3.0895,-3.0999,-3.1117,-3.1784,-3.2555,-3.2659,-3.3417,-3.4241,-3.4241,-3.4979,-3.571,-3.571,-3.635,-3.7134,-3.7582,-3.8113,-3.856,-3.909,-3.958,-4.0258,-4.1066,-4.0713,-4.0452,-4.0807,-4.1055,-4.137,-4.1789,-4.2221,-4.2686,-4.3494,-4.4048,-4.4433,-4.4572,-4.4095,-4.3771,-4.3771,-4.3846,-4.3932,-4.4086,-4.4143,-4.4091,-4.411,-4.3576,-4.3535,-4.3945,-4.4102,-4.4299,-4.4582,-4.4297,-4.3728,-4.312,-4.3282,-4.3381,-2.6972,-2.6744,-2.6661,-2.6928,-2.6749,0.0,0.0,-2.6739,-2.6645,-2.6609,-2.63,-2.6115,-2.6341,-2.6765,-2.7108,-2.7368,-2.7942,-2.8384,-2.856,-2.8279,-2.8092,-2.7987,-2.7998,-2.7714,-2.7025,-2.6496,-2.6302,-2.6419,-2.6532,-2.6593,-2.6658,-2.6647,-2.6529,-2.6358,-2.4871,-2.4121,-2.4094,-2.2732,-2.1938,-2.1779,-2.241,-2.2886,-2.3184,-2.2946,-2.2967,-2.3143,-2.2211,-2.2035,-2.2478,-2.3075,-2.3864,-2.4842,-2.5088,-2.6168,-2.78,-2.853,-2.9411,-3.0215,-3.079,-3.0986,-3.1078,-3.1653,-3.2228,-3.2882,-3.362,-3.443,-3.5059,-3.5059,-3.5562,-3.6125,-3.6387,-3.695,-3.7582,-3.8188,-3.856,-3.8855,-3.9162,-3.9938,-4.0715,-4.1066,-4.166,-4.219,-4.219,-4.2425,-4.2729,-4.3091,-4.3422,-4.3587,-4.3571,-4.4156,-4.4326,-4.3664,-4.3571,-4.3571,-4.3571,-4.3778,-4.408,-4.4347,-4.4584,-4.4658,-4.4658,-4.433,-4.4299,-4.4642,-4.5462,-4.5798,-4.5452,-4.5599,-4.4914,-4.3441,-4.3654,-4.3706,-2.7148,-2.6786,-2.6455,-2.6548,-2.6444,-2.6279,0.0,0.0,0.0,-2.5958,-2.5813,0.0,0.0,0.0,-2.6594,-2.7046,-2.7648,-2.833,-2.9375,-2.9068,-2.8549,-2.8282,-2.8154,-2.7753,-2.7096,-2.6732,-2.6713,-2.733,-2.7557,-2.7657,-2.7657,-2.7779,-2.7127,-2.5796,-2.5249,-2.4514,-2.3833,-2.2687,-2.2007,-2.1859,-2.2713,-2.306,-2.3049,-2.321,-2.321,-2.3008,-2.2468,-2.2317,-2.2488,-2.3546,-2.4692,-2.5742,-2.5469,-2.6756,-2.8695,-2.8664,-2.9349,-3.0385,-3.0947,-3.1143,-3.1313,-3.2359,-3.2843,-3.3211,-3.4671,-3.5399,-3.571,-3.571,-3.5976,-3.6355,-3.6894,-3.7291,-3.7728,-3.8605,-3.8885,-3.9077,-3.9284,-4.0261,-4.1122,-4.1258,-4.2524,-4.3571,-4.3571,-4.3571,-4.3802,-4.4479,-4.4464,-4.4187,-4.3648,-4.4048,-4.3972,-4.291,-4.314,-4.3433,-4.3556,-4.3925,-4.4173,-4.4416,-4.4796,-4.4949,-4.4572,-4.4695,-4.4772,-4.4772,-4.6145,-4.6594,-4.6126,-4.647,-4.5762,-4.3999,-4.3803,-4.388,-2.6755,-2.631,-2.6051,-2.6465,-2.5968,-2.5678,-2.6837,0.0,-2.5937,-2.5885,0.0,-2.5181,-2.4767,0.0,0.0,-2.6563,-2.7457,-2.8363,-2.9327,-2.9083,-2.8823,-2.9216,-2.8533,-2.8152,-2.8337,-2.85,-2.8669,-2.8846,-2.9443,-2.953,-2.8737,-2.8002,-2.7434,-2.699,-2.4763,-2.3718,-2.4151,-2.2856,-2.2186,-2.2186,-2.2474,-2.2573,-2.2573,-2.3324,-2.3246,-2.2621,-2.3486,-2.3254,-2.2585,-2.4574,-2.5521,-2.585,-2.6539,-2.794,-2.9624,-2.9615,-3.0151,-3.0973,-3.1548,-3.1744,-3.1849,-3.2489,-3.3278,-3.4153,-3.4886,-3.5399,-3.571,-3.571,-3.5582,-3.5626,-3.6197,-3.6302,-3.6684,-3.8355,-3.9224,-3.995,-4.107,-4.1876,-4.259,-4.3159,-4.3464,-4.3571,-4.3571,-4.3571,-4.3802,-4.4479,-4.4064,-4.3664,-4.3587,-4.3633,-4.3633,-4.3479,-4.3017,-4.294,-4.3525,-4.3646,-4.3676,-4.3679,-4.4324,-4.4663,-4.4572,-4.5157,-4.548,-4.548,-4.5696,-4.5742,-4.5665,-4.5141,-4.4936,-4.4997,-4.4022,-4.3816,-2.6289,-2.6423,-2.6599,-2.6258,-2.6289,-2.6486,-2.6786,-2.6558,-2.6279,-2.6279,0.0,0.0,0.0,0.0,0.0,0.0,-2.797,-2.8521,-2.901,-2.8676,-2.8543,-2.8981,-2.8632,-2.8341,-2.8339,-2.8845,-2.9343,-2.9695,-3.031,-3.0407,-2.9808,-2.9087,-2.8176,-2.7013,-2.5329,-2.4326,-2.4072,-2.3345,-2.2953,-2.2953,-2.3716,-2.3775,-2.3261,-2.3566,-2.3573,-2.3217,-2.34,-2.3356,-2.3329,-2.5106,-2.6009,-2.6312,-2.7755,-2.8867,-2.9766,-2.9455,-3.0056,-3.0973,-3.0882,-3.1287,-3.1993,-3.2921,-3.3925,-3.4847,-3.5332,-3.5723,-3.6136,-3.6375,-3.6654,-3.703,-3.7989,-3.8502,-3.9106,-4.0603,-4.12,-4.1561,-4.2071,-4.2732,-4.3248,-4.3525,-4.3571,-4.3694,-4.4079,-4.4156,-4.4249,-4.4541,-4.4341,-4.4018,-4.3618,-4.391,-4.3864,-4.3094,-4.311,-4.3279,-4.3541,-4.3571,-4.3741,-4.4125,-4.4787,-4.5157,-4.5157,-4.6188,-4.6573,-4.6188,-4.6942,-4.7157,-4.6757,-4.6865,-4.659,-4.5943,-4.4725,-4.4164,-2.5823,-2.6196,-2.6548,-2.5865,-2.6206,-2.6682,-2.6589,-2.6465,-2.6413,-2.6548,-2.6103,0.0,0.0,0.0,-2.714,-2.7805,0.0,-2.8418,-2.8727,-2.8379,-2.829,-2.8854,-2.9144,-2.918,-2.8893,-2.9856,-3.0498,-3.0666,-3.1177,-3.1226,-3.0689,-2.992,-2.8787,-2.7372,-2.6221,-2.5217,-2.4535,-2.4072,-2.378,-2.382,-2.4812,-2.4724,-2.385,-2.4282,-2.4382,-2.4178,-2.4215,-2.4265,-2.4489,-2.6158,-2.6908,-2.7136,-2.876,-2.9678,-2.9999,-2.9611,-3.0134,-3.0947,-3.0699,-3.1352,-3.2489,-3.3483,-3.4413,-3.5236,-3.571,-3.6138,-3.6573,-3.739,-3.7731,-3.8231,-3.9604,-4.0106,-4.0497,-4.1778,-4.2092,-4.2138,-4.2264,-4.3036,-4.3525,-4.334,-4.3602,-4.3941,-4.4249,-4.431,-4.4372,-4.4556,-4.4572,-4.4341,-4.3664,-4.3987,-4.3925,-4.2971,-4.3294,-4.3648,-4.3833,-4.4018,-4.4402,-4.5095,-4.5588,-4.5957,-4.6126,-4.708,-4.7465,-4.7157,-4.7927,-4.8189,-4.7881,-4.8004,-4.765,-4.6834,-4.548,-4.4739,-2.5368,-2.5275,-2.5285,-2.5254,-2.5275,-2.5523,-2.6372,-2.6227,-2.603,-2.6475,-2.5865,-2.5467,-2.6409,-2.6206,-2.6261,-2.7211,-2.7243,0.0,0.0,-2.8524,-2.8469,-2.9186,-3.0288,-3.0834,-3.0716,-3.2237,-3.2771,-3.1837,-3.2333,-3.2228,-3.1201,-3.0125,-2.9227,-2.8536,-2.71,-2.614,-2.5877,-2.5004,-2.4537,-2.445,-2.5124,-2.4858,-2.3875,-2.5612,-2.6057,-2.551,-2.6875,-2.6882,-2.6171,-2.8024,-2.851,-2.8191,-2.9515,-3.0279,-3.0672,-3.0659,-3.081,-3.1065,-3.1601,-3.2555,-3.3626,-3.4188,-3.4716,-3.5236,-3.607,-3.635,-3.6819,-3.8822,-3.8713,-3.8408,-4.0172,-3.9815,-3.9209,-4.0394,-4.0706,-4.096,-4.152,-4.2635,-4.3387,-4.2756,-4.3679,-4.4341,-4.371,-4.3602,-4.3818,-4.4479,-4.4572,-4.4341,-4.3664,-4.3587,-4.3587,-4.3541,-4.3556,-4.3833,-4.4495,-4.5141,-4.5818,-4.648,-4.6557,-4.6865,-4.7511,-4.7588,-4.7912,-4.8543,-4.7942,-4.7942,-4.8573,-4.7296,-4.6973,-4.7542,-4.6188,-4.5541,-2.4902,-2.5046,-2.5437,-2.5217,-2.5372,-2.5663,-2.6434,-2.6216,-2.6092,-2.6868,-2.6537,-2.6428,-2.7302,-2.7445,-2.7414,-2.7708,-2.8055,-2.8374,0.0,-2.8901,-2.9334,-2.9665,-3.0313,-3.0823,-3.1032,-3.1821,-3.2019,-3.1326,-3.1457,-3.1407,-3.0906,-3.0727,-3.0072,-2.8791,-2.8258,-2.7506,-2.6531,-2.6586,-2.647,-2.6127,-2.686,-2.6572,-2.5286,-2.6322,-2.6602,-2.6372,-2.7199,-2.757,-2.7597,-2.8825,-2.905,-2.8913,-3.0063,-3.0546,-3.0659,-3.0258,-3.0745,-3.1692,-3.2659,-3.326,-3.3679,-3.4228,-3.4629,-3.5008,-3.6184,-3.6573,-3.7099,-3.9047,-3.9728,-4.002,-4.1043,-4.1294,-4.1435,-4.1824,-4.2279,-4.2646,-4.2875,-4.3606,-4.4172,-4.3956,-4.391,-4.3987,-4.4202,-4.3864,-4.3802,-4.4479,-4.4572,-4.4495,-4.4264,-4.4233,-4.4402,-4.4864,-4.491,-4.5187,-4.5849,-4.6126,-4.6357,-4.6588,-4.7019,-4.7357,-4.7588,-4.8035,-4.8373,-4.862,-4.8389,-4.8389,-4.862,-4.7711,-4.7157,-4.6911,-4.6003,-4.5588,-2.445,-2.4723,-2.5013,-2.4794,-2.4859,-2.5286,-2.5817,-2.565,-2.5709,-2.6796,-2.6517,-2.6459,-2.7517,-2.7583,-2.7591,-2.7973,-2.8374,-2.8698,0.0,-2.9574,-3.0163,-3.0403,-3.0941,-3.1385,-3.1613,-3.2097,-3.2136,-3.1352,-3.1287,-3.1224,-3.0996,-3.0984,-3.0597,-2.9717,-2.918,-2.8643,-2.7863,-2.794,-2.7824,-2.7447,-2.8201,-2.8002,-2.687,-2.7446,-2.7826,-2.7931,-2.827,-2.8662,-2.9101,-2.9592,-2.9732,-2.9729,-3.0457,-3.0773,-3.0722,-3.0332,-3.0862,-3.2006,-3.3182,-3.3587,-3.3734,-3.4294,-3.462,-3.5104,-3.6803,-3.7323,-3.7792,-4.0006,-4.0845,-4.1174,-4.1832,-4.2109,-4.2309,-4.254,-4.274,-4.2925,-4.3171,-4.3741,-4.4156,-4.3925,-4.391,-4.3987,-4.4187,-4.4048,-4.4079,-4.451,-4.4572,-4.4664,-4.491,-4.4941,-4.5187,-4.588,-4.5942,-4.6219,-4.6896,-4.6957,-4.7065,-4.7296,-4.7727,-4.7958,-4.7958,-4.8389,-4.862,-4.862,-4.8373,-4.8373,-4.862,-4.745,-4.6788,-4.6573,-4.5649,-4.5357]}]]